GFSSGP_850_spd_000.txt.gz
Wind_Speed
5 6 5 1 3 4 2 5 1 3 3 8 16 10 7 2 1 2 24 25 22 25 24 22 20 19 17 15 13 11 10 9 10 9 8 9 10 10 10 10 11 11 11 12 12 12 12 11 10
5 5 2 2 4 2 4 3 4 8 14 21 21 18 15 3 6 17 20 21 23 24 23 21 19 17 16 15 12 11 10 9 9 8 8 9 9 9 11 12 12 11 12 11 11 11 10 10 9
8 6 1 4 3 4 4 3 11 12 10 12 9 11 2 2 15 21 17 24 25 23 20 19 18 16 14 13 13 10 10 9 9 8 8 9 8 9 11 12 12 11 10 9 9 9 9 9 10
7 4 1 4 5 6 4 7 16 3 3 14 17 6 3 3 16 15 22 25 21 20 20 19 17 15 15 14 11 11 9 8 9 8 7 8 8 9 12 12 10 10 10 10 10 9 9 9 9
9 2 3 0 4 4 4 15 12 6 1 20 14 7 4 9 7 17 24 22 21 21 19 17 16 15 14 12 10 9 8 8 8 6 8 8 9 10 11 11 11 11 11 13 13 14 14 13 13
3 2 3 2 3 4 3 16 14 7 6 9 7 9 5 10 15 19 21 21 20 19 18 16 14 13 12 10 9 8 8 8 7 8 9 9 10 10 12 12 11 13 13 15 16 16 15 15 15
4 4 3 3 1 3 4 14 11 9 14 3 16 4 12 20 18 20 21 21 20 18 16 16 14 12 10 9 9 8 8 8 9 10 10 10 10 11 13 12 12 13 13 14 16 18 17 16 15
2 4 4 3 2 4 3 5 8 9 3 18 5 6 9 25 20 20 19 19 18 18 16 14 11 10 10 11 9 9 9 10 10 11 10 11 11 11 10 11 11 11 12 12 13 15 16 17 18
2 4 0 5 4 3 8 4 5 6 14 4 1 10 25 26 22 22 23 22 21 17 13 11 11 11 12 12 11 10 11 12 12 12 10 10 9 9 10 9 9 10 10 11 13 14 16 17 19
3 3 9 5 4 9 22 8 12 7 8 3 7 12 30 28 26 28 28 25 21 17 13 12 11 12 12 11 11 12 11 11 10 11 9 9 7 7 7 7 7 7 8 9 11 12 14 16 19
4 4 6 3 11 14 10 7 7 18 2 10 25 32 32 30 29 27 24 20 18 14 14 13 11 11 11 12 12 11 10 9 7 9 8 6 5 5 5 4 5 6 8 11 12 13 15 17 21
1 8 7 10 16 10 12 9 7 7 4 18 21 28 33 32 31 27 22 21 20 16 12 12 11 10 10 11 10 7 8 7 5 5 4 3 3 3 2 2 5 9 11 12 14 15 18 21 23
3 4 4 9 11 16 15 7 7 5 6 20 25 29 30 31 29 27 18 16 17 15 13 11 9 9 8 7 7 6 4 3 3 2 2 2 1 2 4 7 8 9 10 11 13 18 22 23 22
8 5 5 3 13 11 9 4 3 3 15 22 27 28 27 26 24 24 22 17 16 14 11 9 7 9 9 6 7 8 7 5 7 5 4 4 4 5 7 9 9 9 11 15 18 24 24 21 19
9 5 6 7 4 4 14 4 1 4 20 26 30 29 28 28 25 23 21 18 14 14 15 14 13 13 10 7 7 11 10 13 14 11 10 9 9 10 11 10 10 14 18 20 25 26 21 18 18
6 5 4 3 3 3 5 4 8 7 23 22 23 21 21 18 22 24 22 21 20 21 20 19 19 17 12 5 13 13 18 17 18 14 12 10 10 10 10 14 18 19 22 26 26 22 20 19 20
6 3 3 1 3 3 5 2 12 3 16 11 11 11 12 15 13 19 19 20 20 22 22 23 19 17 11 14 17 18 13 11 7 8 7 9 9 12 15 18 20 23 25 24 22 20 19 21 21
5 3 1 4 1 12 8 5 7 10 11 11 11 10 10 10 7 9 12 12 12 19 20 17 15 12 9 7 8 10 7 3 4 9 7 10 13 16 20 22 21 24 26 25 22 22 22 24 25
4 4 3 2 4 8 5 6 9 16 17 16 17 17 16 13 12 8 7 6 7 8 12 12 11 6 3 4 13 6 4 9 10 9 14 16 18 21 19 22 23 25 21 21 20 20 21 24 27
6 6 3 3 4 9 10 10 7 14 7 13 23 25 28 27 23 18 16 13 11 12 12 14 11 11 7 7 1 5 8 8 9 13 15 17 18 18 19 20 20 17 17 20 22 24 23 26 28
4 4 3 5 10 6 7 6 7 6 11 15 22 26 23 21 22 20 19 17 17 17 16 16 14 12 10 9 7 9 9 9 12 15 16 18 19 17 18 17 15 20 29 31 31 28 27 27 25
3 1 5 7 4 4 2 2 2 2 2 3 12 17 18 21 21 22 19 19 17 17 14 11 10 7 4 5 7 10 11 11 13 15 17 17 16 16 17 20 29 35 35 30 22 25 27 27 26
3 6 6 3 5 5 4 5 3 3 4 5 9 14 18 20 20 22 18 15 15 14 11 8 6 4 5 8 9 13 14 13 14 15 16 15 19 25 28 29 30 27 23 24 23 25 26 25 21
4 6 6 4 3 2 4 5 4 7 7 5 9 16 18 18 19 20 16 12 9 9 7 4 1 4 7 9 10 11 11 11 12 14 16 21 23 23 28 26 25 24 19 18 20 23 23 21 19
6 5 3 3 3 4 1 3 6 11 7 11 17 20 18 18 20 19 16 12 9 7 3 2 1 3 3 6 8 7 9 12 14 15 18 22 23 24 24 23 22 14 12 11 14 19 22 19 17
2 5 5 6 3 3 3 3 4 7 20 26 25 19 18 17 18 15 14 12 9 8 7 3 1 5 8 7 7 9 12 16 19 21 24 27 27 26 24 22 20 22 23 27 14 14 18 16 17
2 2 3 7 3 3 3 4 4 4 5 16 21 16 17 16 17 17 15 13 11 8 4 2 7 9 7 9 11 15 20 23 25 28 31 32 31 26 21 16 17 21 22 8 12 16 15 15 15
2 5 3 3 3 2 3 4 4 5 9 8 9 17 18 19 20 19 16 13 9 4 3 8 9 9 9 12 17 22 26 28 30 33 33 31 27 19 16 13 21 19 22 15 11 12 14 16 17
2 2 6 5 3 4 1 5 4 9 11 9 14 20 23 25 23 19 14 10 5 1 4 11 7 6 11 17 21 24 26 30 30 32 32 29 19 15 18 22 25 16 15 9 11 14 16 19 20
1 3 4 5 3 1 3 5 4 8 13 17 18 21 24 24 20 15 10 6 4 2 3 4 4 10 15 20 22 23 26 29 31 32 29 24 16 15 16 18 23 19 9 9 13 17 18 22 23

GFSSGP_850_spd_003.txt.gz
Wind_Speed
5 3 4 4 2 1 1 4 2 7 5 8 9 12 14 15 5 3 16 19 21 22 23 21 21 21 20 17 15 14 12 11 11 11 10 10 9 8 9 10 10 10 10 9 9 10 10 11 11
6 5 6 2 2 3 1 2 9 12 19 14 15 11 12 6 11 3 21 21 22 22 23 23 20 20 18 16 14 12 10 11 11 10 10 10 9 9 11 11 10 9 8 8 8 9 9 10 11
6 7 2 2 2 4 1 6 18 23 13 10 7 5 7 4 9 11 14 21 24 23 23 22 21 18 17 14 12 10 10 11 10 10 9 9 9 10 11 11 9 8 7 7 8 9 10 11 12
9 5 2 2 4 3 4 14 20 17 8 5 17 4 10 8 8 20 17 22 22 21 22 20 19 18 15 13 11 10 11 11 10 9 10 9 10 11 11 10 8 9 10 11 13 14 14 14 15
9 3 2 2 3 1 3 18 12 6 8 8 4 10 10 15 19 16 21 24 21 20 20 20 18 15 14 12 10 11 11 11 10 9 9 9 10 11 10 10 10 11 14 15 16 16 17 17 17
3 2 1 3 1 2 3 14 16 12 14 5 4 8 6 18 12 17 21 21 21 21 20 18 15 14 12 12 11 11 11 11 9 11 9 10 11 11 11 11 11 12 14 15 16 16 16 16 17
3 2 3 3 4 4 4 14 13 11 10 6 14 3 7 13 17 21 21 20 19 18 18 17 14 13 12 11 11 10 11 10 11 11 10 11 11 11 11 11 11 11 12 12 14 14 14 15 15
2 2 4 3 9 6 4 11 15 12 3 20 14 6 7 22 19 21 23 21 19 16 16 16 14 12 11 10 10 9 10 11 11 11 10 11 11 11 10 9 9 9 9 9 10 10 11 14 18
4 1 4 6 8 7 10 5 9 7 13 6 6 8 14 27 25 25 23 21 19 16 14 12 11 10 10 10 8 8 10 10 10 10 10 9 9 8 8 6 7 6 6 8 9 10 9 13 16
4 2 6 3 10 13 19 13 9 7 8 3 8 11 31 27 25 25 24 22 20 16 14 12 11 10 9 8 8 8 10 10 10 9 9 8 6 6 5 4 4 4 6 9 11 11 11 13 16
4 3 4 5 8 9 15 6 6 18 5 5 14 29 28 25 23 23 22 20 17 15 13 10 9 8 8 6 6 7 8 8 6 8 7 5 4 3 3 2 2 4 5 7 9 10 11 15 19
3 5 2 7 6 10 8 13 6 6 1 2 16 28 29 26 24 21 19 18 15 14 12 11 10 9 8 8 7 6 7 7 5 4 5 4 3 3 2 2 4 5 6 9 10 11 14 19 21
4 3 2 2 11 17 12 8 7 3 6 12 20 27 26 24 21 18 16 14 14 13 13 12 13 12 11 8 6 5 3 4 3 3 5 5 5 4 5 6 7 9 11 13 15 17 21 23 22
6 7 8 8 12 8 9 5 5 6 12 19 22 25 25 24 21 19 16 15 14 13 14 13 12 11 10 6 2 2 4 9 9 11 11 10 11 10 8 9 10 12 15 18 19 22 25 24 21
8 7 6 8 4 4 9 5 5 8 13 19 18 20 21 21 22 20 17 16 14 15 14 13 13 12 9 5 6 8 15 14 13 14 16 14 16 12 10 13 16 17 18 20 24 25 25 24 22
4 4 4 2 2 4 1 3 7 8 9 11 15 18 19 16 18 17 16 16 15 15 16 15 14 14 10 4 13 18 15 17 20 21 14 7 6 10 10 14 15 18 21 22 24 23 21 20 20
7 3 3 4 11 2 7 1 11 5 11 11 12 13 14 12 12 13 11 13 12 16 17 18 19 15 12 12 18 17 15 8 7 7 2 3 5 10 14 18 19 18 22 25 22 21 21 21 21
4 4 2 5 4 11 11 5 9 9 9 11 12 13 14 12 9 10 12 10 11 17 17 15 12 9 13 10 8 7 2 2 6 7 6 10 13 14 19 18 17 20 19 18 19 20 22 23 24
5 3 6 3 3 7 8 8 9 8 10 9 10 13 14 13 11 10 10 9 9 9 9 7 7 8 3 4 4 4 5 8 11 8 11 13 16 18 21 18 18 18 17 18 18 21 24 27 28
5 6 4 5 4 6 8 11 8 9 5 5 11 14 17 19 17 15 15 17 14 14 11 12 13 10 8 7 3 6 5 2 6 11 14 16 17 19 19 18 17 18 22 25 28 28 26 23 25
4 7 4 5 7 8 7 5 4 6 8 10 12 16 19 24 27 26 24 24 25 23 20 17 14 12 9 8 5 1 4 6 10 13 15 16 18 17 17 18 21 25 28 28 24 20 17 16 21
4 4 11 11 2 3 3 3 1 2 5 7 10 13 19 25 27 27 28 29 28 24 21 19 18 14 10 5 2 4 6 8 11 13 14 15 16 18 20 23 27 27 25 20 19 18 17 18 14
4 6 7 3 4 3 2 2 3 5 7 9 11 10 17 23 26 27 27 26 26 24 20 17 12 8 5 4 4 5 6 7 8 9 11 15 19 21 25 27 27 24 21 18 17 15 15 18 20
10 6 6 3 2 0 1 2 5 10 14 13 12 12 18 24 25 25 24 25 23 20 17 14 10 9 6 4 4 6 7 9 12 15 18 20 23 26 27 28 25 24 23 21 19 18 21 20 21
5 4 2 1 1 3 1 2 5 15 12 18 21 20 23 24 24 22 22 21 20 18 15 12 9 5 2 3 7 9 11 13 16 20 23 25 28 29 28 24 22 20 19 15 14 13 12 16 13
2 4 4 5 4 2 1 5 3 3 15 22 24 21 23 24 23 20 18 18 18 18 15 12 7 2 3 6 9 9 11 16 20 24 26 27 27 27 25 22 18 17 15 15 22 15 16 12 13
3 2 2 6 2 1 2 3 6 1 10 15 18 21 22 23 22 19 17 18 19 17 13 7 1 5 3 5 8 13 18 23 26 28 29 29 27 25 21 16 14 17 15 24 15 11 10 13 15
1 6 3 2 4 3 2 5 5 6 14 12 16 20 21 21 21 20 21 20 17 13 10 5 2 4 7 8 13 18 22 26 28 29 29 29 27 22 16 13 12 15 24 17 8 8 10 14 17
3 2 5 4 1 3 2 4 4 8 13 16 22 20 23 23 24 25 22 18 14 11 6 3 9 8 7 11 16 19 23 26 26 28 27 25 21 15 12 12 15 19 21 11 10 9 12 15 19
1 3 4 3 4 1 0 5 1 6 10 12 12 19 21 24 26 23 19 16 13 8 3 5 6 8 10 13 17 19 22 22 26 27 26 23 20 13 10 13 19 22 17 8 11 11 13 19 20

GFSSGP_850_spd_009.txt.gz
Wind_Speed
8 6 4 8 7 8 16 18 1 8 6 12 6 4 13 16 8 2 14 13 21 23 26 26 24 21 18 16 13 11 9 9 8 7 5 5 5 5 7 8 8 8 9 9 10 12 14 16 16
3 8 8 14 8 13 14 16 7 16 10 17 14 11 12 13 12 14 12 15 21 24 26 25 23 20 18 15 12 10 8 9 8 6 6 6 6 8 9 9 8 7 8 9 11 13 16 18 19
9 9 14 7 13 15 12 12 14 17 14 13 8 12 7 7 8 10 13 19 19 21 21 23 21 19 16 14 10 9 9 9 8 6 6 6 7 8 9 8 7 8 9 11 13 15 18 20 21
8 8 12 9 18 16 8 16 18 16 10 7 9 12 5 3 5 9 19 18 20 23 24 22 19 18 15 13 10 9 9 9 7 7 6 6 7 8 7 7 9 10 12 14 14 16 18 21 22
12 14 11 14 18 5 5 10 13 11 10 14 11 10 8 7 7 12 15 16 18 21 21 25 22 18 15 11 10 10 10 8 6 6 5 6 7 7 7 7 10 12 12 13 13 14 15 18 21
13 17 13 15 18 5 9 14 17 15 17 7 4 12 9 6 9 11 11 14 15 15 20 20 16 13 12 10 11 10 9 8 5 5 4 5 7 6 6 8 9 11 11 10 10 10 10 13 17
18 11 16 17 4 8 10 18 9 12 11 8 4 1 9 11 10 10 12 10 6 32 21 17 17 16 13 10 9 9 8 7 6 5 5 6 6 5 6 5 6 7 7 6 5 5 7 11 14
19 13 19 10 11 2 6 7 7 5 14 7 6 3 7 15 11 13 15 18 17 12 21 16 14 14 12 10 9 8 8 6 6 5 7 7 6 5 4 3 2 2 2 3 4 5 7 10 15
13 11 15 15 7 9 9 10 7 12 10 5 16 5 12 18 16 16 15 16 16 17 19 16 15 12 11 8 7 7 7 8 6 6 8 11 6 5 6 6 2 2 3 4 5 7 8 12 15
13 13 16 4 14 11 6 8 13 11 5 13 5 12 18 20 19 17 14 15 15 16 17 14 12 13 13 7 9 8 9 6 6 6 6 4 3 1 0 5 5 6 7 7 11 11 10 12 11
18 15 5 7 15 10 12 10 15 13 11 19 21 21 21 20 18 17 16 17 15 13 13 12 13 11 9 8 8 7 6 6 5 6 7 6 2 5 0 1 6 7 12 8 10 11 10 12 13
15 15 6 7 1 2 5 7 23 30 8 21 17 22 23 21 19 19 19 17 13 11 11 11 10 11 10 10 8 10 7 6 5 1 1 3 1 3 4 2 1 9 10 12 10 12 13 14 15
12 4 2 3 5 7 7 7 14 14 14 20 23 22 21 21 19 17 17 16 14 14 13 12 12 11 13 13 12 10 9 6 3 4 7 7 6 7 7 14 19 11 12 12 14 15 14 16 17
12 9 3 7 7 7 8 15 12 8 17 22 23 22 21 19 18 18 16 15 15 16 16 15 15 14 14 13 13 9 8 3 3 6 10 11 10 11 14 11 7 9 11 13 13 14 15 16 14
5 7 11 3 10 10 13 8 12 12 18 19 19 19 18 18 17 18 18 17 16 16 17 17 18 17 16 13 10 6 1 10 10 7 10 9 10 12 11 7 9 10 13 17 14 13 14 14 17
12 12 13 19 12 8 12 13 8 15 19 19 21 20 20 19 18 17 17 18 17 17 18 18 16 17 16 14 5 10 18 18 13 2 5 3 1 4 6 7 11 14 16 16 16 14 15 15 17
7 9 14 9 8 12 13 18 12 17 20 22 20 19 19 19 17 17 17 17 17 17 18 18 16 16 15 8 5 7 7 5 1 5 5 3 2 4 5 6 7 11 11 13 14 14 16 19 21
6 11 15 13 10 10 3 16 10 16 16 17 20 19 17 17 17 16 16 17 17 17 16 16 14 13 9 1 2 4 7 6 5 4 3 2 4 5 4 7 9 11 11 14 15 17 18 19 22
13 9 13 15 6 9 10 14 14 14 16 17 17 18 18 17 15 15 16 17 17 17 17 15 12 9 6 5 5 6 4 4 4 2 1 5 6 6 10 7 10 14 15 16 18 21 21 21 22
4 5 12 9 9 9 10 10 11 13 15 17 18 18 18 17 15 15 16 17 18 17 16 15 12 9 9 7 7 6 4 4 4 1 9 6 7 7 9 12 14 15 17 19 20 19 21 19 18
8 10 11 13 11 13 12 13 13 11 11 11 15 17 16 17 17 16 17 18 18 17 16 14 12 13 12 10 5 4 3 2 1 3 4 7 9 10 13 15 17 18 19 20 21 19 17 18 17
8 4 11 4 11 13 16 10 11 15 14 13 14 14 16 18 17 17 17 18 19 18 16 15 15 13 9 9 8 7 4 1 1 3 6 9 11 13 15 17 19 19 19 20 19 16 14 17 17
17 10 7 7 11 12 17 9 9 18 15 16 15 16 17 17 19 20 21 20 19 18 17 17 15 11 11 10 8 5 4 3 2 4 8 10 12 14 15 16 18 18 18 18 17 16 16 15 17
5 4 6 6 10 7 16 12 17 15 15 16 18 18 19 21 21 21 21 22 20 19 18 17 15 13 11 10 9 7 2 2 2 6 8 10 12 13 14 15 17 17 16 15 15 13 13 13 15
9 9 8 9 8 10 5 7 11 10 7 14 19 22 21 21 22 24 24 22 21 19 18 17 15 13 12 10 8 4 4 4 5 7 8 10 11 12 14 17 16 15 13 12 13 13 19 16 13
10 13 9 7 7 11 6 7 4 8 2 9 22 23 23 24 24 25 24 22 20 19 18 17 16 15 13 11 8 1 1 4 3 7 8 9 11 13 15 15 15 12 11 13 12 15 13 13 14
9 8 7 7 3 7 13 18 10 5 6 12 21 23 25 25 26 26 23 22 20 19 20 19 18 16 14 11 5 9 3 5 5 5 8 9 11 13 13 13 13 12 12 13 14 15 16 17 13
8 2 5 6 6 11 10 7 6 8 8 12 18 24 25 26 25 25 24 22 21 21 21 20 20 17 14 5 5 5 3 1 3 6 9 10 11 12 13 13 12 14 13 17 17 19 17 14 12
7 10 7 5 3 5 4 3 8 4 3 12 18 24 25 27 26 25 24 23 23 22 23 22 20 18 11 7 9 6 5 4 5 6 8 10 12 12 13 13 13 13 16 18 19 19 17 15 14
10 8 11 5 6 3 3 8 2 3 3 9 14 20 22 25 26 25 24 24 24 25 24 24 21 16 12 12 8 8 7 6 7 8 9 11 12 13 13 13 13 15 17 17 16 14 14 16 16

GFSSGP_850_spd_012.txt.gz
Wind_Speed
8 7 4 10 7 7 14 19 22 6 6 7 7 14 14 14 6 3 11 13 18 21 28 27 24 23 22 20 17 15 14 11 10 8 7 7 8 10 11 12 11 11 13 16 18 20 22 23 24
4 4 10 11 8 12 14 20 18 13 17 16 18 13 14 13 12 16 18 21 23 25 29 28 25 23 21 19 16 14 12 11 9 7 7 8 9 10 11 10 10 12 15 17 19 21 23 24 24
9 8 11 6 12 15 17 11 8 15 11 15 9 11 6 9 13 11 18 24 26 23 25 27 24 22 20 19 15 14 11 10 8 7 8 8 9 10 10 9 11 13 16 18 19 21 23 24 26
5 8 11 8 18 20 21 7 16 12 13 14 15 6 7 6 8 12 15 20 24 24 22 24 22 20 18 17 15 13 11 10 8 7 7 8 9 9 10 10 13 14 16 16 17 18 18 20 23
9 11 10 13 17 22 6 20 16 16 13 21 25 7 8 7 14 18 20 16 20 24 26 25 22 19 19 15 14 12 11 9 8 7 7 9 9 9 11 12 13 14 14 14 13 13 15 18 22
11 12 12 14 20 21 8 29 30 18 11 11 3 11 8 11 17 16 15 14 13 20 22 20 14 12 17 16 15 12 10 8 7 7 8 8 8 9 10 11 12 12 11 10 10 10 12 15 19
16 11 15 19 20 6 5 34 26 25 18 16 9 5 1 12 19 12 12 13 12 23 26 25 19 16 12 12 14 11 9 7 7 7 9 9 9 9 8 8 8 8 7 6 6 8 10 14 16
19 12 20 18 17 10 20 20 19 12 13 18 16 9 6 13 14 8 14 15 22 26 19 21 17 10 12 13 11 9 8 7 8 9 11 12 12 8 6 5 3 3 4 6 7 9 11 13 16
18 11 14 20 20 8 16 13 7 21 6 8 9 13 9 20 15 21 20 22 29 20 16 16 18 15 12 11 11 9 9 9 10 12 14 13 11 7 5 8 3 3 5 7 9 12 12 11 14
15 11 18 17 14 10 20 19 35 6 16 7 7 28 18 21 20 20 22 27 30 27 19 19 18 16 12 14 13 13 14 12 11 11 13 7 8 5 1 4 6 7 10 11 9 12 11 8 14
17 16 9 15 19 19 25 31 13 5 7 12 21 27 23 18 18 22 21 25 23 22 20 18 17 16 15 13 16 13 10 10 11 12 7 6 6 4 4 2 4 6 9 6 10 10 11 17 13
14 19 16 10 10 17 6 22 13 18 8 27 17 18 23 17 17 21 24 25 20 16 17 18 19 18 16 18 14 13 12 6 7 5 6 2 3 4 2 3 5 2 3 6 9 12 10 6 11
13 17 2 5 14 8 25 9 17 16 14 23 12 23 23 18 18 18 20 16 18 17 19 15 16 19 18 18 16 17 14 11 7 5 6 5 6 4 4 9 12 10 6 7 10 11 14 18 20
9 14 6 6 8 20 12 5 14 18 14 19 20 21 22 19 20 18 22 19 20 19 20 18 16 24 18 19 16 14 12 9 5 8 7 6 5 9 8 9 7 7 15 14 14 17 20 17 13
3 9 2 2 4 5 17 11 11 19 18 20 20 17 16 17 20 19 18 18 20 19 18 18 22 20 19 16 14 10 4 4 5 8 4 7 8 8 8 3 7 14 12 15 20 21 20 17 17
10 10 7 6 10 5 8 13 12 24 18 19 21 18 16 16 16 15 16 17 16 18 18 20 21 18 19 18 12 3 11 12 5 2 6 4 2 1 1 7 10 10 11 14 15 15 12 15 17
10 8 6 7 19 6 9 16 16 20 22 21 22 21 21 19 18 18 17 19 19 19 20 22 20 20 20 17 7 6 5 3 6 4 5 5 3 3 4 8 11 13 9 9 13 14 17 21 20
7 6 15 14 13 9 14 16 13 16 36 34 23 23 21 19 21 19 19 19 19 20 19 20 20 17 16 4 4 8 9 10 9 7 5 9 5 6 5 4 11 13 11 12 14 20 18 20 20
8 16 16 14 10 10 13 14 16 18 26 23 19 22 20 18 16 18 19 20 21 20 20 17 17 15 12 8 9 11 11 8 5 3 3 2 4 7 11 5 9 10 12 15 19 19 18 18 22
14 13 9 10 7 10 10 13 16 14 15 16 20 25 24 22 22 19 19 22 22 22 20 18 16 10 10 12 15 14 12 12 4 6 7 7 9 8 6 12 14 14 17 17 16 19 22 20 16
14 3 7 7 8 7 8 1 13 15 14 16 19 19 22 25 23 19 20 20 21 24 23 18 17 13 15 17 15 15 9 3 9 8 2 3 9 9 8 10 13 16 17 17 19 20 18 16 14
7 13 6 8 6 10 13 6 10 16 14 13 19 21 21 24 22 21 20 21 23 22 20 19 18 21 19 12 14 13 12 16 11 6 6 7 7 11 13 14 16 18 18 19 17 15 19 20 14
7 15 9 12 11 2 13 6 6 14 13 15 14 18 20 21 22 24 23 24 24 22 22 21 23 18 16 17 17 16 11 9 6 7 7 7 11 11 12 13 17 18 17 15 16 15 17 17 16
8 8 15 10 9 2 8 10 7 12 23 4 16 14 15 20 22 22 25 22 24 24 23 25 21 17 17 20 20 19 16 12 8 6 7 11 9 12 12 16 17 16 13 12 13 17 16 16 19
8 9 7 3 5 7 13 9 8 20 14 15 24 24 20 19 22 25 27 28 29 27 27 25 20 20 19 20 19 17 11 4 5 6 10 11 10 11 13 17 15 14 9 14 16 18 20 22 20
14 10 4 6 4 10 5 4 4 16 33 44 39 24 22 22 21 22 25 25 24 25 24 22 23 20 19 19 17 11 6 6 8 10 11 9 10 11 14 14 13 10 13 15 18 15 14 14 15
5 9 8 4 16 6 4 14 15 8 10 7 23 23 22 20 21 24 26 25 26 24 24 25 24 22 21 19 16 10 6 7 9 8 8 8 11 11 11 14 10 9 16 16 17 17 15 19 17
6 9 3 3 3 5 8 9 3 4 5 2 13 19 21 21 22 23 25 25 25 24 24 25 24 25 22 21 15 11 8 7 7 7 8 10 11 12 11 12 12 12 11 13 15 17 17 18 18
7 8 8 7 4 1 4 2 7 7 5 5 7 20 21 23 23 25 26 26 24 25 25 27 26 26 25 24 15 11 8 10 8 7 9 10 12 11 12 12 13 13 12 14 17 18 19 18 17
9 9 12 3 5 2 0 6 4 4 3 2 6 14 24 26 26 27 27 26 27 25 26 26 27 26 26 20 16 14 14 10 9 8 9 11 13 11 13 14 13 12 14 16 17 15 15 16 15

GFSSGP_850_spd_015.txt.gz
Wind_Speed
8 4 4 3 1 2 4 8 5 1 4 17 21 18 15 13 5 6 28 11 27 26 27 25 26 25 24 22 20 18 17 16 14 13 14 14 16 16 16 16 16 18 21 23 25 26 27 26 24
4 7 4 5 3 1 5 7 9 6 14 19 22 21 13 5 9 18 25 18 22 31 35 30 28 26 24 22 19 18 16 15 14 13 14 15 16 16 15 15 17 19 22 23 24 26 27 29 25
8 8 4 4 4 5 6 1 10 14 16 11 5 15 9 4 14 16 18 23 30 37 35 32 29 27 24 21 19 18 17 15 13 13 14 15 15 15 15 17 19 19 20 21 22 23 24 26 27
7 4 7 1 10 15 16 5 9 10 18 18 10 6 8 9 7 11 26 28 34 34 32 29 27 24 22 20 18 16 16 14 14 13 14 14 15 15 16 18 19 19 18 18 18 19 21 23 25
4 6 2 3 9 13 3 20 7 7 8 12 17 7 7 11 13 16 23 32 39 33 31 29 26 23 22 21 15 13 13 13 13 13 14 14 14 15 16 17 17 16 15 14 14 16 18 20 22
5 3 1 6 12 15 5 13 10 5 11 11 14 13 10 12 14 13 15 19 26 34 31 29 25 24 23 17 14 13 13 12 13 13 14 13 14 15 15 15 15 13 12 10 11 14 15 17 18
9 2 8 11 14 8 5 10 7 4 8 1 6 5 11 15 13 9 6 11 22 27 25 22 17 15 23 14 14 13 11 11 12 14 15 14 13 13 12 12 11 9 8 8 10 12 13 13 14
21 3 8 9 12 4 4 2 10 9 5 14 12 4 7 18 10 17 18 20 20 18 17 16 15 14 17 16 13 12 11 12 14 16 16 15 14 12 11 7 6 5 7 8 9 11 9 10 10
18 3 5 6 5 2 8 2 7 19 17 13 12 8 22 22 20 22 26 30 24 22 26 26 25 21 19 17 15 13 12 15 17 17 16 14 11 11 10 10 9 8 11 8 10 12 7 7 11
6 2 4 3 6 4 2 10 8 5 22 11 14 11 13 15 26 32 39 30 29 29 23 21 19 16 15 15 15 14 16 18 19 16 13 11 10 9 9 9 8 10 8 9 9 8 6 10 10
11 7 5 6 7 14 8 11 4 3 3 26 25 25 15 20 16 40 27 29 36 29 26 21 20 19 14 14 19 17 16 18 20 12 13 11 10 9 5 4 2 7 9 6 5 4 3 2 5
5 17 16 8 13 9 8 7 11 11 8 26 24 26 20 21 21 30 28 30 28 30 28 26 24 20 19 19 20 18 17 14 16 13 12 5 4 2 3 3 3 3 2 3 5 5 6 7 10
8 8 14 14 15 12 15 16 11 14 23 28 19 20 19 23 22 23 28 26 27 27 28 25 21 19 18 18 19 16 13 13 11 8 5 1 3 3 5 4 4 2 3 7 11 11 13 17 19
10 13 5 7 15 9 14 10 10 8 13 16 18 21 26 26 28 26 31 29 27 27 27 26 27 23 24 22 21 17 16 13 8 5 1 5 6 4 4 3 2 2 8 11 12 14 16 18 14
7 3 1 5 15 3 10 4 5 19 15 14 17 24 29 28 33 27 26 27 30 27 21 24 30 26 24 22 20 16 14 7 4 5 2 4 5 3 3 3 4 7 8 11 13 17 18 18 16
4 4 2 5 5 9 9 6 9 27 25 21 25 23 28 27 29 30 30 28 28 24 20 34 28 25 22 19 18 12 5 3 1 5 6 6 4 3 2 4 6 7 9 13 14 13 12 13 18
3 2 5 2 18 3 4 7 16 27 27 25 25 22 26 25 24 27 26 24 21 17 29 26 25 23 22 22 15 6 6 4 7 9 7 7 5 3 3 6 9 9 5 8 12 14 17 22 16
5 8 3 7 6 4 6 6 12 22 24 13 13 14 24 23 23 23 21 22 20 21 28 25 22 23 25 19 6 9 12 13 11 9 6 5 3 3 3 6 9 11 10 12 15 17 20 17 17
4 2 7 8 10 6 8 10 11 15 22 24 11 3 15 27 28 25 26 27 22 23 29 25 25 25 24 13 9 16 16 12 8 6 8 4 3 5 6 7 10 14 15 15 18 18 16 18 22
9 7 10 9 6 5 2 7 12 14 13 28 27 36 31 30 31 28 31 30 29 28 26 22 21 23 20 14 12 15 14 10 8 7 6 5 2 5 8 12 12 15 16 17 15 17 19 16 17
4 6 3 5 3 3 5 5 3 3 13 20 36 37 36 35 36 31 33 33 30 30 29 22 19 19 22 22 21 23 18 13 13 11 8 5 7 10 12 14 16 18 19 19 19 18 16 14 14
3 4 6 3 5 2 5 1 5 5 9 6 33 38 38 36 35 33 30 33 32 29 26 22 20 24 20 29 24 27 24 21 19 17 13 10 11 14 15 17 16 16 17 17 17 16 17 19 20
6 7 2 2 4 7 4 4 5 1 12 13 8 18 36 38 40 35 31 27 25 29 28 25 26 27 28 25 25 26 24 25 25 20 14 9 11 14 15 15 15 16 17 14 13 13 14 17 16
2 2 3 3 3 3 7 6 4 10 18 9 3 13 13 36 35 31 30 27 23 25 26 28 31 31 29 26 25 27 29 29 24 17 11 10 15 14 14 14 15 16 13 12 13 14 15 15 16
1 3 3 4 5 3 13 4 10 12 15 12 15 22 13 29 30 33 30 30 29 30 27 31 33 34 31 30 29 28 26 23 19 12 10 13 13 12 13 14 15 14 12 13 16 18 22 18 15
3 6 5 5 1 5 4 4 6 15 27 27 31 24 22 22 27 26 28 27 33 32 34 31 34 33 31 29 28 26 24 19 14 10 11 12 10 11 12 13 13 11 10 15 18 21 16 17 16
3 1 5 6 4 2 4 9 6 9 7 11 20 19 18 22 22 24 28 30 33 35 34 34 32 30 29 28 27 25 22 16 11 10 9 8 9 11 13 14 12 10 10 10 14 13 16 14 18
4 3 5 3 5 4 3 4 1 4 7 11 8 16 26 24 24 24 27 34 35 36 33 26 25 28 27 25 23 20 16 13 11 10 8 9 13 11 13 13 13 14 11 12 11 11 10 14 17
1 3 3 3 5 4 1 5 3 5 3 11 17 30 33 31 29 28 31 33 32 30 29 26 26 26 26 26 23 21 15 12 10 8 11 10 12 12 13 13 14 14 10 8 14 17 18 14 11
6 4 6 5 4 2 4 5 3 6 3 6 14 31 36 36 34 32 33 34 33 33 32 29 31 29 29 28 23 19 15 13 11 10 11 14 13 15 14 15 14 12 9 14 17 20 16 14 16

GFSSGP_850_spd_018.txt.gz
Wind_Speed
5 6 7 3 3 4 3 8 3 2 2 7 12 17 11 8 3 3 17 28 38 36 35 34 31 28 27 25 22 20 17 16 16 18 20 22 22 21 21 22 23 25 27 29 29 28 24 22 21
4 6 4 3 4 3 5 6 2 2 8 13 14 11 10 6 5 14 21 25 40 36 34 33 32 32 27 25 23 21 18 17 17 18 20 21 21 20 21 23 23 25 26 27 27 27 26 21 20
4 7 2 3 4 5 6 1 2 5 8 6 6 12 6 4 11 30 19 31 36 37 34 32 31 30 28 25 23 21 18 17 18 19 20 20 20 21 22 23 23 23 23 24 24 24 25 23 18
3 4 3 2 5 8 1 1 5 6 5 5 15 8 9 8 11 17 21 30 33 33 33 32 31 30 27 25 23 20 18 17 18 19 19 18 19 21 22 21 21 20 20 20 20 21 22 21 20
4 1 1 2 3 6 6 3 2 6 6 8 4 6 8 15 7 14 23 28 31 32 30 29 29 27 27 24 22 21 19 16 16 18 18 17 19 21 21 20 19 18 17 17 17 17 18 19 16
1 1 2 3 4 6 3 5 7 3 5 6 14 10 7 15 14 18 24 32 30 29 30 28 28 29 27 26 21 15 12 14 17 18 18 17 19 20 19 18 17 16 14 15 14 14 13 13 13
3 3 2 3 5 1 5 7 3 7 2 2 7 5 9 14 18 21 30 24 34 25 21 32 30 35 33 20 18 11 12 16 17 18 17 17 18 18 17 16 14 12 12 13 12 10 9 10 11
4 4 2 2 3 3 7 14 12 4 3 11 6 6 7 19 19 24 24 34 31 29 23 20 23 36 37 20 13 12 13 15 18 19 19 19 17 15 12 12 11 11 11 10 10 7 6 6 7
9 2 3 2 4 4 11 6 5 1 10 10 7 12 28 27 25 25 26 28 27 25 16 19 29 28 20 18 17 14 16 18 20 20 20 18 18 16 14 14 14 11 10 9 7 5 3 1 6
4 3 7 5 1 3 3 17 9 2 8 10 26 29 26 23 23 28 29 30 30 27 24 15 28 21 21 19 18 18 20 21 21 18 16 16 14 13 12 12 11 9 8 7 3 2 1 2 3
3 5 4 4 5 13 11 7 12 4 4 9 30 32 28 29 28 26 23 28 33 28 28 29 28 23 23 22 20 21 23 21 19 16 14 12 10 10 8 8 8 7 6 4 2 2 3 2 4
2 13 12 11 14 8 7 12 6 7 5 17 28 26 29 29 22 16 25 29 30 27 24 22 22 21 22 23 21 21 21 19 17 17 12 7 6 6 5 6 7 6 4 3 5 6 6 7 11
7 10 20 20 17 10 9 6 3 9 18 27 29 27 31 39 27 23 28 26 26 27 26 24 23 24 24 22 23 22 21 18 14 13 11 8 8 7 8 8 6 7 5 4 6 9 11 12 14
13 12 6 21 20 8 10 4 4 9 21 24 24 26 26 30 33 32 30 27 24 25 24 27 24 24 24 22 21 21 20 19 14 12 6 9 8 7 8 7 5 5 5 9 10 11 12 15 14
14 4 7 8 15 6 13 3 5 25 24 24 23 25 27 22 35 33 29 30 28 27 26 27 26 24 24 21 20 19 21 16 13 4 7 8 8 5 5 4 5 5 7 11 13 14 16 15 15
4 4 4 5 10 10 9 5 4 26 25 23 22 22 25 30 33 30 29 29 28 31 29 28 28 25 23 25 23 19 17 15 9 7 8 8 7 8 6 6 5 8 10 12 15 16 16 15 16
5 0 2 6 9 4 4 2 7 19 24 24 25 23 28 32 31 32 32 29 29 26 30 33 30 30 28 27 23 17 13 10 9 12 10 10 10 7 6 6 6 7 11 14 17 17 18 20 21
1 4 2 4 6 5 5 3 7 17 25 25 28 29 31 37 36 35 34 30 24 26 32 37 33 31 29 28 23 13 12 13 12 11 11 11 9 6 4 6 11 15 17 18 18 19 20 19 17
5 2 5 5 4 4 8 10 9 19 26 20 25 31 31 39 35 35 35 30 25 30 37 38 34 32 31 30 20 13 13 14 14 13 12 10 8 5 4 10 15 17 17 18 18 19 18 17 19
4 6 8 7 9 4 7 9 3 6 22 29 29 30 38 39 40 41 38 35 32 30 34 32 30 30 31 28 16 13 17 16 13 13 12 11 8 4 9 12 15 17 16 17 17 18 18 17 14
5 3 4 5 4 6 8 4 3 5 5 12 23 33 37 39 46 44 45 42 36 33 31 30 30 32 29 23 18 19 18 18 18 18 17 14 10 7 11 14 16 16 16 16 17 18 17 14 16
6 12 6 2 4 4 2 3 5 5 7 14 28 29 31 37 42 45 43 42 39 35 29 29 31 32 31 26 25 25 25 25 22 21 17 15 8 8 12 15 14 13 15 15 14 13 13 13 12
10 7 2 1 5 4 0 5 7 0 8 12 19 37 37 39 42 46 47 44 42 37 33 28 28 28 32 31 29 30 28 26 25 23 18 13 10 11 14 13 12 14 15 15 13 11 11 12 12
3 2 5 5 4 3 7 5 5 5 14 9 14 32 43 43 33 41 43 43 42 35 31 33 30 28 31 33 30 35 34 32 31 26 19 16 15 15 12 11 11 13 13 13 12 11 13 16 18
4 5 3 3 4 4 4 2 8 8 11 14 12 20 36 41 38 42 41 40 40 35 33 34 31 32 31 29 31 33 37 34 30 23 19 17 13 10 10 11 11 13 14 12 13 14 18 18 14
5 7 5 4 3 4 3 5 6 7 16 26 20 12 19 40 43 41 36 36 37 33 34 37 35 34 34 33 31 29 30 27 23 19 17 14 11 9 8 12 14 13 12 12 12 14 17 16 19
3 2 3 6 3 1 3 5 8 7 7 2 7 13 16 26 36 38 38 35 32 35 38 35 31 37 35 33 29 27 27 25 22 20 16 11 7 9 14 13 14 14 13 13 14 12 13 15 15
3 3 3 3 4 2 4 5 4 2 3 5 5 12 16 22 32 36 36 36 35 36 35 31 30 33 36 30 27 25 26 24 21 16 11 8 10 10 11 13 14 14 13 13 12 14 16 17 18
4 3 1 4 4 4 1 5 5 5 7 8 15 23 22 28 34 35 34 34 32 33 33 33 36 36 34 33 30 28 27 25 21 17 14 13 8 12 13 14 15 16 14 13 11 14 18 22 20
2 6 5 5 4 0 4 5 4 8 5 11 15 22 25 32 37 34 31 31 31 33 37 40 40 38 37 36 33 30 27 25 23 19 16 10 9 11 12 15 16 15 14 13 13 16 20 16 17

GFSSGP_850_spd_021.txt.gz
Wind_Speed
3 3 0 0 4 5 3 6 4 7 4 6 8 9 9 5 2 2 7 30 31 36 35 31 30 28 27 26 24 19 19 19 20 21 24 25 24 26 28 29 29 30 29 27 24 22 20 19 21
2 2 3 2 4 2 5 4 5 4 6 10 11 8 9 5 4 6 20 22 29 35 34 32 29 29 28 26 25 21 18 18 21 23 24 23 24 27 29 29 29 28 29 28 25 21 19 19 17
3 6 3 4 3 4 4 5 4 1 4 1 2 10 4 4 4 21 13 19 35 34 33 32 31 30 28 25 23 21 19 20 22 23 23 23 25 27 28 28 27 26 26 26 25 22 17 17 17
5 4 5 3 4 7 6 7 6 2 4 10 6 6 8 3 11 11 17 20 35 34 33 31 30 29 27 25 22 20 19 21 22 21 21 21 24 26 26 26 24 24 24 23 22 21 17 16 15
7 4 2 1 5 5 2 7 2 4 5 10 1 4 6 6 3 10 21 30 29 25 26 27 28 27 27 25 22 20 19 20 20 20 19 21 24 25 24 23 22 21 20 19 17 15 14 13 14
5 2 4 2 5 5 3 8 2 2 8 5 9 7 4 13 6 14 24 26 23 20 23 22 26 28 28 27 22 19 18 20 18 18 19 22 23 23 21 20 19 18 16 14 13 13 10 9 13
6 4 3 3 5 3 2 2 3 1 1 3 10 4 5 12 14 13 25 25 22 10 16 22 30 34 37 24 22 18 14 12 16 18 19 21 22 21 20 17 16 15 14 11 10 9 8 7 8
4 3 0 3 4 5 3 5 8 4 4 4 7 6 5 20 13 18 15 19 22 20 20 30 31 40 28 22 24 14 10 16 18 18 19 20 19 19 17 15 14 14 12 9 6 5 3 3 7
4 4 3 4 4 5 3 2 3 8 8 6 5 13 24 20 22 17 25 27 26 19 11 13 6 11 35 30 16 14 15 18 19 20 19 19 18 17 16 14 12 11 8 6 4 1 3 3 5
4 4 6 6 2 4 2 3 10 6 11 8 18 23 26 26 21 25 31 29 26 27 24 26 39 40 31 24 18 16 18 19 20 21 20 17 16 15 14 12 9 8 8 5 1 1 3 5 5
5 4 5 8 10 5 3 5 4 14 4 7 28 30 28 23 22 28 27 30 23 20 26 29 26 23 23 21 20 21 23 22 21 19 18 14 13 12 11 8 7 6 4 2 1 2 3 3 5
2 12 10 8 9 5 5 5 3 4 4 21 28 28 24 24 22 19 25 24 23 22 26 29 20 21 21 20 20 22 23 21 19 17 13 11 10 9 8 8 6 6 4 3 3 4 5 7 9
3 6 9 20 13 7 11 6 6 7 19 32 29 28 26 28 26 17 30 29 26 24 25 27 21 21 21 23 24 26 23 18 16 14 11 8 7 6 7 9 8 7 7 5 6 8 8 9 10
9 8 6 7 12 10 7 4 5 11 28 28 26 31 29 30 27 28 34 31 29 27 25 25 23 22 24 23 22 22 21 17 16 13 10 10 10 8 9 8 7 6 5 7 7 7 8 10 11
7 2 4 1 8 4 12 4 6 24 27 29 23 32 30 30 25 32 32 31 29 27 25 25 24 25 25 24 23 22 21 19 16 12 13 13 11 9 9 8 7 6 6 7 9 11 12 12 13
3 5 4 0 6 4 4 2 3 24 29 25 24 27 29 26 26 28 28 27 27 26 28 26 27 26 25 23 24 23 21 18 16 10 14 14 12 11 11 8 5 6 7 10 11 11 12 12 14
6 3 3 2 5 6 1 2 6 25 23 23 27 28 27 25 29 29 28 27 26 28 29 29 27 25 23 22 21 19 22 20 17 15 14 13 13 11 8 5 4 7 8 11 12 13 14 15 13
3 2 2 5 4 5 6 6 8 27 21 26 27 27 27 30 31 28 27 28 26 28 27 29 28 25 25 27 23 23 19 18 16 14 15 14 12 10 7 5 5 8 12 15 16 16 16 14 14
5 1 2 4 6 3 7 7 13 20 19 21 27 31 32 33 31 31 30 28 29 28 27 28 29 28 30 31 29 25 18 16 17 18 15 15 14 10 5 5 8 12 15 18 19 18 17 17 17
1 4 5 5 3 5 7 3 1 9 14 25 31 33 37 37 35 36 35 32 31 29 31 32 31 31 32 30 28 24 17 18 19 18 17 15 13 10 8 7 9 13 18 21 21 20 20 20 17
4 1 3 4 3 5 7 4 3 3 4 16 27 36 37 39 41 40 39 38 36 38 33 36 38 35 34 32 29 22 18 21 22 21 20 17 15 13 9 10 12 16 19 19 19 19 18 16 16
5 2 4 3 1 3 3 3 6 6 10 7 21 25 37 40 39 40 42 42 39 40 33 33 36 38 37 34 32 27 25 26 26 23 22 19 15 13 12 13 15 17 18 17 18 17 14 12 10
8 5 4 1 3 5 1 4 6 6 11 15 21 31 37 41 43 43 46 45 42 40 38 36 37 38 36 34 32 30 30 28 26 25 23 20 19 17 15 15 16 15 13 14 15 13 11 9 10
2 2 7 5 3 2 3 5 4 6 19 21 24 29 39 40 43 43 45 44 44 42 40 40 39 37 35 35 35 36 35 30 30 28 26 24 21 18 16 14 13 11 12 19 16 12 12 13 15
3 5 2 2 3 4 2 2 8 8 10 13 16 32 36 38 43 38 42 45 46 46 44 42 39 38 36 39 39 36 36 33 33 31 30 26 21 17 16 13 10 15 24 16 12 11 13 15 14
3 6 5 3 3 3 3 4 6 5 12 18 20 23 28 30 38 40 43 44 48 44 45 43 41 37 36 37 39 39 37 39 36 33 28 24 21 17 12 9 15 21 13 11 12 13 13 12 14
1 2 3 6 3 3 3 6 10 7 2 3 8 12 17 22 28 38 40 42 45 44 46 44 39 41 36 38 36 36 34 38 38 33 29 26 22 16 13 17 20 11 12 12 12 13 13 13 14
4 5 2 3 2 3 4 4 5 7 6 6 5 13 15 15 22 31 38 39 41 42 43 45 36 33 29 34 35 35 33 33 36 34 33 27 22 20 16 8 7 13 11 12 20 12 11 12 16
0 2 4 4 4 4 1 5 7 7 4 7 7 12 16 18 21 27 31 35 39 36 39 42 42 40 35 34 37 38 36 34 35 32 28 24 20 15 7 8 10 8 12 16 12 11 12 15 20
4 5 5 4 4 2 3 6 5 8 5 8 12 12 9 20 23 25 32 38 37 37 38 39 38 34 37 37 36 37 33 31 33 31 29 27 21 15 11 9 7 10 9 12 11 11 11 14 17

GFSSGP_850_spd_027.txt.gz
Wind_Speed
2 2 4 3 2 1 3 3 1 3 2 5 1 2 10 9 3 2 1 20 31 34 32 29 28 29 30 30 29 27 25 25 26 26 26 28 28 28 27 26 26 25 25 24 23 21 20 20 20
0 5 4 2 2 3 3 2 2 2 2 3 3 5 6 6 5 6 9 16 33 34 33 31 29 29 29 28 26 25 25 27 29 29 29 30 29 28 27 25 24 24 24 23 22 20 19 17 18
4 5 1 2 2 4 2 2 3 2 3 1 0 10 7 3 4 3 10 17 31 34 33 31 30 29 27 26 25 24 26 29 30 32 33 31 30 27 26 25 24 23 23 21 20 18 17 17 17
4 1 4 2 8 3 4 4 3 2 2 4 6 8 6 8 3 8 14 18 31 32 31 30 28 27 27 27 25 26 28 29 30 32 32 32 30 27 26 25 23 23 22 21 19 18 18 17 16
4 1 1 2 2 5 4 3 3 4 3 4 4 5 5 10 5 11 16 20 27 30 29 26 26 27 27 27 26 27 30 30 31 33 33 32 29 27 24 23 22 21 21 20 18 16 16 15 14
1 2 1 3 4 4 3 2 1 1 1 6 10 8 5 9 7 9 14 18 24 26 29 27 29 28 26 24 26 27 29 29 30 32 33 30 28 26 24 21 19 18 17 17 15 14 14 13 11
1 1 2 2 3 4 2 2 2 2 4 5 3 5 9 11 11 10 12 16 24 26 27 29 30 32 31 20 23 27 27 27 28 30 31 29 27 24 22 20 17 13 12 12 12 11 11 9 10
1 0 1 2 2 4 2 2 4 4 3 4 4 6 7 15 13 13 15 17 22 25 27 31 33 37 41 31 20 23 24 24 27 29 29 27 23 21 19 17 15 13 10 9 9 8 8 8 8
1 1 3 2 2 4 1 2 2 4 6 2 2 6 16 19 13 14 15 14 12 14 18 27 29 45 42 33 23 21 23 25 25 27 26 25 22 19 17 14 12 10 7 7 6 7 7 9 9
2 1 4 4 3 2 2 3 5 3 4 4 10 14 22 19 16 17 16 16 16 18 22 24 36 41 46 42 21 20 20 19 21 25 26 24 20 17 13 12 9 6 5 4 4 4 6 9 8
4 4 4 5 12 4 3 3 4 8 2 7 18 25 22 19 17 18 22 21 21 22 24 40 44 47 40 42 34 35 33 20 23 24 24 22 18 15 13 10 7 6 4 2 2 4 5 7 9
3 10 9 4 2 3 4 7 5 2 2 4 17 20 23 22 21 21 19 17 23 30 41 35 31 37 30 34 42 22 21 22 23 22 20 17 16 14 11 9 8 6 4 1 1 3 6 8 10
5 6 4 7 2 5 6 5 5 5 9 15 17 19 18 22 20 18 21 18 23 31 25 24 30 35 35 27 19 21 22 23 22 19 17 15 13 11 9 7 6 5 3 3 3 6 8 10 11
2 6 10 2 7 7 8 3 3 2 11 14 13 14 12 16 19 20 21 27 31 32 31 33 31 29 26 23 17 19 21 22 20 18 15 13 11 8 6 6 6 6 4 2 6 7 9 10 11
6 3 2 2 5 4 12 5 4 9 12 11 11 13 15 17 20 19 21 26 27 29 29 27 27 24 20 18 19 21 22 21 19 17 14 13 12 10 7 8 7 5 6 5 5 8 9 10 11
2 2 1 0 2 1 3 2 4 11 15 13 13 17 16 15 18 19 19 21 28 27 27 25 23 20 19 18 19 22 23 20 19 17 14 12 10 9 8 8 8 8 7 6 6 7 8 10 10
4 0 2 2 7 4 1 3 10 15 12 15 14 18 18 18 17 19 22 22 26 29 27 25 21 20 20 20 21 24 22 20 18 18 15 12 11 12 12 11 10 9 10 8 7 6 7 7 8
1 1 1 3 4 3 3 1 13 18 16 13 14 16 20 20 21 21 21 23 22 23 23 22 21 21 21 22 23 24 24 22 20 18 16 14 15 15 14 12 13 13 12 9 6 5 5 6 7
2 1 1 1 1 3 7 5 14 19 16 14 15 17 21 26 22 23 25 25 24 26 25 24 23 21 24 27 27 27 25 24 23 21 20 17 17 16 16 16 16 15 11 8 6 5 5 6 8
3 1 0 2 4 4 2 4 5 15 19 20 18 18 23 26 25 26 26 29 31 30 29 28 26 26 27 28 26 25 25 26 24 22 20 19 19 18 19 19 18 15 11 9 6 4 2 6 9
4 3 3 2 2 3 3 2 5 8 14 13 19 20 22 25 27 28 30 31 33 33 31 31 31 30 30 30 28 26 25 26 28 24 22 21 21 21 22 22 18 15 12 9 5 3 5 9 16
3 8 2 4 2 2 1 3 4 7 10 13 20 23 28 29 31 29 31 34 35 34 33 33 33 34 34 32 32 31 31 31 30 25 22 23 23 24 25 22 19 16 12 7 5 6 12 16 16
5 4 2 3 3 1 1 1 3 1 10 17 25 26 29 31 33 33 35 35 35 33 33 34 34 35 35 34 33 31 32 31 25 26 26 26 26 26 26 25 23 19 16 11 7 11 19 27 30
6 2 6 3 2 1 2 3 3 4 10 10 21 25 34 35 38 37 35 35 38 35 34 34 35 35 35 34 33 32 33 31 30 30 31 29 28 29 29 27 24 22 19 15 18 23 20 25 19
3 3 2 1 1 3 2 2 7 7 6 9 13 21 33 40 40 41 41 39 38 38 37 36 35 36 35 34 34 32 35 34 34 36 33 31 31 28 32 31 27 24 18 17 15 15 21 19 12
3 5 4 3 3 2 1 4 4 4 7 13 14 16 18 28 37 44 44 42 42 40 38 38 38 38 37 36 33 34 36 36 37 37 37 35 33 29 30 30 27 22 16 16 15 15 18 11 16
4 3 1 6 2 1 2 4 9 2 3 5 6 5 7 14 24 30 35 43 42 41 38 38 38 39 38 37 35 31 36 38 36 35 37 37 35 32 32 31 27 18 26 16 12 13 10 14 15
2 7 3 1 4 3 2 3 3 5 5 3 6 8 6 5 9 17 23 29 34 40 35 35 35 36 37 38 38 37 34 36 31 32 35 39 38 33 34 31 23 25 17 12 15 11 9 18 14
3 2 3 4 2 3 3 4 6 6 4 5 7 7 6 4 6 8 13 17 19 24 27 27 29 32 34 37 35 36 34 30 29 30 35 38 37 35 34 30 27 19 15 16 11 9 15 15 14
3 4 4 3 4 1 1 5 3 9 6 8 10 5 2 2 5 4 6 9 10 11 14 20 23 24 25 28 32 31 31 33 30 30 32 30 30 34 33 31 26 23 17 14 11 11 13 14 16

GFSSGP_850_spd_030.txt.gz
Wind_Speed
3 2 3 4 7 6 11 6 7 6 7 2 4 7 8 10 4 2 6 24 29 28 31 33 32 33 32 32 30 27 25 24 25 26 26 27 28 27 28 27 26 24 24 23 22 22 21 20 19
2 2 3 5 8 9 10 1 4 5 2 2 2 4 7 5 5 4 9 21 26 29 29 30 34 33 33 31 29 27 26 27 29 28 30 30 29 28 28 27 26 25 24 22 21 20 19 19 19
2 4 8 4 7 10 1 3 4 4 3 5 3 9 8 7 4 2 9 17 30 30 29 30 34 33 32 30 28 27 28 30 29 31 32 30 29 28 27 26 25 24 23 21 20 20 18 18 18
1 3 5 9 10 1 7 6 6 6 5 4 5 12 7 4 6 1 13 20 33 31 32 32 34 34 33 31 29 29 31 30 30 31 31 30 29 28 26 25 24 22 21 21 20 20 17 17 16
2 4 7 7 4 5 5 6 7 6 2 2 4 7 8 7 12 11 15 21 33 33 31 33 33 34 32 30 28 29 31 31 32 32 31 30 29 27 26 25 23 22 21 20 19 18 16 15 14
5 4 7 4 2 2 3 5 4 2 3 2 6 9 6 7 10 12 14 23 31 30 29 31 30 30 31 32 31 31 32 34 34 32 31 30 28 26 24 23 21 20 19 18 17 15 13 12 12
6 6 4 3 4 6 5 3 1 0 4 3 2 3 6 9 13 12 14 21 26 28 30 34 35 35 32 30 30 31 32 34 34 32 30 29 26 24 22 20 19 17 16 15 13 12 12 12 10
4 4 2 2 6 10 7 1 2 3 3 3 2 5 5 12 13 13 14 19 19 25 30 35 33 33 34 32 27 26 29 34 34 32 30 27 23 20 18 16 15 15 14 12 11 11 11 10 8
2 5 1 3 7 8 7 4 1 1 2 4 0 1 8 17 15 12 18 18 25 27 32 36 37 40 44 34 31 26 27 31 33 30 27 24 22 19 16 14 13 12 10 10 9 8 8 9 8
7 5 2 4 6 9 8 5 1 4 5 7 7 7 17 17 10 12 13 15 15 24 29 33 38 40 40 40 32 27 28 30 31 29 25 22 21 16 14 14 11 9 8 8 6 5 6 7 6
1 7 5 6 6 6 4 6 3 4 4 2 11 19 18 17 14 12 12 18 22 25 31 38 41 39 35 32 30 27 26 28 25 22 25 20 19 17 13 12 11 8 6 5 3 3 4 5 5
8 5 7 8 8 1 5 5 1 4 6 6 15 19 16 15 12 11 14 20 26 30 31 39 39 38 39 39 40 32 27 24 23 25 24 21 18 16 13 12 10 9 8 4 2 1 4 6 7
10 8 7 8 2 1 4 3 3 6 8 14 15 14 16 16 13 14 17 17 22 28 35 43 41 42 45 35 36 35 27 19 20 24 17 16 16 14 13 10 10 10 7 4 2 2 3 3 7
4 12 10 1 6 5 5 4 4 5 10 13 12 14 15 12 14 17 15 20 20 30 30 35 36 35 33 31 27 24 23 18 18 16 19 16 15 14 11 11 11 9 7 5 3 3 2 3 5
10 7 3 6 8 3 8 5 6 10 10 10 10 14 20 14 13 15 17 20 23 24 27 31 23 24 34 24 17 18 17 17 17 17 19 16 14 12 10 11 11 9 9 7 4 3 5 4 5
5 4 3 6 6 4 7 7 8 9 11 11 14 17 14 13 13 14 17 21 21 21 26 24 23 25 25 20 16 16 17 18 16 20 17 15 15 13 11 11 13 13 11 6 5 2 2 1 2
6 4 2 4 7 3 8 5 10 11 10 12 14 14 15 15 15 15 17 20 19 21 23 23 22 20 20 19 17 18 19 18 17 19 18 16 15 13 14 14 15 12 12 10 6 5 3 1 1
3 6 5 9 9 8 6 3 10 13 11 12 14 16 16 16 17 18 19 20 22 22 22 22 22 20 18 15 16 16 19 19 19 20 19 18 15 15 16 16 16 16 13 10 8 7 5 2 2
3 4 5 1 4 5 6 5 10 14 15 14 15 17 17 18 16 17 19 21 22 25 24 23 23 21 19 18 19 19 21 19 21 20 22 21 18 16 18 19 19 17 12 11 10 8 6 4 3
8 6 4 4 2 5 6 8 6 15 16 16 16 16 18 18 19 20 20 22 22 23 24 24 24 22 22 20 20 20 20 20 21 26 24 23 22 21 21 22 20 19 16 14 13 9 6 5 5
8 8 4 3 2 4 5 8 11 12 15 15 17 17 18 20 21 22 23 24 25 26 26 25 24 22 22 22 21 19 20 24 26 28 27 25 24 24 24 24 24 23 20 17 15 12 10 6 7
10 9 3 4 5 4 4 4 7 10 15 15 19 21 21 22 23 24 26 27 28 28 27 26 26 25 24 24 23 24 24 21 26 31 26 27 24 25 26 26 27 25 24 21 18 16 11 10 14
5 8 4 4 3 4 6 6 7 5 12 17 23 24 25 24 25 26 27 27 26 27 28 27 27 26 26 27 28 25 25 21 19 26 23 27 26 27 29 29 29 28 26 22 20 14 12 14 14
8 7 4 3 2 6 4 6 5 7 8 6 14 25 28 28 30 29 28 26 27 27 28 28 29 28 28 29 32 32 27 24 26 29 29 30 31 30 31 31 31 30 26 23 18 15 13 13 15
13 10 9 7 6 7 3 5 9 4 4 7 7 10 22 29 29 30 30 31 30 31 30 29 30 31 30 32 35 37 36 35 34 35 34 32 32 33 34 33 33 31 27 25 20 14 22 17 10
17 16 8 6 6 4 4 6 3 0 2 9 11 11 12 17 26 32 33 33 31 31 31 31 32 32 30 33 36 36 36 36 35 36 37 35 34 35 34 35 25 32 30 22 16 23 20 13 10
7 11 3 3 1 4 5 5 10 5 3 3 3 3 5 9 16 22 25 29 29 29 31 32 32 32 31 32 32 33 35 36 40 35 36 32 32 35 39 36 31 33 26 20 19 23 15 14 10
7 11 6 5 6 7 6 5 4 4 1 1 3 3 2 2 4 9 14 18 21 24 25 26 27 29 29 26 28 28 31 32 30 26 32 33 34 35 37 37 31 31 27 22 25 16 15 11 11
5 6 3 3 3 6 5 5 2 5 4 4 2 3 5 4 1 1 5 8 12 16 19 20 23 25 23 23 22 23 26 31 27 29 35 35 33 34 35 37 36 33 26 26 22 17 13 12 13
9 12 13 7 8 1 3 7 5 8 6 6 7 4 4 5 2 1 3 7 9 10 12 14 15 16 17 16 17 19 24 26 28 28 30 30 31 31 32 34 33 25 26 22 18 14 13 12 19

GFSSGP_850_spd_033.txt.gz
Wind_Speed
4 5 6 10 8 8 17 17 5 7 6 5 13 7 5 10 5 3 1 13 24 25 27 28 27 28 32 32 29 26 23 21 19 21 21 24 27 28 27 26 26 25 25 23 23 22 22 21 22
3 7 8 14 8 13 12 15 4 8 10 5 6 11 8 11 13 3 2 14 27 31 29 30 29 30 32 31 29 27 24 22 23 23 24 27 29 28 27 26 26 24 23 23 21 22 21 20 20
4 8 15 9 12 14 9 8 7 8 5 10 4 5 5 4 6 9 8 20 25 31 29 32 31 31 32 31 29 26 23 24 26 26 28 30 30 29 27 26 25 24 22 22 21 20 20 18 19
5 11 11 9 15 7 11 9 4 10 8 5 2 7 6 3 14 18 13 17 26 37 35 33 35 33 33 32 28 25 24 27 28 30 31 30 30 28 27 26 25 24 22 21 20 19 17 16 17
7 11 9 13 10 6 5 5 7 9 7 6 8 7 7 3 5 11 21 21 32 31 35 32 33 33 33 30 27 26 28 28 31 31 32 30 28 27 27 26 24 23 22 20 18 17 15 14 16
15 5 11 8 5 3 5 5 7 5 6 4 10 10 2 8 9 11 13 11 20 28 30 35 33 33 31 29 28 28 30 29 31 32 31 30 29 28 26 25 23 22 20 18 16 15 14 13 13
13 8 9 4 2 14 7 4 6 4 4 9 15 6 3 5 6 8 10 15 20 25 28 32 31 29 31 29 29 31 31 33 31 32 30 29 27 26 24 23 22 19 17 15 14 13 13 11 12
10 6 7 3 4 5 9 5 4 7 5 13 6 4 5 12 9 10 11 17 22 23 29 32 33 31 29 27 30 32 33 31 31 29 28 26 25 24 22 20 18 16 14 12 12 11 11 10 10
7 10 1 5 10 12 9 10 5 3 6 2 10 8 5 14 11 9 10 18 23 23 30 33 32 30 28 27 25 26 30 30 28 25 24 24 23 19 17 16 16 14 12 10 10 9 10 8 10
12 10 3 5 6 10 11 8 7 6 10 7 9 13 15 14 13 9 11 14 18 27 31 32 35 36 39 36 33 29 31 33 27 25 23 16 19 13 15 15 13 11 10 9 8 8 10 13 9
7 9 9 8 9 9 4 8 4 11 8 28 9 14 16 14 12 11 16 16 17 28 34 39 46 48 46 44 42 40 33 27 23 23 18 21 16 14 14 15 13 12 10 9 7 8 6 4 4
10 5 6 8 7 3 3 1 4 11 7 6 8 11 14 13 10 10 14 19 24 25 29 32 34 39 41 35 37 30 25 27 24 20 15 14 17 12 9 9 11 12 10 9 7 5 0 2 3
10 8 8 8 3 3 1 8 1 7 9 12 11 9 8 9 11 9 14 19 21 31 29 31 36 40 37 34 30 28 24 27 23 22 16 17 9 11 11 12 11 10 11 8 7 3 3 1 2
6 11 13 5 5 5 2 4 8 9 11 12 9 11 9 11 12 15 13 17 20 29 32 32 32 32 34 35 33 33 29 27 32 18 22 14 14 15 13 13 11 10 9 8 6 6 3 3 2
12 13 10 10 8 6 6 18 5 14 13 12 11 12 18 19 13 12 13 14 16 22 30 30 26 22 32 34 30 34 30 17 14 15 15 14 14 15 12 11 11 10 10 10 11 7 5 4 4
14 13 4 14 8 7 18 12 13 14 13 14 17 19 15 13 15 14 15 17 21 20 27 25 27 24 27 31 25 19 21 19 18 17 22 18 15 16 13 11 11 11 10 9 8 6 5 5 5
13 11 11 17 7 9 10 19 17 14 12 13 15 15 14 16 15 16 17 19 18 22 27 24 23 25 27 22 19 16 15 19 16 18 19 17 16 15 14 11 12 13 10 10 9 8 8 6 5
10 14 10 5 8 9 8 5 15 14 11 14 16 14 14 15 14 18 20 18 21 23 26 24 22 26 28 23 17 17 17 18 18 20 17 16 16 16 14 13 14 13 11 10 11 10 7 7 6
10 8 12 10 14 8 8 14 5 15 12 12 14 16 15 15 16 19 19 21 21 23 24 24 24 23 20 19 19 19 19 19 21 20 17 17 16 16 16 13 16 15 13 13 14 10 10 7 7
11 12 13 5 4 5 9 11 15 13 13 16 16 18 18 17 19 20 22 23 24 24 23 24 23 22 22 19 19 20 20 20 20 19 18 20 18 18 18 18 16 17 15 17 16 14 10 8 8
13 16 3 7 4 10 11 12 10 10 14 15 16 17 19 21 23 23 25 26 26 27 28 27 25 24 23 22 20 19 19 20 20 19 18 20 23 22 20 19 18 19 18 18 19 18 14 10 9
15 12 5 4 8 5 10 1 12 14 14 15 18 17 19 22 24 25 27 28 29 28 27 27 26 26 25 25 23 24 23 23 22 21 22 24 27 25 20 20 21 21 19 17 19 17 14 14 8
8 10 7 12 12 7 8 8 6 9 12 16 19 22 22 23 25 27 29 30 30 30 30 29 28 28 27 27 27 25 25 23 19 20 21 24 21 25 23 21 21 22 21 18 21 17 17 15 10
6 6 9 13 12 9 10 13 7 10 12 11 21 25 25 26 27 27 28 27 29 29 30 30 29 30 29 28 28 29 27 25 23 24 21 20 25 26 25 20 24 27 23 18 15 19 16 14 16
11 12 10 8 9 10 6 5 9 9 4 3 2 11 26 28 29 28 29 29 29 30 30 30 31 31 31 31 31 31 30 26 25 24 25 23 27 29 24 23 30 31 29 29 31 29 26 18 22
18 17 12 5 9 9 4 7 11 4 6 1 7 9 11 21 30 31 31 31 31 31 31 31 31 31 31 33 35 32 30 30 30 31 31 33 31 28 28 31 36 38 35 32 30 23 23 22 27
12 16 21 19 7 6 10 8 5 10 6 6 5 3 8 13 16 27 31 32 32 32 32 34 32 30 30 32 30 32 34 34 29 32 34 34 31 26 29 35 36 38 34 33 27 23 22 25 15
12 5 13 10 12 11 14 13 4 8 8 5 6 5 1 3 5 12 20 26 30 31 31 32 31 30 29 31 31 30 27 25 29 32 34 33 35 32 33 34 32 35 37 34 27 26 25 16 19
10 12 9 8 13 10 10 10 2 4 3 4 5 4 3 1 2 4 7 14 20 23 26 27 28 28 27 26 25 26 26 27 29 34 31 28 31 32 31 32 32 35 38 35 28 23 17 21 16
17 17 18 10 13 12 10 11 5 5 8 1 7 7 3 2 2 4 6 9 13 17 20 22 23 23 23 21 21 23 23 28 30 30 25 27 28 24 26 28 32 31 33 26 24 21 21 15 16

GFSSGP_850_spd_036.txt.gz
Wind_Speed
5 5 7 12 7 8 16 18 21 18 8 16 22 13 7 23 10 3 4 10 37 10 29 31 30 34 31 29 27 25 23 20 18 21 24 26 28 29 28 27 28 26 26 26 25 25 25 25 25
6 9 10 13 10 13 10 15 13 9 10 12 10 8 8 3 12 3 5 10 22 19 25 30 32 34 32 29 27 25 23 20 22 24 27 29 29 28 28 28 27 26 26 25 24 23 23 24 26
7 5 12 8 13 15 10 8 6 16 13 7 7 8 7 11 8 6 2 14 22 23 25 27 30 33 32 30 27 25 22 21 24 27 30 30 28 28 28 27 27 25 24 24 23 21 22 22 25
7 14 13 10 15 16 11 2 3 12 15 8 4 9 10 2 9 6 6 6 21 16 27 29 31 32 30 30 27 25 22 24 27 30 31 30 28 28 28 27 26 25 23 22 21 20 20 22 23
9 14 12 16 19 14 9 14 6 12 7 8 18 15 13 6 8 2 5 7 15 18 25 31 29 33 32 30 27 24 24 25 29 32 31 30 30 28 27 26 25 24 22 20 19 19 19 19 21
17 23 12 13 7 19 16 33 14 14 8 12 24 10 1 6 7 7 5 7 5 18 28 29 26 28 31 29 27 26 27 28 32 32 30 30 29 27 25 24 24 23 20 19 17 17 16 17 17
15 12 16 17 8 6 3 25 25 14 12 21 14 11 9 4 2 1 4 3 8 20 29 27 29 29 28 28 25 26 27 31 31 31 29 28 27 26 24 23 22 20 18 17 16 15 15 14 16
16 12 20 7 9 5 14 28 26 17 6 10 7 10 8 7 5 3 5 11 19 34 21 24 24 24 28 26 27 28 28 30 31 29 27 27 26 26 24 22 20 18 16 15 14 13 12 13 15
14 11 12 4 13 12 16 12 4 11 22 24 28 11 8 11 8 7 3 12 24 35 37 34 31 26 25 24 28 29 31 28 29 28 25 25 24 23 21 19 16 13 12 12 12 12 12 15 15
10 11 12 6 11 14 15 13 19 10 13 16 26 11 12 11 8 9 11 14 21 34 32 33 29 29 33 34 29 29 28 29 28 27 24 24 21 19 17 15 12 11 10 9 10 13 14 11 11
15 12 7 14 8 14 9 6 9 14 6 11 10 11 8 8 6 13 14 13 20 35 37 34 34 32 34 36 38 37 33 32 27 26 22 21 17 14 15 15 13 11 10 8 11 10 8 6 6
7 15 9 11 7 12 9 2 4 15 7 8 11 10 7 9 9 10 14 16 22 28 37 36 38 39 38 40 38 44 43 34 24 23 20 19 13 11 13 10 10 10 8 7 6 6 6 4 1
11 14 12 13 8 5 12 6 15 16 17 13 13 9 9 11 11 10 11 17 21 22 24 29 35 40 40 36 34 39 39 34 23 23 17 14 12 11 8 5 6 9 5 7 10 4 2 2 3
8 13 15 17 9 3 4 9 23 16 13 11 11 12 14 13 12 15 11 15 16 20 25 31 35 38 36 38 30 27 35 32 25 24 17 12 8 8 10 14 10 10 14 7 5 3 3 3 3
13 14 16 14 10 3 5 7 6 0 11 8 9 12 13 16 15 13 16 16 17 17 19 18 28 31 33 31 32 29 22 25 30 21 21 15 15 14 16 17 14 14 8 10 11 12 10 7 7
16 18 16 4 9 9 13 7 13 15 19 15 17 17 14 13 16 10 13 16 19 19 23 27 31 32 31 34 36 31 29 29 28 19 15 20 18 14 17 13 16 14 16 18 16 12 6 6 3
15 15 8 6 12 11 8 5 15 16 17 23 23 19 18 16 16 17 13 18 19 21 23 26 28 27 25 24 28 30 32 25 18 18 21 21 19 19 18 15 16 18 19 14 12 11 9 9 9
7 13 16 7 7 12 17 9 4 30 13 15 20 24 21 23 21 22 20 19 19 24 27 29 28 27 33 30 33 25 26 23 23 23 24 20 23 20 19 17 19 22 16 16 17 15 15 12 9
16 8 16 7 4 6 17 22 15 12 15 17 18 17 15 16 27 23 23 18 21 30 29 29 31 32 37 31 25 25 25 23 25 24 30 22 21 22 21 19 22 21 18 17 17 19 19 16 18
16 12 18 9 12 8 11 17 23 22 22 19 17 21 19 21 24 28 28 27 22 28 27 26 30 34 34 32 28 26 23 24 24 24 24 21 25 24 23 21 23 19 20 20 21 23 20 14 16
12 16 14 9 6 11 12 12 22 20 22 23 18 22 19 23 29 29 30 32 31 27 28 30 29 25 25 23 20 25 25 23 22 30 24 25 20 24 24 20 23 23 19 21 26 26 20 15 18
15 15 5 12 10 8 5 9 8 14 14 14 19 22 26 27 29 31 31 33 34 34 29 30 30 29 28 30 30 29 29 30 29 29 25 24 27 26 24 22 22 23 18 20 25 25 21 19 16
14 2 13 12 13 13 7 9 9 12 12 16 16 21 23 28 30 34 35 36 37 35 36 31 35 33 32 29 29 30 29 29 28 26 24 20 24 27 26 22 22 21 20 21 15 16 17 19 22
13 9 10 12 11 9 13 10 5 6 8 8 19 19 23 26 30 32 34 35 35 35 37 38 37 37 35 35 31 30 30 30 28 29 29 33 30 27 27 25 25 26 27 27 27 31 31 30 24
10 9 8 10 9 7 11 9 11 10 5 7 11 21 30 28 28 30 35 39 38 39 39 38 38 38 36 36 35 35 33 28 33 27 33 33 28 25 30 30 30 27 21 27 34 33 34 29 27
15 16 8 7 4 7 12 7 7 14 14 5 10 32 40 31 33 31 33 40 41 41 42 41 41 40 39 38 37 36 32 33 25 29 31 28 35 31 26 26 27 26 33 33 32 33 32 31 31
15 16 16 18 5 3 5 21 9 8 12 8 8 7 5 10 34 36 33 34 37 43 44 44 42 38 38 38 40 42 38 33 28 36 35 35 37 34 28 26 30 33 34 31 31 33 35 31 26
17 12 11 11 10 7 12 16 7 3 8 8 4 9 5 5 3 12 32 33 34 36 41 44 44 40 36 37 38 42 38 39 21 27 35 37 38 32 30 30 31 34 32 28 30 33 33 28 21
13 12 7 16 10 6 5 5 10 5 8 5 7 7 4 5 8 6 9 13 19 33 37 41 41 38 32 33 37 38 42 44 30 26 37 35 32 29 28 28 30 30 27 28 31 33 28 23 17
17 16 17 10 9 6 3 8 10 14 7 6 4 4 9 8 8 8 7 8 12 16 14 19 30 29 28 30 33 29 28 31 25 27 29 31 28 22 22 23 26 27 27 28 30 28 25 21 22

GFSSGP_850_spd_039.txt.gz
Wind_Speed
4 2 7 8 2 3 7 10 7 11 5 3 3 5 11 11 6 2 2 3 18 9 7 22 29 29 30 30 29 26 24 22 25 27 29 31 32 31 30 32 30 30 29 29 29 29 30 30 29
4 3 10 6 2 2 8 14 12 4 4 16 15 11 8 4 14 2 2 3 19 12 13 25 27 30 31 31 29 27 24 24 26 29 31 32 32 31 31 31 30 29 29 28 27 28 29 29 28
4 3 4 3 3 8 6 7 7 9 20 13 9 14 8 6 8 4 2 6 11 18 27 30 32 28 29 31 29 26 25 27 29 30 32 32 32 32 32 31 29 28 27 27 26 27 29 29 27
2 5 7 0 11 18 5 3 9 10 16 21 19 7 5 9 4 4 4 11 11 11 15 26 30 32 30 29 27 27 28 29 32 34 33 31 31 31 31 30 28 27 25 25 26 25 26 26 24
9 7 2 5 11 11 4 4 14 23 16 29 8 5 6 3 6 8 1 4 16 20 19 14 26 33 32 29 25 24 28 31 34 35 33 32 30 30 30 29 28 25 23 23 24 24 23 23 23
6 5 4 8 10 5 4 15 6 24 29 30 16 11 6 5 10 6 3 6 13 25 32 15 46 38 34 29 29 23 28 33 36 34 32 32 30 29 29 28 26 23 22 22 22 21 21 20 20
8 2 6 11 18 4 4 11 15 19 22 4 6 3 2 7 2 3 2 12 17 24 20 26 41 38 32 31 30 25 29 35 36 34 33 31 29 26 27 26 24 22 20 20 20 18 17 19 20
19 3 8 7 5 0 3 4 14 12 4 8 4 1 4 10 8 3 4 13 13 14 16 18 29 38 31 31 31 33 32 34 34 34 32 30 28 26 25 24 21 20 18 17 17 17 17 19 21
16 2 6 16 4 5 8 4 7 10 14 6 6 6 15 11 6 5 5 9 22 21 25 19 16 28 30 30 29 29 30 31 31 31 31 28 28 26 23 20 17 16 15 15 15 18 18 16 14
5 4 9 6 2 5 8 10 11 5 7 4 8 12 14 14 12 16 17 24 27 24 29 29 31 28 27 31 28 27 30 31 31 31 30 29 28 24 20 17 15 13 13 14 17 14 11 11 9
17 6 9 9 5 7 6 11 11 7 4 2 12 15 14 13 13 17 23 29 33 31 29 28 29 32 36 42 41 38 28 30 30 30 30 27 23 20 18 16 14 12 11 12 11 9 7 7 5
5 13 10 6 2 1 3 11 8 13 2 4 9 12 11 9 13 16 21 25 30 32 32 31 29 29 31 33 39 38 36 35 32 31 27 25 21 18 17 15 13 11 11 11 8 6 4 3 4
4 5 13 12 16 4 21 15 12 13 8 11 10 9 11 7 11 14 16 22 26 37 36 32 31 31 38 39 41 42 39 34 31 28 23 20 15 15 14 12 10 11 11 9 6 2 5 5 5
12 12 9 18 21 6 8 6 6 5 5 12 6 8 9 9 12 14 14 18 23 25 29 37 36 40 41 41 42 44 42 33 34 25 27 20 12 11 11 11 9 12 9 6 5 6 5 5 3
23 7 7 14 16 4 16 6 4 11 12 12 9 10 8 6 8 13 16 18 19 25 29 33 36 38 41 43 40 40 37 35 34 30 23 20 14 13 12 10 8 9 7 11 9 8 6 6 6
7 7 5 10 9 2 10 3 6 14 15 12 14 14 13 9 5 9 16 15 17 19 23 31 36 39 39 34 39 40 43 32 36 32 22 17 17 15 16 16 17 15 13 14 13 14 11 11 9
5 8 8 8 5 5 4 2 5 19 18 16 21 22 21 21 13 8 15 18 20 20 23 27 29 30 37 38 39 38 37 37 35 36 18 16 18 19 20 17 17 15 16 18 19 17 17 13 11
8 4 4 1 5 3 4 4 8 13 29 27 29 26 24 27 24 14 16 18 20 20 21 25 32 34 37 38 36 33 38 35 30 25 24 20 19 20 23 19 18 19 21 21 21 16 15 15 13
13 12 6 4 6 7 12 8 12 17 10 26 25 27 30 31 25 17 18 21 25 25 27 32 35 36 36 37 35 36 36 30 30 30 23 22 23 22 22 22 22 23 21 21 21 21 21 21 18
16 10 7 6 1 4 11 11 10 8 8 23 27 31 32 28 30 24 21 20 26 30 31 33 35 38 34 31 34 36 33 32 30 28 27 28 27 25 26 24 27 24 24 22 23 24 25 24 22
15 7 5 3 5 10 4 3 5 9 15 14 26 31 32 40 35 30 28 28 32 36 37 38 41 38 36 35 34 33 29 28 28 29 30 29 28 24 29 27 28 26 24 23 26 26 26 23 22
9 6 9 5 1 4 5 3 10 14 14 14 20 32 32 39 35 34 32 32 34 33 34 38 40 40 38 35 32 33 32 34 31 29 31 29 28 28 32 29 29 30 26 22 26 27 27 23 17
11 7 1 2 3 2 6 0 4 15 12 15 16 33 35 39 39 39 37 35 35 33 35 35 38 38 36 33 33 33 37 33 26 27 29 30 31 31 31 27 29 30 29 26 27 25 28 26 23
9 4 3 3 1 4 6 2 6 12 19 17 24 31 38 40 42 40 37 36 35 34 34 34 36 37 36 35 35 37 36 35 36 34 34 31 34 32 32 32 32 28 30 31 29 29 28 31 31
6 2 1 3 2 6 4 3 7 8 9 8 22 33 42 44 46 46 44 44 40 40 39 39 37 40 39 38 35 36 40 36 40 32 30 32 29 29 27 33 31 34 34 34 29 27 28 32 30
10 7 5 4 2 4 3 3 6 8 12 18 28 40 35 38 41 48 46 46 45 43 42 43 43 42 44 43 43 40 37 40 35 37 34 29 30 31 38 34 28 32 36 36 30 27 28 30 30
10 6 8 4 3 2 3 6 8 10 12 10 20 27 33 29 35 42 48 48 48 47 48 47 44 43 46 47 46 47 47 43 44 37 39 25 38 38 39 34 31 29 31 33 33 32 29 29 29
9 3 2 0 4 4 4 4 4 9 10 6 7 21 34 32 41 37 44 48 50 48 48 49 47 42 42 45 50 49 48 47 45 43 35 27 31 31 36 43 35 31 32 35 35 29 28 26 29
4 7 3 4 5 4 3 5 7 10 5 6 9 10 14 15 21 29 41 36 42 43 51 51 51 39 36 38 45 49 51 53 45 40 41 35 27 32 30 33 30 31 32 34 31 26 25 27 29
9 13 10 5 5 4 3 10 5 7 5 4 8 15 17 16 14 10 11 21 14 26 47 40 48 51 46 32 46 48 52 47 40 38 33 32 28 30 24 20 23 25 25 23 23 23 25 27 27

GFSSGP_850_spd_042.txt.gz
Wind_Speed
1 3 4 4 4 4 4 7 3 10 8 4 5 6 7 16 5 2 5 8 12 22 25 26 19 29 31 31 29 26 26 30 33 34 35 34 33 34 33 31 31 31 31 32 31 30 27 26 21
0 3 4 1 3 1 5 5 5 7 8 14 10 4 8 4 9 9 3 12 20 28 23 22 23 24 28 29 28 26 27 31 33 35 36 36 35 36 34 32 32 32 31 30 29 28 26 24 20
0 1 1 4 3 3 4 5 7 11 27 10 4 9 3 3 5 5 2 16 29 22 24 26 38 31 32 29 25 23 31 33 35 37 36 36 37 36 35 33 31 30 30 29 29 28 24 18 18
1 1 1 3 7 7 6 6 7 4 13 15 2 5 4 7 4 6 4 8 20 21 24 31 30 45 38 35 29 28 31 35 38 37 36 37 37 35 34 33 30 28 28 29 30 27 21 15 16
3 1 3 2 7 5 7 6 8 3 8 2 9 4 2 6 4 4 2 11 13 17 19 25 29 37 42 34 33 31 33 36 38 38 37 37 36 35 32 31 29 27 28 28 27 26 20 19 19
1 1 3 3 6 6 5 4 5 2 6 1 3 10 6 5 3 2 4 11 21 15 16 22 27 25 32 40 40 33 35 37 38 38 37 36 35 34 32 29 27 26 27 27 25 23 22 21 19
4 3 4 5 8 5 3 6 4 1 3 3 2 2 3 3 4 5 4 10 16 23 21 18 23 33 30 34 39 39 36 37 36 37 36 35 34 33 31 28 26 25 24 24 23 21 21 23 17
2 4 2 5 3 5 3 3 5 4 3 0 3 4 4 7 4 4 6 9 11 19 17 15 16 42 47 35 36 36 33 34 35 35 35 34 33 31 29 26 23 24 22 20 20 20 21 18 12
4 1 5 5 4 5 4 5 1 4 8 4 4 2 10 2 3 4 8 13 14 14 10 17 19 27 31 36 37 37 32 33 33 34 34 34 34 31 28 25 22 23 20 19 20 20 19 17 11
4 3 7 7 4 2 7 7 8 4 3 4 2 5 3 4 4 3 7 14 20 25 17 22 9 24 34 30 31 32 34 34 35 34 32 32 32 29 26 22 19 19 16 18 16 16 17 16 9
4 6 11 18 15 4 10 7 4 9 2 4 7 4 2 5 7 10 12 19 23 20 21 25 28 33 30 39 34 34 35 35 35 33 32 32 30 27 23 19 18 16 16 17 13 11 11 11 7
2 20 18 17 10 3 7 9 6 4 4 4 6 8 9 5 6 13 19 20 23 23 30 29 32 39 40 43 44 38 38 36 35 34 34 32 29 23 19 18 16 15 15 13 10 8 7 6 4
4 7 13 6 6 12 16 6 9 7 8 13 12 11 10 9 8 11 16 23 27 24 28 29 32 35 38 39 43 42 39 37 37 37 33 28 24 23 20 16 15 15 12 10 9 7 3 3 6
10 15 11 10 8 13 11 5 3 9 15 15 12 12 11 10 10 11 13 18 25 28 28 27 34 34 41 47 43 40 39 40 38 35 32 26 22 21 17 15 13 13 13 10 7 4 5 8 8
13 6 9 9 7 6 24 4 3 19 16 16 14 13 10 7 9 12 14 16 19 30 36 34 33 34 40 43 48 47 43 39 37 33 28 24 19 18 15 12 12 14 12 9 7 8 9 9 6
5 5 2 6 3 6 3 4 5 21 22 17 14 15 13 10 7 11 15 16 21 23 32 36 32 31 41 49 50 46 39 38 33 28 28 21 18 15 14 14 16 12 12 9 11 11 11 8 7
2 5 5 11 9 6 3 3 9 25 19 19 17 16 16 12 9 9 14 17 16 17 23 36 38 43 41 40 43 47 40 41 39 30 31 28 20 17 15 14 13 14 15 14 16 15 13 13 12
5 4 4 7 5 3 5 6 6 23 19 21 22 20 20 17 11 9 14 16 18 18 21 31 38 40 38 41 45 44 44 39 32 34 35 23 18 17 17 17 17 20 20 19 19 19 17 19 17
5 7 10 14 10 6 8 5 11 17 16 16 23 24 23 23 17 11 15 18 20 22 26 35 39 41 42 44 45 46 48 42 36 39 40 21 19 20 22 20 20 24 23 21 21 23 24 24 21
9 10 17 10 4 5 6 8 3 8 11 22 24 29 28 25 22 17 17 20 23 25 28 34 38 39 42 42 40 43 40 39 36 44 39 26 21 25 24 22 23 28 26 27 24 25 26 24 23
13 10 13 9 3 3 7 5 5 6 12 12 25 32 31 35 31 26 24 24 24 28 29 31 35 36 37 38 38 33 33 36 32 44 41 32 28 27 26 27 28 30 30 30 29 28 27 26 27
11 13 10 7 3 4 5 5 5 7 6 9 17 29 35 39 36 33 31 28 28 29 29 32 35 35 33 37 39 37 39 42 44 40 35 35 35 31 32 32 30 32 33 31 30 28 28 27 29
14 15 9 5 4 2 5 2 7 4 8 9 12 29 39 45 44 42 38 34 32 30 32 34 37 38 35 36 39 39 45 45 42 39 40 36 37 38 32 31 29 33 35 35 33 31 32 32 34
10 3 3 3 2 1 5 5 4 5 12 9 12 30 40 45 50 46 41 36 35 36 36 39 41 42 41 38 40 46 48 46 42 40 39 36 37 37 33 30 32 32 37 35 35 34 33 33 32
5 5 2 3 2 6 5 3 7 4 8 16 18 31 37 47 47 49 45 44 41 43 43 43 48 47 45 45 45 46 46 44 42 41 39 37 35 36 36 36 30 33 36 35 37 37 34 31 33
8 9 6 6 4 5 3 5 6 7 4 16 24 33 42 37 46 49 50 47 45 45 45 46 46 47 47 47 46 45 44 44 45 44 43 41 40 37 33 36 33 29 28 33 38 36 34 29 32
6 5 8 5 2 2 4 6 7 8 8 10 20 31 39 38 45 50 50 49 47 46 47 48 48 47 47 49 48 46 45 47 47 45 46 44 41 34 39 30 31 27 30 31 37 38 34 33 33
13 5 2 1 6 4 3 4 5 8 9 2 2 19 31 40 42 49 49 50 49 47 45 47 49 50 51 51 50 49 48 47 46 46 45 40 39 40 32 30 34 36 35 34 39 38 35 35 34
2 4 1 5 5 6 2 5 8 11 7 4 5 23 36 34 40 45 46 49 50 48 47 48 49 51 52 51 49 50 50 50 49 49 46 43 43 39 28 34 34 38 38 38 38 35 34 34 31
7 11 11 6 4 3 5 9 6 7 9 6 10 21 26 33 31 36 42 43 47 49 51 49 50 51 53 52 45 42 39 39 41 42 46 44 31 26 34 41 33 33 36 34 32 32 33 32 26

GFSSGP_850_spd_045.txt.gz
Wind_Speed
1 1 3 4 4 4 4 6 4 8 2 5 7 10 10 3 1 1 11 8 19 29 36 38 36 37 37 23 24 27 20 25 28 29 30 31 31 33 33 32 31 30 29 28 28 26 25 24 24
1 1 2 3 4 3 5 5 6 4 6 4 2 3 4 5 5 8 8 14 22 28 34 35 34 36 38 38 24 29 30 26 29 31 33 34 35 35 33 33 32 31 31 29 26 23 21 22 22
2 2 1 4 3 3 4 5 4 4 12 3 1 6 3 4 6 9 7 13 24 30 32 33 30 29 32 30 31 30 32 32 32 34 36 38 37 36 35 34 33 32 30 28 25 23 23 23 22
2 3 4 3 5 8 6 8 3 5 8 3 5 4 4 3 5 5 8 8 21 32 30 29 27 19 27 27 28 33 33 33 34 36 38 39 38 37 36 34 33 31 30 27 22 21 21 21 21
1 3 3 1 5 5 4 4 2 1 4 4 2 0 2 7 8 7 10 12 29 31 25 27 30 25 28 31 32 35 29 35 35 37 39 39 38 37 35 33 32 31 30 26 21 19 19 20 20
3 2 3 2 5 5 5 6 6 2 6 5 4 1 3 6 4 5 11 15 19 28 26 29 31 30 34 38 33 31 34 36 34 38 38 38 37 35 34 33 32 31 29 24 21 21 22 21 17
5 3 3 3 5 5 4 7 3 5 5 3 2 2 3 4 4 6 7 15 19 20 17 22 35 39 34 31 27 30 39 38 34 38 38 38 37 35 33 33 33 31 28 23 20 21 20 19 16
3 4 1 5 3 6 4 8 5 2 3 4 2 2 2 2 3 4 4 12 18 17 18 23 33 27 27 32 34 33 33 38 36 39 38 37 35 33 31 32 31 30 27 24 19 20 18 16 14
5 3 3 5 4 5 4 3 4 2 2 2 2 3 1 3 5 2 4 9 12 14 16 21 25 34 37 32 44 37 39 40 38 39 38 37 35 33 31 30 29 28 25 24 20 18 14 11 10
4 3 6 5 4 2 4 5 9 4 4 3 4 2 5 3 5 5 7 11 15 20 18 12 11 27 46 48 44 37 36 35 35 39 38 36 34 32 30 27 25 24 22 20 20 16 14 11 9
4 5 5 17 23 15 5 4 5 5 4 7 6 5 4 4 5 8 11 16 20 20 21 18 27 17 29 38 41 36 36 38 41 38 38 36 33 31 29 27 23 24 20 20 21 18 15 11 10
1 12 10 14 10 10 6 7 4 7 3 3 4 4 7 6 4 8 10 14 18 19 21 28 25 30 28 35 39 40 37 37 38 39 38 36 32 29 25 22 22 20 17 16 16 14 11 9 8
5 4 14 20 10 8 12 5 3 4 4 5 8 8 7 4 5 8 11 14 17 18 19 23 25 32 38 43 41 42 43 44 39 39 38 35 31 26 24 21 19 17 16 13 13 11 8 7 8
3 10 18 14 11 8 7 3 4 7 10 10 9 8 5 7 7 7 11 16 23 25 19 26 31 36 40 40 46 47 44 41 40 37 37 34 29 24 22 20 19 17 13 11 9 7 6 7 8
3 6 9 5 7 7 8 1 7 12 14 10 9 11 10 10 9 9 12 15 24 33 24 28 36 40 42 43 41 41 40 40 39 38 35 30 25 23 22 18 17 14 11 10 9 8 8 10 9
4 0 4 2 4 3 1 9 4 18 16 13 11 11 12 11 8 10 12 14 16 17 27 27 32 34 37 40 37 38 36 36 36 36 32 27 24 23 19 17 15 12 12 11 9 9 10 11 9
3 4 4 8 3 4 6 7 4 21 18 17 15 13 12 12 11 7 13 15 15 19 28 36 33 32 39 39 39 38 36 37 36 33 29 27 26 24 18 16 13 12 13 13 13 12 12 13 12
6 4 3 4 5 3 4 11 4 21 19 18 18 17 16 15 12 9 11 15 16 16 19 33 35 34 41 38 42 40 37 36 32 31 28 25 25 22 16 15 13 14 16 16 17 15 16 16 13
3 2 4 7 9 4 10 8 7 13 14 15 21 22 20 17 11 11 9 15 17 17 20 24 30 33 35 39 41 41 45 37 34 30 25 25 20 18 17 15 15 16 19 19 19 18 21 20 18
4 5 8 11 12 8 6 8 7 8 16 22 24 26 25 22 19 16 13 16 18 19 21 25 31 30 37 42 44 44 46 37 38 31 35 30 27 26 20 18 19 20 20 23 23 21 22 24 21
7 6 8 8 6 1 3 5 4 6 9 18 26 28 29 28 25 22 19 18 18 20 23 24 29 33 35 34 40 44 47 42 41 39 40 37 29 24 22 22 24 21 23 27 27 26 26 27 25
6 9 12 8 1 5 6 4 4 6 9 9 21 29 34 33 29 26 23 23 20 20 23 26 28 32 34 35 39 41 45 47 46 44 39 39 36 31 26 23 27 24 27 28 31 30 32 30 30
9 4 9 11 6 3 3 3 7 5 7 12 15 27 35 37 36 33 30 25 21 21 23 25 28 32 36 39 40 42 43 43 43 47 47 51 45 43 33 30 28 29 31 32 33 34 37 37 33
8 4 5 1 3 3 6 6 5 5 7 6 14 28 35 35 38 37 34 31 27 26 26 27 30 33 36 38 41 41 41 40 41 44 44 44 48 48 40 33 33 35 33 32 34 37 38 38 36
4 3 3 3 1 6 5 2 7 7 8 9 11 28 36 37 38 40 41 39 33 32 32 32 32 33 36 39 40 43 45 43 42 45 47 51 50 46 38 37 41 38 34 34 35 36 40 40 40
7 9 5 6 3 5 2 5 5 10 13 13 19 29 32 36 37 41 44 44 40 36 35 36 37 39 40 41 41 40 43 45 47 48 49 46 44 40 38 38 38 39 37 32 33 35 36 37 41
5 5 7 3 3 2 4 6 7 8 9 8 17 18 26 35 38 41 45 46 46 43 41 41 41 41 42 42 41 42 42 44 47 50 46 47 45 43 41 39 39 40 37 30 39 28 33 38 37
8 4 2 2 4 5 3 4 5 4 9 5 8 14 25 32 37 40 42 46 46 47 46 45 46 45 44 46 46 45 45 46 48 51 51 50 48 46 42 42 42 38 39 31 36 35 38 34 37
2 3 3 3 4 8 8 6 8 10 8 7 8 20 24 25 36 41 42 43 46 47 49 50 48 50 52 51 53 53 52 51 49 48 47 49 49 46 41 43 38 30 36 35 37 39 39 33 33
1 5 6 7 7 4 4 11 5 8 8 7 12 19 16 20 29 38 42 41 44 47 47 50 51 51 52 54 53 53 51 49 44 40 45 48 48 39 46 39 31 33 42 40 37 37 34 33 36

GFSSGP_850_spd_048.txt.gz
Wind_Speed
2 2 2 2 4 5 3 5 2 6 3 4 5 2 4 4 1 3 9 20 23 28 33 35 31 31 31 31 26 21 21 20 31 29 28 26 25 26 28 28 27 28 27 27 27 28 29 30 27
3 2 2 2 5 3 5 4 5 4 5 10 8 3 5 4 3 3 11 13 21 25 32 34 36 35 35 31 28 26 28 26 29 28 27 25 27 30 31 31 31 29 28 28 29 28 28 27 26
3 4 2 4 4 3 5 5 5 4 2 3 3 2 3 4 3 6 4 14 24 30 36 36 35 36 34 30 29 32 28 20 27 27 27 28 31 34 33 31 30 29 30 27 27 27 27 25 25
4 3 5 4 4 6 6 5 6 5 5 4 1 4 3 4 4 6 8 13 27 27 37 37 35 36 33 33 31 27 24 22 26 28 29 32 34 33 32 32 31 30 27 27 28 28 27 25 24
4 3 4 1 5 5 6 9 9 4 3 2 1 3 3 5 6 6 9 13 23 30 34 35 33 35 33 33 26 28 25 27 23 29 33 34 34 34 33 32 31 28 26 26 26 27 26 24 23
3 3 3 3 4 5 6 9 6 2 5 5 3 2 2 6 6 8 9 11 21 29 36 36 32 30 26 27 27 29 29 30 30 32 35 35 35 35 33 31 29 26 24 24 24 24 24 22 21
6 4 3 2 4 6 4 2 2 3 4 4 3 2 3 3 7 10 9 13 19 27 28 28 27 29 28 31 29 33 34 33 33 37 36 36 36 33 30 30 28 25 24 24 24 24 22 19 18
5 4 3 4 3 6 3 4 3 5 5 3 2 3 3 2 3 4 7 12 14 20 30 27 34 34 31 31 34 44 36 33 32 37 37 37 32 30 30 31 28 25 24 24 24 23 19 18 17
5 4 2 4 4 5 4 4 4 4 5 3 3 4 5 2 4 4 2 8 14 14 19 18 35 35 33 36 42 43 38 33 35 39 37 35 33 33 31 29 27 23 21 22 22 21 19 17 15
4 4 8 6 5 6 5 8 5 1 5 4 4 3 3 2 5 6 5 9 13 16 15 21 32 32 40 43 46 44 42 37 37 39 37 35 34 32 30 27 25 22 20 20 19 17 15 13 13
6 5 5 9 19 21 9 4 6 3 5 7 4 9 6 3 5 6 7 12 15 17 15 17 23 28 38 44 44 46 40 40 38 39 38 35 34 33 30 28 26 24 20 19 19 16 13 11 12
3 10 6 10 7 4 4 6 4 11 4 5 1 6 9 7 6 6 8 10 16 18 16 19 19 24 39 47 46 48 44 42 39 39 37 36 34 33 31 28 25 22 20 19 19 17 13 13 12
4 4 5 14 20 9 8 7 6 10 7 2 7 7 7 7 6 8 9 14 16 16 20 23 15 22 34 49 47 44 41 39 39 36 35 36 35 33 29 26 25 24 21 17 16 13 11 11 12
5 7 12 8 10 5 6 2 2 9 10 8 9 8 6 4 5 6 10 15 18 18 19 23 22 28 33 40 42 44 46 41 40 42 39 36 33 29 26 24 22 20 17 15 12 10 9 9 10
4 5 6 4 2 3 5 5 9 9 14 11 11 10 9 6 6 7 9 13 16 19 21 25 25 29 29 39 41 45 43 46 44 38 40 36 31 26 24 22 21 20 17 14 11 10 9 10 10
1 3 3 3 4 2 9 11 2 14 19 15 14 11 10 9 9 9 9 10 12 21 22 28 37 33 35 36 36 41 40 41 39 38 39 34 29 25 23 21 20 17 14 11 9 9 11 11 10
5 4 5 5 3 3 3 9 2 14 18 16 17 15 12 12 10 8 10 13 13 17 23 30 35 38 36 33 36 36 37 37 35 38 38 34 28 25 22 20 18 15 15 12 10 10 10 11 10
5 4 5 5 2 3 6 12 4 18 19 18 17 17 18 16 13 9 9 14 13 14 21 21 27 33 36 35 35 38 36 39 39 35 34 32 28 24 22 19 16 16 14 12 12 11 11 10 9
5 2 3 5 3 3 8 10 15 13 16 16 21 21 22 20 13 10 9 13 15 16 17 21 32 31 35 40 33 38 39 40 40 35 29 27 29 26 24 19 17 16 14 12 13 14 15 13 14
3 3 6 9 3 4 7 11 7 7 9 19 22 25 24 20 18 16 15 14 19 19 18 19 31 34 36 41 39 40 41 39 39 38 30 30 26 26 22 20 20 16 14 15 16 17 19 18 19
5 6 5 8 5 4 2 7 5 3 8 12 24 26 24 25 23 21 20 17 20 22 23 23 24 28 33 39 36 40 38 36 40 38 33 36 33 31 23 25 19 18 17 18 17 20 23 21 21
8 9 8 5 2 3 3 5 7 5 7 7 17 25 30 28 27 25 22 21 21 20 20 20 24 27 30 35 41 42 43 46 49 43 35 32 31 36 28 24 22 22 21 21 20 21 25 26 27
7 7 9 5 5 1 2 1 7 5 6 9 10 29 32 32 31 31 28 23 18 20 21 21 23 27 30 35 38 43 44 48 50 46 41 37 41 38 38 28 24 25 24 24 24 24 26 31 34
4 4 4 1 3 3 7 7 5 5 8 6 6 23 32 32 31 31 30 26 22 21 23 25 27 28 33 36 36 39 43 48 50 50 47 45 44 46 45 39 35 31 29 27 28 28 31 34 37
3 4 1 2 1 5 4 5 8 7 11 10 10 18 23 31 32 32 32 32 29 25 25 25 27 30 34 36 39 41 40 42 46 50 48 50 50 51 48 47 44 41 35 32 32 35 35 35 36
5 7 5 6 4 4 3 5 6 9 13 15 16 21 17 21 31 33 33 32 31 29 27 28 29 30 32 35 36 37 40 42 46 45 46 47 50 51 51 49 46 42 39 36 38 41 39 36 32
5 4 6 3 1 2 4 6 8 6 8 7 16 22 25 21 26 33 34 32 32 33 32 30 31 31 33 34 34 37 39 43 44 42 41 42 42 43 43 40 41 41 43 41 38 38 41 38 31
7 5 3 2 4 5 4 3 5 3 9 9 9 15 22 19 21 28 32 32 32 32 33 33 33 33 34 36 37 38 38 39 40 40 40 41 39 40 39 40 42 43 44 45 44 36 38 39 33
3 3 0 4 5 4 2 5 8 11 8 7 9 17 15 20 23 22 28 31 31 33 35 36 37 37 37 38 39 41 40 37 34 33 33 35 37 43 44 45 44 45 44 48 47 31 34 35 38
1 2 6 4 5 4 2 6 4 9 7 8 12 16 19 18 21 25 23 28 31 32 35 38 40 42 42 41 42 42 39 42 41 43 39 31 41 45 44 48 48 41 45 40 36 36 35 35 31

GFSSGP_850_spd_051.txt.gz
Wind_Speed
5 5 2 2 2 1 1 2 2 4 2 3 1 4 3 4 6 4 2 18 19 35 37 38 30 30 26 26 27 28 30 34 31 30 27 27 25 26 26 25 23 22 22 22 24 24 24 23 22
5 5 2 2 2 1 0 2 5 6 6 7 8 6 5 3 5 5 6 14 19 30 34 32 28 29 31 30 28 27 32 32 32 30 26 27 27 27 27 25 23 23 23 26 26 26 25 24 22
5 5 1 3 3 2 2 5 6 6 8 3 3 3 3 2 3 3 7 12 18 26 33 34 33 34 33 35 33 28 31 32 32 30 28 27 27 28 26 26 25 25 29 28 28 25 24 24 22
5 3 4 1 2 3 4 5 7 5 2 8 3 5 4 5 3 6 8 8 19 26 33 35 36 37 38 36 31 29 28 27 28 28 30 27 27 28 27 28 27 28 28 24 25 25 24 24 23
7 2 1 1 3 4 5 8 9 5 2 4 4 3 3 5 9 8 8 10 18 24 33 35 34 34 35 35 31 29 28 28 23 28 27 28 30 30 29 28 28 28 27 27 26 24 24 24 22
2 3 1 3 3 4 5 8 3 5 4 2 4 3 4 6 11 13 11 11 19 22 36 36 34 33 33 33 31 32 30 29 28 28 29 33 31 31 29 29 28 28 28 28 26 24 24 22 22
3 3 3 3 3 4 3 3 4 2 3 3 3 3 4 6 6 11 13 11 14 27 33 35 35 34 33 32 31 29 29 28 29 31 32 34 33 31 30 28 27 26 26 26 26 23 22 21 21
5 2 4 4 2 3 2 3 3 5 3 3 4 4 3 5 9 4 8 9 14 19 29 30 36 33 33 28 29 23 31 31 30 33 35 35 34 31 28 27 25 25 25 25 24 21 20 20 19
5 2 4 4 6 2 3 4 4 4 4 4 6 7 7 7 4 3 3 5 12 14 23 28 27 39 35 32 28 26 29 32 32 34 36 36 34 31 29 27 25 25 26 25 23 20 19 18 19
4 4 8 6 5 4 8 9 6 5 5 5 9 10 5 3 5 6 5 6 9 14 15 27 31 30 31 32 26 31 35 32 33 36 38 36 34 32 29 25 23 24 25 23 21 19 18 17 18
6 5 5 5 12 10 6 6 8 6 6 8 7 8 5 3 5 7 7 10 8 14 8 19 14 22 34 32 32 43 45 39 32 36 37 36 34 32 30 27 26 26 25 24 22 19 17 15 16
4 10 7 3 5 2 4 3 5 11 4 3 5 6 8 8 7 8 9 9 8 14 17 20 22 23 34 33 45 47 43 40 34 37 37 37 36 34 31 29 26 26 24 22 20 20 16 15 14
6 4 8 13 12 11 6 8 6 7 8 6 6 8 7 8 8 9 9 9 9 13 12 16 16 16 35 41 48 45 42 40 34 35 37 37 35 34 31 29 26 24 22 22 21 18 16 17 15
6 9 9 9 10 5 5 3 2 3 11 10 10 8 8 7 8 9 12 14 14 14 14 17 12 12 22 34 49 45 43 41 34 34 36 33 33 33 31 29 26 23 21 21 19 15 14 15 16
3 5 7 7 5 4 7 5 8 6 13 12 12 9 8 8 8 9 12 15 17 16 16 16 14 16 26 39 47 46 42 47 40 32 34 35 32 32 29 28 25 23 20 20 18 16 15 15 16
3 2 6 1 3 1 6 13 4 10 16 13 11 10 10 10 10 10 11 15 17 17 21 19 18 18 23 31 42 43 37 48 44 41 38 36 34 32 29 27 26 22 21 19 16 15 15 16 14
1 7 5 5 4 3 5 6 2 9 15 16 15 12 11 11 11 10 10 13 14 17 24 25 24 23 27 36 41 41 40 45 42 40 34 34 34 31 28 26 25 22 21 18 14 13 11 14 14
8 4 4 7 1 2 3 14 8 11 17 18 16 16 14 14 14 10 9 11 13 13 15 25 28 31 32 33 37 42 40 41 46 42 36 34 34 30 28 24 22 22 21 18 15 11 11 11 11
6 5 5 3 5 3 4 12 13 10 16 15 17 18 18 18 13 11 9 12 14 13 16 19 30 27 33 36 36 41 40 40 42 44 35 37 36 31 28 25 23 23 21 17 14 12 12 13 14
6 6 7 5 3 7 6 13 11 7 9 19 20 20 20 19 19 16 14 14 17 17 17 22 23 31 33 37 36 40 42 41 41 35 35 38 36 32 28 27 25 25 21 21 16 14 15 17 16
10 12 6 8 5 3 3 5 7 3 7 9 16 21 20 24 25 23 20 16 15 20 22 22 24 30 36 35 37 38 36 37 40 40 39 36 35 32 31 28 26 22 22 21 18 15 16 19 19
12 10 7 6 3 4 2 5 7 6 8 7 12 20 22 25 27 25 23 21 20 18 21 23 24 30 34 40 37 45 43 43 45 45 43 37 33 31 33 28 27 25 24 23 21 18 18 20 23
10 8 12 9 7 3 3 5 4 4 7 11 9 18 22 28 31 31 28 23 19 20 22 25 27 28 32 32 40 39 44 44 43 46 50 44 40 39 37 35 28 30 30 25 24 23 23 22 24
5 5 3 3 2 7 9 7 5 8 11 5 6 10 13 21 30 31 28 25 23 21 23 25 27 30 32 35 41 41 49 48 45 45 49 48 40 46 44 41 39 32 30 26 23 24 25 25 25
7 6 2 4 5 8 2 8 12 8 12 12 13 16 7 10 22 29 32 32 29 27 25 26 28 31 36 37 40 44 45 48 52 52 47 49 48 43 42 39 40 39 36 33 30 28 27 29 31
13 10 5 7 5 3 4 6 5 9 16 15 14 14 10 11 14 26 32 34 32 29 29 28 29 30 33 37 41 42 43 46 49 47 51 55 54 48 44 42 44 44 43 43 40 39 36 33 35
6 8 5 0 1 2 3 4 9 6 9 7 12 9 14 14 15 22 29 34 34 33 32 31 30 30 32 32 35 39 42 44 46 47 50 52 56 54 51 50 49 48 48 48 47 47 45 40 38
8 8 3 1 5 8 3 3 6 3 11 12 8 11 17 15 12 17 24 31 34 34 35 34 32 31 30 31 33 35 37 40 43 44 45 47 49 51 52 50 51 50 51 51 46 44 42 41 41
4 7 2 2 3 4 3 4 8 12 7 7 8 11 11 12 11 15 18 25 30 32 34 36 37 36 36 35 35 37 38 39 40 39 38 38 39 40 39 37 40 41 43 43 42 43 44 40 39
2 1 3 7 6 1 0 5 4 8 8 9 13 18 18 14 12 12 17 19 25 31 32 35 38 40 39 38 39 39 39 39 39 39 41 42 44 39 33 41 40 40 42 41 43 46 45 39 39

GFSSGP_850_spd_054.txt.gz
Wind_Speed
7 6 3 3 6 6 3 4 2 3 3 1 2 4 8 11 6 9 3 6 12 19 24 32 31 32 25 26 26 32 33 31 28 28 28 27 26 25 24 23 24 23 21 20 23 21 22 24 25
8 7 3 4 7 8 5 3 4 1 2 3 7 9 9 7 5 5 3 11 12 20 24 25 28 27 24 26 31 29 33 31 30 30 28 28 26 27 25 24 23 20 19 22 23 23 22 24 24
8 8 7 4 6 7 2 5 2 1 3 5 4 4 5 3 4 3 7 12 15 20 23 24 29 28 25 26 29 30 33 33 33 31 30 28 27 25 24 23 21 19 21 24 24 23 22 22 22
6 5 4 8 10 4 5 4 2 4 3 8 6 7 5 7 3 6 7 9 16 22 25 26 32 26 27 29 30 32 34 35 33 32 29 27 27 24 24 23 21 22 24 25 24 23 23 22 21
7 4 7 12 9 3 7 5 6 7 3 3 5 5 6 5 7 7 5 8 17 21 24 27 31 28 26 27 33 33 34 34 33 31 28 27 25 26 25 24 23 24 25 24 24 23 23 21 21
9 5 7 11 11 7 5 4 6 6 6 5 6 9 6 5 4 8 12 7 13 22 25 26 31 32 31 30 32 33 32 29 31 30 29 27 25 27 27 26 26 25 22 23 23 23 22 22 21
12 7 11 9 7 8 3 1 6 6 7 10 4 6 5 4 5 6 11 10 12 21 28 25 27 32 34 34 32 31 32 30 29 30 28 26 28 29 31 30 28 25 24 24 23 22 22 22 21
10 5 10 11 10 10 5 3 4 8 8 2 5 5 7 4 7 12 9 9 14 18 27 28 26 27 27 29 28 28 34 32 28 30 26 30 31 32 31 27 27 27 27 24 23 21 21 21 21
8 7 10 12 11 7 3 6 3 4 8 7 8 9 7 7 7 5 7 8 12 15 24 28 36 28 27 26 27 25 26 28 28 31 32 28 33 30 27 28 27 28 26 24 22 21 21 21 21
12 10 13 5 7 7 7 7 10 6 8 12 12 10 7 6 6 7 7 7 6 11 16 20 24 36 38 31 32 31 27 30 32 33 33 35 33 29 25 28 27 27 26 24 21 21 20 20 20
13 14 9 8 10 10 10 11 6 8 10 12 11 7 8 6 6 8 8 7 6 8 11 17 28 39 34 37 36 31 28 31 35 38 34 30 32 31 30 30 29 29 27 24 22 21 17 16 17
11 16 13 12 8 9 9 9 10 11 12 3 5 5 7 6 5 6 7 7 9 9 12 9 24 23 23 34 36 32 33 36 33 37 32 35 37 33 28 27 27 29 25 23 21 18 16 16 16
18 11 11 16 14 13 12 14 12 12 8 6 5 6 7 6 5 5 8 6 8 8 11 11 16 19 23 38 38 37 41 39 39 35 32 38 37 34 28 26 25 24 22 21 20 17 17 16 17
9 21 15 14 15 12 12 14 5 4 7 8 9 8 7 7 6 6 9 9 7 8 10 12 13 15 16 26 36 39 48 41 37 33 37 38 37 35 30 27 23 22 21 20 18 17 16 15 15
14 12 14 16 17 15 11 17 14 9 9 11 12 10 10 8 8 9 8 11 13 12 12 14 16 15 19 23 32 43 49 41 38 32 37 39 38 34 30 25 21 20 19 20 18 17 16 15 15
13 14 15 15 10 9 13 18 4 5 11 13 14 13 11 11 10 8 8 15 15 16 13 14 14 15 11 24 35 42 41 42 38 37 41 38 32 28 25 23 20 20 20 19 17 16 15 15 15
12 14 16 12 9 6 12 15 4 5 12 13 14 14 13 12 11 10 9 11 17 16 15 14 12 14 11 25 34 40 41 37 39 35 37 31 29 29 28 24 22 24 19 18 16 15 14 15 15
16 15 15 13 9 10 12 15 11 9 13 15 14 15 16 14 14 11 10 11 15 15 17 20 18 18 17 27 34 35 37 44 40 36 37 33 33 37 30 24 25 23 19 20 18 16 16 14 14
11 12 14 7 4 7 13 15 12 6 13 15 15 17 18 17 13 13 11 11 15 15 18 22 24 24 23 26 38 36 34 48 49 44 44 29 35 34 32 24 28 24 19 19 21 16 16 15 16
18 15 13 6 6 10 14 14 14 4 9 13 15 18 19 18 17 16 14 14 16 17 19 21 25 27 28 30 34 36 37 46 48 47 48 32 33 33 33 26 28 28 20 22 23 19 17 14 18
21 19 14 12 3 11 10 15 17 12 9 9 15 16 18 22 23 20 19 17 16 19 20 23 28 29 30 33 39 39 37 44 44 54 41 37 32 32 30 34 27 28 26 25 24 20 17 15 16
19 17 16 12 9 11 7 14 15 11 15 12 14 17 18 22 24 22 22 20 19 19 20 22 28 31 30 31 39 42 44 43 44 49 48 32 30 34 31 33 31 30 28 27 21 21 20 19 18
16 7 13 14 13 13 14 9 13 9 14 15 14 16 18 20 25 26 25 22 20 20 22 23 27 29 32 37 40 38 42 44 43 46 48 36 35 36 38 35 34 31 28 26 24 25 25 22 23
4 8 7 6 7 12 15 11 11 12 13 10 9 10 12 16 23 25 23 22 21 20 21 23 25 30 34 39 41 40 44 44 44 47 49 43 38 39 42 38 35 32 30 30 30 28 27 27 26
15 12 7 9 9 10 5 10 16 6 10 11 9 9 7 12 19 24 27 27 25 25 25 25 27 29 34 39 42 44 42 48 44 47 51 49 46 43 42 39 37 36 32 31 31 30 27 26 26
21 17 6 6 9 9 8 8 11 7 8 12 11 12 6 12 16 22 28 29 29 29 28 28 28 28 31 37 42 38 40 47 47 43 50 51 51 52 49 45 45 44 41 39 37 35 33 31 33
13 19 16 10 2 4 7 5 10 9 8 6 10 7 9 11 15 17 25 31 30 31 33 33 31 30 30 33 37 42 40 41 47 44 48 50 51 50 53 54 56 55 52 46 44 42 40 33 32
11 11 8 10 10 13 10 9 6 3 7 8 7 8 6 8 11 16 23 29 30 30 30 33 33 31 31 32 34 36 40 42 41 43 48 55 55 57 54 55 57 53 52 51 48 49 46 37 36
14 12 8 6 10 8 8 5 4 6 11 11 11 4 7 11 9 11 19 24 28 28 30 34 34 32 33 34 35 35 39 41 43 47 49 51 56 59 60 61 58 60 58 55 49 45 46 45 43
12 17 18 10 11 6 5 6 5 6 8 11 10 14 16 15 13 8 14 19 25 29 30 33 35 36 36 34 35 38 35 37 41 49 50 51 54 50 55 54 58 60 53 48 46 43 45 38 36

GFSSGP_850_spd_057.txt.gz
Wind_Speed
8 6 4 9 7 8 16 1 6 6 7 3 4 6 15 14 12 6 2 4 3 8 12 25 25 26 28 27 26 27 25 24 26 25 25 23 22 22 23 21 22 20 18 19 21 21 19 20 22
6 7 9 13 8 13 6 6 8 0 5 3 4 7 10 10 5 6 4 2 5 9 16 21 28 29 27 31 26 27 28 29 30 27 27 25 24 24 23 23 22 19 18 18 19 22 22 23 23
11 10 15 8 14 14 8 8 1 3 2 4 4 3 6 7 5 3 3 3 5 10 18 21 30 29 30 29 24 25 30 30 31 30 28 27 26 25 23 25 21 16 16 16 19 21 23 22 22
9 9 15 11 17 11 7 1 2 5 7 3 4 6 3 4 2 4 4 4 7 12 18 22 29 30 29 27 29 32 32 33 32 30 29 28 25 25 24 20 20 19 17 19 20 21 21 21 21
12 13 13 17 17 11 3 10 1 6 3 5 4 7 7 4 2 3 5 6 7 13 18 25 27 29 26 26 29 33 34 33 33 33 28 26 25 23 22 21 20 19 19 22 20 21 20 21 22
15 17 14 15 15 8 5 6 7 5 8 8 7 8 11 3 2 6 10 7 8 12 19 23 27 30 26 27 26 25 34 34 34 33 29 24 23 22 23 21 22 22 22 20 20 21 20 21 22
17 13 16 19 14 4 7 3 9 10 7 9 6 10 12 4 5 5 7 8 8 11 18 21 23 25 27 27 26 28 36 36 34 31 30 23 22 23 23 24 25 22 21 20 20 20 21 22 22
21 14 21 19 12 12 9 8 11 9 11 3 5 7 11 4 3 5 5 7 8 12 15 24 20 19 26 24 21 24 31 32 33 32 29 28 29 26 27 27 24 22 22 21 21 21 21 21 20
14 14 16 19 13 11 11 8 15 5 12 8 7 9 8 5 5 6 7 8 9 12 17 21 22 21 21 20 24 21 22 26 28 29 27 27 30 30 27 25 23 23 22 23 22 21 21 21 21
17 13 22 12 9 8 4 12 13 9 13 12 11 10 9 6 6 8 9 9 8 9 13 17 23 22 21 18 20 20 20 17 26 25 26 30 28 26 22 24 24 26 24 23 22 20 20 21 23
23 20 20 8 11 8 9 10 13 12 12 8 10 9 5 8 7 7 7 7 4 4 8 15 20 20 25 22 16 19 26 32 26 28 34 36 31 25 25 27 27 28 25 23 22 21 18 16 17
21 24 22 18 11 13 14 14 13 13 13 5 7 5 6 7 7 6 3 4 4 3 5 12 17 25 22 25 19 19 26 33 34 32 32 29 29 30 27 29 31 30 26 24 22 18 14 14 14
21 21 22 19 16 13 15 16 16 18 17 5 7 6 7 6 6 4 5 4 5 4 6 7 19 21 23 20 21 28 33 25 29 33 35 36 31 31 28 28 27 25 20 20 19 14 15 15 14
23 20 25 17 18 19 17 17 21 16 9 7 9 8 8 8 7 6 6 7 4 4 8 9 16 26 30 23 22 24 35 38 34 40 39 38 31 28 26 27 25 23 21 19 17 15 15 15 14
20 21 17 20 21 16 18 20 19 24 14 10 12 11 10 9 8 8 8 8 11 7 7 9 11 19 19 19 21 28 43 45 43 47 36 32 34 30 26 27 26 23 21 19 17 16 15 15 15
15 20 18 19 19 20 16 17 15 6 9 11 13 13 12 12 11 8 8 9 11 15 9 8 12 15 15 17 21 28 41 47 44 44 35 34 35 31 28 24 24 22 20 20 18 17 16 16 16
17 15 21 18 15 10 12 15 15 8 9 11 14 14 14 13 13 11 9 9 11 16 14 10 13 13 14 13 19 31 44 43 42 36 36 34 31 33 28 26 22 23 21 20 18 17 17 17 16
17 18 18 17 13 12 16 17 16 13 12 13 16 15 15 15 15 14 12 11 12 13 16 15 13 13 12 14 29 37 44 46 41 42 40 40 31 33 28 24 21 22 19 18 17 17 17 16 16
20 18 15 13 5 8 14 16 14 17 15 14 15 16 16 16 13 14 14 13 13 14 17 18 17 16 15 21 32 32 33 35 42 38 33 34 29 30 25 24 22 21 20 18 19 18 17 16 16
24 24 15 14 2 7 14 16 18 14 14 15 15 18 16 15 16 17 16 16 16 17 18 19 21 21 19 22 34 33 37 42 46 45 34 38 35 34 33 27 23 25 19 19 20 19 17 16 17
21 22 18 17 7 9 15 18 19 14 18 13 14 15 14 16 19 19 19 18 17 18 19 23 22 24 24 24 32 30 38 38 44 43 39 43 37 28 33 26 27 29 23 23 24 21 19 17 17
21 18 19 16 15 13 12 15 17 19 19 15 18 18 16 16 18 21 22 21 19 19 19 22 24 25 27 27 33 35 39 44 49 49 47 44 38 33 37 31 26 24 28 24 24 22 21 18 18
21 15 15 16 17 15 17 9 12 13 13 15 15 20 19 17 19 22 24 23 21 20 21 21 25 27 30 31 32 34 37 39 51 49 47 43 39 39 34 31 29 27 27 27 25 25 25 24 22
16 11 11 13 14 15 18 15 11 12 14 10 11 13 16 16 17 20 23 23 22 21 21 22 24 29 29 32 33 36 37 40 47 54 53 47 40 40 40 34 33 34 33 30 31 29 28 27 24
18 14 9 11 12 14 14 13 14 4 4 6 5 8 14 12 15 19 24 26 25 25 25 24 26 27 33 35 35 37 41 44 42 49 48 58 45 41 39 38 35 36 37 37 32 30 32 29 27
20 18 9 14 11 14 19 8 11 7 2 4 10 12 2 8 12 16 23 27 27 28 28 27 26 27 31 38 37 36 35 41 39 46 50 55 59 54 45 40 41 43 41 40 37 36 33 35 31
17 21 21 18 10 7 7 10 12 3 7 6 6 7 9 10 12 14 18 26 28 29 30 29 27 27 28 32 40 40 40 37 39 40 43 49 55 59 54 49 46 45 46 45 42 40 38 33 32
22 12 18 11 12 12 10 11 8 9 10 5 3 8 5 3 10 14 16 22 28 29 29 29 29 29 28 29 35 40 42 42 42 43 42 46 50 53 48 54 51 49 48 48 45 45 44 41 39
15 18 13 15 14 9 12 9 5 10 11 6 6 7 11 9 7 8 11 16 24 28 30 30 30 30 30 30 31 32 41 41 41 42 48 44 42 47 47 45 48 49 49 47 43 46 47 44 44
18 21 20 10 9 12 8 2 8 8 7 6 6 2 5 6 6 6 5 10 18 25 29 31 30 32 32 33 33 34 33 37 43 46 47 48 44 44 43 47 44 45 47 46 46 45 45 45 45

GFSSGP_850_spd_060.txt.gz
Wind_Speed
10 8 3 9 6 8 16 17 4 4 2 5 6 5 11 10 10 3 4 7 5 3 8 11 20 24 24 24 24 23 22 23 23 22 22 21 21 20 20 21 21 22 23 23 22 18 19 23 23
9 6 10 9 8 12 13 7 4 3 14 9 4 9 9 6 14 7 5 4 2 4 10 10 22 24 26 25 25 25 25 25 24 24 25 23 21 20 21 21 21 20 20 22 20 18 20 21 21
11 12 12 5 12 14 15 4 1 6 5 3 6 7 2 1 10 4 8 11 5 7 12 15 22 25 25 26 25 24 25 25 26 25 25 24 22 21 22 21 19 17 17 20 20 21 23 22 23
9 11 12 9 17 21 20 8 4 1 8 8 4 6 4 6 6 6 9 7 10 9 10 15 19 23 26 26 26 23 28 29 29 28 26 25 24 24 23 20 19 16 16 20 22 22 24 23 23
12 14 12 16 18 22 18 1 5 3 2 5 3 5 5 7 7 2 7 7 6 9 14 19 19 24 25 26 26 26 30 35 32 30 28 27 25 23 23 20 16 15 19 20 21 24 25 24 25
14 16 14 15 21 21 13 6 5 8 8 9 9 12 2 8 7 6 9 7 7 12 17 17 19 21 24 26 24 26 29 34 33 34 31 29 27 25 21 19 18 18 16 20 23 24 23 23 26
18 13 18 20 19 21 4 9 3 7 11 5 6 2 6 8 7 5 5 11 8 14 11 19 20 21 24 24 24 22 13 19 30 34 33 29 26 24 22 20 17 18 20 21 22 23 24 26 29
24 13 22 20 16 22 14 14 6 8 9 4 2 3 4 5 2 6 7 4 6 12 14 15 16 20 17 25 25 21 28 27 27 34 32 29 25 24 22 20 20 20 21 21 22 24 26 27 28
25 14 15 22 21 21 10 5 7 13 5 9 9 8 3 4 2 3 4 7 9 12 14 12 14 15 16 23 24 20 19 15 22 36 32 28 27 24 24 22 21 21 20 21 22 24 25 25 29
20 15 22 22 22 12 4 10 9 13 15 13 16 13 10 4 3 5 7 9 8 11 14 10 11 13 17 21 20 16 14 11 15 33 30 30 29 27 22 21 22 21 22 21 22 23 24 26 31
26 21 20 25 25 11 19 6 6 9 10 12 7 6 7 5 5 4 6 6 5 8 10 9 9 14 17 18 14 19 15 16 18 31 32 28 28 28 27 30 26 24 22 22 23 24 24 29 29
24 29 27 28 27 14 16 10 13 14 9 12 4 2 5 7 7 6 3 8 6 6 7 9 12 15 16 14 18 19 27 19 23 26 30 32 34 28 28 28 28 27 24 23 23 23 20 26 22
25 23 29 30 27 23 15 15 14 15 17 8 4 4 7 8 6 5 6 6 12 8 10 8 10 16 18 15 17 18 18 27 26 28 34 34 33 30 25 28 30 28 25 23 24 22 18 16 15
27 25 26 29 27 21 18 16 18 20 20 15 6 7 9 9 8 7 8 9 9 12 12 9 9 12 15 19 18 22 26 28 30 37 35 35 33 29 27 29 32 28 23 24 21 18 18 17 15
26 22 21 19 22 24 19 20 20 22 21 24 11 11 11 10 9 9 8 12 12 11 8 9 9 12 15 20 22 21 25 26 33 35 25 36 35 30 29 30 31 25 19 17 19 19 18 18 17
22 19 18 21 22 21 21 19 19 21 23 17 11 14 14 11 11 10 10 10 12 13 11 9 9 14 16 19 20 19 23 28 35 35 33 39 35 31 30 31 28 25 26 20 20 20 19 19 17
14 16 21 22 22 21 20 21 18 19 10 8 14 16 18 15 13 12 11 11 17 14 12 10 11 14 16 17 17 17 23 38 37 40 35 46 39 31 30 30 27 26 31 28 22 20 20 21 20
17 19 20 19 19 21 20 16 13 22 16 18 16 17 19 19 17 16 13 12 16 12 15 13 12 12 13 13 15 13 20 36 46 42 43 40 37 34 31 26 25 29 25 24 21 23 21 21 21
21 22 21 16 17 15 17 15 16 16 17 15 19 17 15 19 18 19 18 15 15 13 17 18 17 15 14 12 14 16 30 39 42 43 40 32 35 36 34 25 23 26 24 24 22 22 22 19 21
24 23 22 22 15 3 9 13 15 15 15 18 15 19 16 17 21 21 20 18 18 15 15 19 17 17 14 14 24 34 36 38 42 38 40 34 37 37 34 29 30 27 23 21 22 22 22 20 22
23 23 18 22 18 14 7 16 19 18 19 19 17 13 18 20 24 26 23 21 20 19 19 23 22 19 14 15 26 29 36 39 42 39 41 38 33 34 31 32 34 31 28 24 20 25 24 25 23
22 22 22 20 17 14 14 12 14 16 16 14 16 15 14 13 24 29 27 24 24 22 20 21 24 24 19 19 26 34 37 39 45 49 45 39 36 37 39 33 33 31 28 25 26 26 26 22 24
23 18 16 15 16 16 19 12 12 13 12 19 16 22 22 21 20 29 30 26 23 23 23 22 27 26 26 25 29 34 34 37 46 46 45 45 40 39 41 38 32 35 31 27 29 29 28 27 24
20 16 17 14 13 14 17 16 12 13 13 11 8 11 24 24 19 23 28 26 25 22 25 23 27 29 31 30 30 35 35 39 46 51 49 45 44 44 43 40 35 30 29 33 27 26 27 29 31
16 14 9 7 10 10 16 14 11 16 9 4 3 3 7 22 19 21 30 29 28 27 31 25 27 33 36 34 32 33 36 39 42 50 56 54 49 47 49 40 40 37 34 35 38 35 32 32 32
18 15 7 8 7 13 19 10 14 18 14 5 3 5 8 15 14 17 25 29 30 31 31 27 29 29 36 36 35 35 37 38 41 41 53 59 55 47 50 48 42 43 36 40 39 38 38 36 36
14 14 17 15 7 5 9 18 15 6 7 5 6 9 5 10 13 12 17 27 30 32 33 30 27 27 29 37 38 39 37 36 38 39 43 55 54 53 46 53 48 47 45 41 43 42 41 38 38
17 15 10 5 5 6 7 5 8 9 8 9 6 7 7 7 11 18 17 23 29 30 31 32 29 28 29 29 38 42 42 41 41 39 43 45 49 55 57 55 53 47 48 45 44 44 42 41 42
13 15 11 13 10 5 2 4 12 12 11 7 11 16 17 14 8 5 9 19 27 30 31 32 32 29 30 32 29 38 43 41 41 40 44 43 42 50 51 56 60 53 47 45 45 46 46 46 46
16 14 18 7 9 12 5 1 15 6 8 8 10 13 12 8 12 6 3 2 8 26 29 31 31 32 32 33 32 30 35 43 45 45 43 42 42 42 45 53 56 56 61 59 54 53 52 49 48

GFSSGP_850_spd_063.txt.gz
Wind_Speed
9 6 4 4 2 1 5 8 5 3 5 18 16 12 5 7 2 3 6 1 7 4 4 5 11 19 21 22 23 23 22 20 19 20 22 23 23 22 20 20 20 21 22 22 21 23 22 22 20
9 7 4 5 3 2 7 12 17 9 14 14 8 6 3 3 18 13 5 2 5 3 6 5 11 20 23 22 22 22 23 23 21 22 22 22 22 20 20 21 22 24 23 22 22 24 26 26 26
11 10 5 4 4 8 6 2 4 11 17 11 3 0 9 11 10 9 2 6 4 9 9 11 8 20 24 24 22 23 24 25 24 23 23 24 23 22 21 23 23 23 22 22 22 26 27 26 25
8 6 7 0 10 15 15 20 7 7 11 12 9 4 7 8 9 5 1 3 7 8 9 12 11 17 23 25 24 24 25 26 26 25 26 24 24 24 22 23 21 21 21 23 22 27 28 29 32
11 5 3 4 10 16 18 17 9 6 9 15 13 5 9 9 9 9 4 1 9 5 15 14 14 12 22 24 25 24 26 27 28 28 27 27 26 25 22 21 19 19 22 21 27 30 30 32 32
5 5 1 7 15 20 17 36 9 6 5 3 4 10 8 13 9 7 5 5 6 9 15 16 16 13 17 22 26 26 24 26 29 32 31 30 27 27 23 21 18 18 20 24 30 31 30 32 31
5 2 6 9 17 21 17 8 7 6 7 6 7 4 14 15 10 8 9 9 8 10 8 16 18 18 16 18 22 24 25 23 26 29 33 33 30 29 23 21 18 17 20 25 28 31 31 33 31
16 3 7 11 13 20 19 5 13 7 4 13 9 3 6 21 16 10 10 8 3 7 8 9 18 19 22 23 26 26 22 23 24 20 21 30 32 28 22 19 16 18 22 26 28 28 32 34 31
20 7 11 15 17 22 23 2 8 9 12 11 9 14 15 16 8 2 3 6 5 10 14 10 12 17 22 22 26 25 23 19 22 24 24 31 32 26 22 18 21 23 24 25 26 28 33 35 30
11 5 15 16 21 16 18 4 7 4 9 10 12 14 18 12 6 4 7 9 9 11 12 12 12 15 18 20 24 24 24 19 18 28 31 33 30 27 26 25 23 23 24 24 26 30 33 35 32
13 15 14 24 32 24 25 7 7 4 2 6 18 24 17 12 7 8 6 10 9 9 9 7 10 12 14 17 19 21 20 20 16 20 39 38 33 30 28 27 24 24 26 26 27 29 32 35 32
12 23 25 29 34 30 16 23 4 6 3 4 12 17 16 13 13 9 9 9 9 7 7 6 9 12 12 16 18 18 20 19 14 38 41 39 35 31 30 29 27 25 26 27 28 30 36 35 26
17 16 26 31 32 32 30 12 8 8 10 3 15 13 14 11 10 11 10 11 13 11 10 9 14 15 13 13 13 18 19 20 26 39 42 38 32 33 31 31 29 27 26 26 28 31 38 28 23
19 20 23 29 26 28 19 9 8 15 16 19 16 15 15 14 11 12 14 13 12 15 15 10 14 18 15 15 17 20 26 25 34 37 31 34 36 34 32 32 29 28 26 27 28 31 37 22 25
20 13 15 15 21 19 20 11 9 20 22 26 20 19 17 17 13 13 13 12 13 10 11 11 16 21 19 18 20 24 23 29 34 34 39 42 37 36 36 33 32 29 28 28 25 23 23 20 20
5 5 7 11 14 14 13 16 11 24 30 29 28 25 23 20 20 16 13 14 16 13 10 11 17 22 17 22 21 21 19 27 29 37 42 41 40 37 36 33 33 30 30 28 27 26 22 21 20
3 5 10 13 15 14 9 17 12 23 27 18 27 28 28 24 21 18 19 18 17 14 9 13 15 21 19 22 19 19 20 23 30 39 40 35 37 37 38 33 33 31 28 30 25 27 25 25 19
5 6 8 15 18 15 19 18 15 26 16 16 18 16 31 31 28 24 22 19 16 15 11 14 16 20 21 22 21 21 22 24 34 39 39 31 39 40 35 34 35 32 30 30 26 26 25 25 21
14 14 16 20 19 12 12 22 15 12 12 16 24 23 25 35 29 27 24 19 17 15 13 14 17 19 22 22 24 26 27 30 43 40 42 38 42 37 34 36 33 33 33 32 32 26 26 25 22
17 17 19 19 16 9 11 9 6 6 7 23 27 31 27 35 34 33 28 24 21 17 13 18 16 18 18 18 20 21 23 29 28 42 43 44 39 36 33 35 36 28 35 36 30 29 28 24 25
17 17 15 17 19 18 15 8 5 8 12 16 27 38 34 40 39 37 32 28 22 19 17 18 18 19 17 15 13 16 23 31 39 41 43 51 39 31 34 30 37 34 26 31 29 29 28 26 24
17 13 17 18 17 12 3 5 7 8 16 16 17 26 36 39 43 40 37 31 24 21 17 17 21 19 18 19 16 21 30 34 36 41 40 47 46 34 34 38 33 30 28 29 27 28 29 22 28
14 10 13 18 23 9 11 4 6 8 7 19 12 29 33 43 45 41 38 32 24 22 21 18 21 22 21 20 25 26 29 34 41 46 39 39 40 38 41 34 36 33 34 32 29 28 29 26 34
13 13 17 19 9 10 9 4 5 8 11 5 13 26 34 33 45 41 36 31 25 21 21 20 20 25 24 22 25 29 30 38 43 43 44 40 39 36 37 39 37 35 36 34 33 32 30 27 32
14 12 4 5 6 5 7 8 12 11 13 9 6 19 36 33 46 42 38 33 28 24 23 22 20 28 27 27 27 31 35 38 38 39 46 45 41 37 36 40 38 36 39 38 35 35 32 34 36
7 15 5 3 2 4 13 6 7 16 19 19 4 8 23 33 42 42 38 33 31 26 23 22 24 25 31 32 32 31 35 38 36 39 46 47 50 46 42 42 43 42 37 36 37 37 32 36 36
8 16 11 8 8 4 3 5 13 10 7 8 5 21 29 29 37 39 40 34 30 29 26 22 24 22 30 33 35 34 32 35 35 38 46 51 51 49 46 43 43 44 43 39 37 37 39 38 38
13 9 5 1 3 3 4 5 4 8 5 7 6 11 14 24 27 37 37 35 31 27 27 25 23 22 22 33 36 37 37 37 39 39 43 49 52 51 51 50 50 48 46 45 42 43 45 42 43
7 8 3 3 6 2 0 3 4 8 7 10 11 19 21 19 20 17 34 33 30 30 31 31 27 23 23 23 34 38 39 41 41 42 41 43 46 49 55 57 55 57 57 54 48 50 50 48 47
10 13 10 2 2 3 2 4 7 6 7 10 15 23 29 36 35 39 44 11 29 33 33 31 30 26 24 22 25 31 37 41 42 44 44 43 45 44 46 54 60 58 60 60 61 56 55 54 52

GFSSGP_850_spd_066.txt.gz
Wind_Speed
8 4 5 2 3 4 4 7 5 10 2 6 8 9 9 3 2 3 20 4 5 2 1 3 11 21 25 25 26 25 24 22 21 22 22 22 21 21 20 20 20 20 20 21 24 23 25 22 19
7 8 5 2 3 1 5 5 9 9 9 13 13 14 5 1 9 11 13 8 4 2 3 3 8 20 25 25 26 27 25 22 21 21 23 23 23 22 21 21 20 19 19 22 24 27 24 23 21
9 11 4 4 4 6 6 5 8 7 13 9 5 3 10 12 12 9 6 2 1 4 6 7 7 14 24 26 26 27 26 23 21 22 24 25 25 23 23 23 23 23 21 23 26 28 27 25 26
11 6 2 2 9 11 8 3 7 8 13 10 15 6 7 11 15 10 7 7 6 7 7 10 10 8 21 26 26 27 28 27 26 25 26 26 25 24 23 24 25 23 23 25 27 30 31 29 27
12 4 2 4 10 13 8 13 19 7 10 12 14 7 13 15 12 13 9 8 8 8 10 13 11 11 15 24 27 28 30 30 29 28 28 28 26 25 26 25 25 23 22 26 29 30 31 32 28
5 3 1 6 9 14 8 23 22 22 17 13 10 9 6 14 13 13 10 9 8 8 14 15 16 13 12 22 27 31 32 30 28 29 32 32 29 28 27 25 23 22 23 27 32 33 35 31 26
6 4 6 5 6 10 12 21 17 13 10 10 15 5 11 19 14 13 11 8 8 8 9 14 16 17 16 17 25 28 33 30 23 26 26 31 32 30 28 25 22 22 23 34 36 36 33 29 26
7 4 3 5 7 12 8 15 24 9 4 12 14 6 6 21 18 15 9 6 7 5 6 9 17 21 22 20 24 25 24 25 28 28 29 27 25 27 27 25 20 19 26 35 36 34 32 28 20
10 1 5 6 7 14 18 10 28 10 13 10 14 17 12 24 21 15 12 9 8 6 7 8 11 20 22 23 24 25 23 24 29 22 21 24 25 25 24 23 23 23 30 34 35 34 30 25 23
6 7 9 8 9 13 18 12 24 16 7 5 9 8 18 26 22 20 14 9 10 8 9 11 12 15 22 23 24 25 26 28 22 29 24 25 20 25 28 25 23 25 30 33 36 36 30 23 24
7 13 9 11 25 20 20 23 28 14 5 11 15 24 30 26 22 15 13 8 8 9 10 11 12 13 16 21 24 25 27 26 26 28 28 32 32 33 32 28 27 28 29 32 35 39 32 27 27
7 14 16 21 28 23 17 31 15 20 17 8 16 23 26 23 19 16 14 13 11 10 9 11 11 13 14 15 18 21 19 21 27 29 28 34 37 38 35 33 32 32 33 34 35 41 35 32 21
12 15 23 28 29 30 32 23 23 24 26 3 21 28 27 24 18 16 12 11 11 10 9 10 11 13 14 15 16 17 21 22 23 24 32 42 40 39 36 35 33 32 33 33 37 40 39 34 19
11 17 23 27 29 24 13 18 8 26 21 17 23 29 28 24 19 20 17 13 12 13 13 10 12 14 13 13 16 20 21 21 27 27 31 44 42 39 39 35 33 31 30 33 38 41 40 33 20
7 9 13 15 12 11 17 16 10 29 23 19 26 28 28 26 23 21 18 16 14 12 11 15 14 17 15 15 15 20 23 22 20 36 39 41 42 42 38 34 33 31 31 32 35 41 37 31 22
4 3 6 7 6 13 9 17 19 28 21 25 21 26 29 32 26 21 18 18 18 14 10 12 14 17 17 18 17 18 22 22 28 39 40 38 40 36 37 36 34 32 32 32 37 43 33 33 25
3 5 6 8 8 7 6 13 10 25 21 25 28 27 33 34 28 24 20 21 19 15 11 11 17 19 22 19 20 21 21 24 32 38 40 39 39 40 39 38 37 35 34 35 38 43 32 33 26
5 4 5 9 1 7 12 17 16 27 22 25 30 25 37 37 36 30 23 23 22 18 13 12 17 20 20 19 21 21 22 26 31 33 36 42 43 39 39 38 38 37 38 37 37 36 32 29 25
7 9 9 13 8 9 15 18 10 16 16 15 19 23 37 44 38 32 26 25 25 21 16 13 21 26 25 27 27 25 25 28 33 36 41 44 43 40 39 38 38 38 40 36 34 31 30 28 23
9 9 14 16 10 6 16 10 14 14 13 22 26 27 35 33 35 34 31 30 29 23 18 14 22 27 30 28 29 30 28 27 29 38 46 45 44 41 40 39 40 39 39 38 34 35 35 31 26
8 10 12 14 15 13 11 9 15 11 7 14 27 35 33 42 42 39 38 35 32 27 21 17 18 26 29 29 28 29 29 32 29 40 49 51 42 41 40 41 39 41 39 40 36 39 34 35 32
9 12 16 19 11 5 3 6 19 12 9 5 10 22 27 39 45 44 42 38 34 28 21 17 17 24 27 27 28 27 30 31 33 34 42 49 42 42 40 37 38 42 39 38 37 38 35 33 35
12 7 5 5 5 3 6 6 13 6 8 11 8 18 32 42 48 48 47 39 35 28 23 19 17 22 25 24 22 22 22 22 21 30 30 43 42 42 36 33 39 36 39 39 40 39 35 33 35
10 7 5 5 4 4 9 6 8 5 11 5 7 9 23 38 48 50 46 40 34 29 24 22 19 22 25 26 26 22 25 22 27 31 35 42 42 33 34 36 41 39 35 28 31 26 35 34 37
8 2 1 3 3 5 5 7 13 13 11 11 11 23 21 43 44 44 44 42 35 32 28 25 22 22 25 27 26 27 25 27 28 31 35 42 51 44 35 32 34 36 37 31 28 36 38 37 38
11 6 4 5 1 2 12 6 5 10 13 20 25 26 22 36 44 50 47 41 36 32 29 26 24 21 24 27 26 29 30 29 30 36 41 44 49 51 44 41 37 34 33 31 36 41 38 35 39
5 6 3 3 2 1 4 5 7 11 12 8 10 6 28 33 41 48 44 39 35 32 28 26 23 22 21 25 28 27 30 32 34 40 42 39 41 44 49 45 44 42 43 43 44 41 40 38 40
7 4 3 3 3 4 4 2 2 16 13 10 8 7 11 30 39 42 41 37 33 30 27 25 22 19 18 21 25 29 29 32 35 38 39 39 41 44 45 45 43 42 45 45 42 44 44 42 42
4 4 3 1 2 1 1 2 11 13 15 15 17 26 25 16 14 21 27 29 29 29 28 25 23 20 20 19 23 26 32 33 34 38 39 39 40 46 48 47 45 45 46 47 48 46 45 47 45
8 8 7 2 5 4 2 3 9 9 13 13 18 24 29 37 33 19 14 9 10 16 20 24 24 23 20 18 20 24 25 32 36 37 38 38 39 42 48 49 50 50 50 50 52 52 53 53 52

GFSSGP_850_spd_069.txt.gz
Wind_Speed
9 6 5 3 3 4 4 7 3 8 6 4 5 5 6 3 4 4 17 9 8 6 5 9 16 22 25 25 25 25 25 23 20 21 25 29 29 28 26 25 23 23 22 21 22 24 25 23 20
9 8 6 3 4 1 5 5 8 4 8 0 13 15 4 2 8 13 15 9 7 6 6 7 11 21 27 27 27 28 27 26 25 24 26 27 26 27 25 24 24 22 22 23 23 24 25 22 19
11 11 5 4 4 6 6 5 3 8 19 8 3 6 8 5 11 14 11 11 9 6 4 5 9 15 25 28 29 29 28 27 26 26 26 26 26 26 26 26 24 22 22 23 24 25 25 23 22
12 6 2 4 7 8 6 5 3 10 24 11 9 3 5 14 13 13 12 11 6 5 5 7 9 12 22 29 30 29 28 27 25 26 28 28 26 26 26 25 23 21 21 23 27 26 24 25 25
14 4 2 3 7 7 4 12 16 11 6 17 10 5 8 12 15 15 14 10 9 9 10 11 11 14 17 27 29 30 30 30 29 29 29 30 29 27 25 24 24 24 24 25 27 27 28 26 26
6 3 2 6 6 6 5 14 10 11 26 26 10 9 8 13 15 17 14 10 8 8 10 13 15 14 14 19 26 29 32 33 33 33 32 30 30 28 28 27 27 26 26 27 30 32 29 28 26
5 4 6 5 4 6 4 8 5 9 19 18 15 5 3 17 19 16 12 9 7 7 9 11 16 17 19 18 19 26 26 30 31 28 26 29 25 27 29 29 28 27 25 29 33 31 29 27 24
5 4 4 5 4 13 5 4 9 11 13 3 18 6 5 25 20 18 14 9 9 8 7 7 16 21 20 18 17 21 26 16 32 20 20 27 25 23 24 23 26 25 27 33 33 32 29 26 22
7 2 5 8 8 7 5 5 10 14 13 21 10 10 14 27 26 22 19 16 12 8 8 7 11 18 22 21 18 22 25 27 28 31 25 29 25 22 23 26 25 24 28 35 34 32 29 23 19
6 5 9 6 8 7 5 11 19 10 19 22 14 15 11 27 29 28 23 17 13 10 10 11 12 14 21 21 23 22 24 24 28 31 31 32 23 24 29 25 24 24 34 37 36 32 27 24 23
7 13 6 6 15 14 6 16 11 6 11 14 13 17 18 30 30 26 18 15 9 9 11 12 13 15 17 22 23 23 23 23 26 33 29 29 23 32 26 26 24 28 39 39 36 31 27 24 23
7 7 19 12 20 16 11 20 11 8 26 32 32 29 26 32 30 26 21 18 13 12 12 13 14 15 15 17 21 21 22 22 25 34 33 30 36 29 28 29 28 32 39 40 37 32 27 23 22
8 4 17 21 19 24 27 15 18 24 40 35 30 24 31 31 29 26 19 14 16 14 12 11 14 15 13 15 17 18 20 23 27 31 39 34 39 36 38 37 32 34 40 40 39 32 28 27 24
6 13 21 22 25 22 14 17 8 30 33 25 21 32 33 32 30 25 22 22 21 15 12 11 11 13 12 14 16 18 20 22 24 29 30 35 35 40 41 40 36 36 40 41 41 36 31 29 24
9 7 8 9 5 9 12 13 7 30 29 24 23 34 35 32 30 30 25 23 20 15 10 10 13 13 14 13 14 16 19 20 24 27 32 33 34 41 43 40 37 38 39 39 41 38 32 28 22
4 3 6 4 8 9 11 22 11 27 27 22 30 36 36 35 34 30 26 22 22 17 12 11 14 16 16 16 15 16 20 20 22 25 32 38 41 35 42 39 37 37 37 37 41 40 34 28 21
3 5 4 5 8 6 8 12 9 18 16 20 23 36 37 38 37 34 30 26 23 17 13 12 14 17 18 15 16 16 19 19 20 19 34 35 45 44 43 40 38 38 38 37 42 44 37 29 25
5 4 5 5 1 4 4 10 9 18 21 20 24 25 38 40 42 38 34 29 24 19 16 12 14 17 17 16 16 16 18 18 18 24 23 27 36 38 38 37 36 36 36 40 43 45 39 31 26
7 5 7 4 5 4 8 11 12 12 12 12 27 21 32 41 43 38 34 30 27 24 19 14 15 18 19 19 20 20 22 20 22 25 31 31 29 34 34 35 35 36 38 39 41 46 40 30 26
8 11 12 11 11 4 9 13 14 14 13 16 20 24 31 37 36 37 36 33 32 26 21 16 16 19 23 20 21 23 23 23 23 25 33 34 33 38 36 36 34 36 36 37 40 47 41 33 28
11 10 9 10 5 8 11 13 8 13 6 15 16 24 29 35 40 40 39 37 34 31 24 19 17 20 23 24 26 24 22 21 24 29 32 36 35 37 37 35 36 38 38 40 40 46 42 38 32
12 7 10 8 6 4 1 5 6 11 8 4 13 15 25 32 36 42 42 39 38 33 26 20 18 22 24 26 28 29 29 29 28 29 33 39 38 39 37 33 36 39 40 41 40 40 38 37 37
7 5 6 3 3 3 4 3 7 2 7 8 7 15 21 32 40 44 47 43 40 34 28 23 20 21 23 26 30 30 29 31 32 34 32 36 45 42 41 39 36 39 41 44 40 37 38 37 37
5 9 10 5 3 6 8 6 5 6 6 5 6 15 15 18 37 45 43 43 39 33 29 26 23 21 23 24 27 28 28 28 28 27 32 32 37 46 41 38 36 37 42 43 42 42 39 40 38
9 4 3 5 4 6 7 8 11 9 9 8 11 20 20 15 28 38 44 44 40 36 32 29 26 23 23 24 24 23 19 21 22 22 26 28 32 44 40 40 39 35 37 42 39 41 42 43 40
13 6 3 4 3 2 5 5 3 6 7 17 24 30 33 20 29 44 49 45 42 39 35 31 27 24 22 22 21 19 19 20 21 21 23 26 29 33 41 42 40 35 37 44 42 43 40 40 37
4 11 2 1 4 2 3 5 2 17 17 19 14 19 24 18 34 43 45 43 42 39 35 31 27 25 22 21 20 22 20 22 19 20 24 25 26 37 40 40 40 36 37 38 40 41 33 36 33
4 3 4 2 3 3 4 2 3 13 16 16 15 9 4 12 21 30 38 39 39 37 33 29 25 23 20 20 20 21 21 25 22 21 22 26 29 43 41 37 35 33 33 37 41 37 34 37 41
3 3 2 2 2 2 1 2 1 10 12 11 12 19 20 13 15 19 20 25 30 31 29 27 24 21 20 19 19 20 22 24 24 24 25 29 32 37 42 39 40 38 38 38 39 39 41 43 45
10 7 4 2 4 2 1 3 4 9 13 10 15 23 30 27 24 20 18 13 9 9 15 18 19 20 19 16 18 19 20 22 25 27 28 31 37 35 35 37 40 43 46 45 47 48 48 49 51

GFSSGP_850_spd_072.txt.gz
Wind_Speed
10 9 8 5 3 5 4 7 3 5 7 2 2 5 8 5 6 4 22 17 13 11 10 12 16 19 22 23 23 23 23 24 24 25 27 28 27 28 27 26 26 26 24 24 23 22 21 21 22
11 11 9 4 4 2 5 4 6 5 6 13 2 5 2 2 7 11 19 15 12 9 8 9 13 18 23 24 24 24 24 24 24 25 27 30 29 28 26 26 26 25 24 23 23 23 22 24 24
13 13 6 4 4 6 6 6 5 3 12 3 3 2 4 3 9 19 12 13 12 11 10 9 11 17 23 25 25 24 24 23 23 26 27 31 31 29 29 27 25 23 21 21 23 25 26 24 24
13 7 2 4 7 7 6 5 4 8 10 6 4 4 6 7 8 15 14 13 12 11 10 10 9 14 23 26 26 26 26 24 25 25 30 33 32 32 30 28 25 22 21 21 23 26 26 23 24
14 4 2 2 5 6 5 13 4 7 4 12 9 5 5 10 11 16 16 14 12 11 9 8 8 13 19 26 27 27 26 26 26 27 29 31 31 31 30 29 26 24 24 23 24 25 25 22 24
5 3 2 6 4 6 7 13 4 6 10 21 7 13 9 12 14 16 16 13 12 9 9 9 11 15 17 22 27 26 26 27 26 28 31 32 28 27 27 28 26 23 24 27 27 26 25 24 24
6 4 5 5 4 5 9 10 6 5 6 8 9 7 7 14 18 17 15 13 12 11 10 8 12 17 16 16 20 23 24 23 24 26 26 29 25 26 21 20 24 27 28 27 27 28 28 25 24
5 4 4 6 5 7 5 2 2 3 5 11 3 4 6 19 22 19 16 15 14 13 10 8 10 17 18 17 18 22 25 27 26 24 25 21 24 25 24 25 27 27 27 27 29 30 28 26 23
6 1 4 7 8 6 2 2 2 7 7 22 8 14 6 9 26 24 22 20 19 15 12 9 9 17 17 14 15 19 22 24 25 28 32 26 32 23 27 26 24 27 26 28 31 30 28 25 22
5 5 7 6 6 4 4 5 11 7 12 18 18 10 13 9 32 29 27 26 21 17 12 10 10 13 16 16 18 18 18 20 20 35 29 26 24 26 30 28 23 25 24 31 30 29 27 24 21
5 7 3 4 12 9 4 9 6 5 8 14 13 25 24 15 31 31 28 25 19 15 13 10 12 14 16 19 20 23 22 23 27 33 31 40 32 28 27 27 26 25 25 33 33 31 27 24 21
5 7 11 8 18 10 7 13 8 14 21 31 28 30 29 22 33 34 29 26 22 18 13 12 12 15 16 17 21 22 24 25 23 24 34 36 37 34 31 33 30 27 30 37 37 33 28 23 22
7 4 9 14 18 18 21 11 17 13 32 32 29 26 28 20 30 38 29 24 21 20 16 12 12 15 15 15 18 21 23 22 21 25 30 40 36 36 29 36 31 30 33 40 37 31 27 24 23
7 9 17 20 24 21 16 19 9 23 31 28 26 27 27 24 31 38 32 29 26 22 17 13 13 13 14 13 16 19 19 20 20 25 32 36 36 32 40 36 33 32 38 40 36 32 28 25 25
9 8 8 7 7 8 13 10 10 30 25 27 25 27 25 25 32 39 32 30 27 22 16 15 14 12 11 12 15 17 19 20 22 30 33 36 36 34 34 34 35 34 41 40 35 31 29 27 26
4 3 5 4 8 8 13 21 11 22 22 26 26 27 27 30 35 38 35 31 26 22 19 15 14 13 13 16 14 15 18 20 21 24 30 36 37 36 36 37 37 35 42 41 37 33 30 29 24
2 8 7 5 6 6 8 9 4 8 11 14 18 22 27 33 38 40 37 33 27 23 18 17 15 15 16 16 17 16 16 17 18 22 26 30 35 38 37 41 38 34 40 41 38 34 32 29 26
4 5 6 4 3 1 5 10 7 10 14 18 23 25 25 29 38 42 39 35 28 25 20 18 15 16 17 17 15 16 15 17 17 16 21 27 37 36 40 35 36 34 40 42 40 38 34 31 25
4 7 11 4 7 5 8 9 11 8 14 15 24 23 28 27 27 41 42 34 30 27 24 20 18 17 19 20 20 19 15 16 15 11 11 25 43 43 34 34 36 36 42 44 43 40 36 29 26
8 9 11 6 9 10 9 11 11 10 9 21 23 26 28 27 29 35 40 36 33 32 27 23 19 17 20 20 19 19 18 17 14 14 16 20 20 27 25 30 33 36 37 40 42 42 39 33 29
9 11 7 9 10 10 5 16 15 11 10 19 19 26 24 26 32 36 36 36 37 37 31 25 20 17 19 21 19 18 18 17 15 16 22 24 28 28 32 31 33 33 37 40 43 46 46 42 33
8 7 11 9 7 5 4 7 7 8 9 7 16 22 21 23 28 32 34 36 41 38 33 26 21 18 18 23 20 19 18 20 20 20 21 25 31 27 33 35 37 31 34 35 40 43 43 41 37
6 3 6 5 5 3 2 5 4 6 7 8 8 21 18 12 16 28 34 37 41 38 33 28 22 18 19 22 22 20 21 18 18 19 21 27 28 30 27 33 36 36 36 37 37 39 45 39 38
5 4 6 4 2 6 7 7 4 5 7 5 4 11 13 13 13 21 28 34 38 37 33 30 25 19 18 21 23 24 22 23 22 21 22 25 26 30 31 28 38 33 34 37 37 35 40 42 37
2 2 2 3 3 4 4 7 10 9 9 5 10 18 19 13 13 24 32 36 40 39 35 32 26 20 18 19 21 23 23 24 23 23 25 23 24 28 33 35 34 32 31 36 37 39 36 39 40
6 6 3 3 3 2 1 5 3 5 6 12 13 22 14 14 17 27 32 37 41 39 36 32 27 21 17 16 17 19 19 19 18 16 17 20 22 28 24 37 36 34 33 35 41 39 40 39 38
1 7 4 4 3 2 3 6 4 15 16 17 19 24 22 12 17 28 33 35 39 39 36 32 26 20 16 14 15 16 16 17 14 12 12 13 17 19 24 26 38 34 34 32 37 41 44 47 45
2 2 2 3 3 4 5 1 3 11 13 12 14 15 18 7 2 16 24 27 30 31 32 30 23 16 13 11 11 11 13 14 15 14 13 13 15 19 21 21 33 33 32 31 35 38 39 39 43
4 2 1 3 3 3 2 1 4 10 13 11 13 22 24 18 12 11 15 19 21 24 25 24 20 16 14 10 10 10 10 12 13 16 14 14 15 18 22 23 28 29 31 32 34 35 38 41 44
3 5 5 3 2 3 1 3 3 8 13 13 16 22 26 30 26 21 16 16 17 17 16 15 14 13 11 9 8 9 8 10 11 15 15 15 15 16 21 26 28 29 30 30 32 33 35 38 38

GFSSGP_850_spd_078.txt.gz
Wind_Speed
16 13 7 5 7 6 13 9 8 7 5 3 1 8 7 6 6 2 1 11 12 16 11 9 5 7 10 14 17 21 23 23 23 25 26 26 25 23 23 24 25 23 21 20 21 20 18 18 16
14 13 8 6 9 14 11 9 12 9 1 6 7 11 11 11 7 2 8 14 16 14 12 8 7 8 9 14 16 19 21 22 23 26 28 28 27 26 25 26 26 25 23 22 23 21 19 17 17
16 14 9 5 13 18 14 10 9 5 0 2 5 5 4 3 5 4 7 18 17 14 12 9 9 10 12 15 17 19 21 22 23 27 30 30 29 28 27 28 28 27 25 23 23 20 18 17 20
13 10 7 11 19 10 18 10 6 7 4 2 3 8 6 7 1 7 15 20 17 15 13 11 10 10 13 16 18 20 21 21 23 26 30 31 31 30 30 29 28 26 26 23 22 20 18 20 21
13 9 12 15 22 20 12 12 6 9 6 7 10 9 10 7 7 11 18 20 18 18 15 13 12 11 13 15 19 21 22 22 22 25 29 31 32 32 30 31 28 26 25 23 22 21 19 21 22
13 10 12 18 21 15 19 18 13 14 16 15 11 10 11 9 10 14 19 23 20 17 14 14 14 12 12 16 19 22 22 22 23 23 26 31 30 31 32 29 27 24 22 22 23 21 21 23 22
18 11 20 22 19 11 16 20 15 18 18 18 3 5 7 6 8 11 22 23 21 18 16 16 16 13 13 14 18 21 21 21 21 21 22 25 22 28 30 27 24 21 21 23 21 20 22 24 22
17 11 23 19 14 19 19 15 15 15 17 3 5 4 5 8 8 14 17 20 22 20 19 19 16 14 13 15 16 19 21 20 20 21 22 21 28 32 27 21 23 20 22 21 21 21 23 24 23
14 11 17 20 14 15 11 15 17 14 16 16 12 9 7 10 7 12 16 19 19 23 22 20 17 15 13 14 15 17 20 21 21 23 23 23 24 27 18 19 26 22 17 20 21 23 24 23 23
15 15 23 19 13 14 14 17 17 10 13 14 16 13 8 9 7 12 19 21 20 20 22 20 17 15 13 17 19 17 17 21 23 26 25 24 24 30 26 27 29 25 25 21 21 23 23 23 22
13 22 17 12 16 20 18 19 21 17 19 17 21 19 14 13 12 13 22 23 21 18 18 19 17 15 14 19 19 17 16 19 24 25 24 24 26 28 28 27 27 26 27 23 22 24 24 22 20
15 16 20 20 19 20 18 22 24 24 22 22 25 24 21 19 19 18 21 24 23 21 19 20 18 14 15 17 20 21 20 17 21 22 25 26 29 29 29 28 30 29 30 30 28 29 26 22 19
17 19 21 21 24 27 27 26 28 28 24 27 26 24 23 23 21 20 21 21 23 23 20 21 18 16 16 17 21 22 22 22 21 21 21 24 31 30 26 26 29 27 33 32 31 27 27 22 18
4 9 15 16 19 23 21 24 26 21 24 25 25 23 24 24 23 19 19 22 26 24 22 21 20 18 17 18 21 21 22 23 23 22 21 25 33 36 28 28 25 28 31 33 28 27 25 19 18
12 14 15 18 21 19 19 22 24 28 27 26 26 23 25 24 22 21 19 21 25 25 23 25 21 19 18 17 20 21 21 23 24 22 22 25 28 32 32 32 26 30 32 33 28 25 23 21 19
10 12 15 6 5 9 11 16 13 15 17 19 19 20 22 23 21 20 19 18 23 25 25 25 22 21 18 17 19 18 17 19 23 24 24 28 28 32 34 36 32 33 35 34 29 26 22 21 19
10 10 11 11 11 13 12 12 8 6 11 14 17 18 19 19 18 17 15 17 21 25 26 26 23 22 18 17 18 17 17 20 23 24 24 22 26 33 33 37 34 33 35 35 28 24 23 21 20
7 10 11 10 4 14 19 19 15 18 17 18 18 17 17 19 20 15 12 16 20 23 25 26 24 23 19 18 19 17 18 19 19 22 21 25 22 29 35 38 40 39 33 33 29 27 24 22 21
14 13 17 16 16 19 21 22 20 19 22 19 21 22 21 22 20 17 13 16 19 24 26 27 27 25 22 20 20 20 19 18 18 18 21 19 25 32 32 40 41 38 38 37 35 27 26 23 23
16 15 16 16 12 12 19 22 18 17 19 27 25 23 24 21 21 20 15 18 22 26 27 29 29 27 23 21 19 19 19 16 16 17 18 20 18 25 43 38 38 39 42 36 38 32 27 25 25
14 14 12 13 14 19 21 23 17 17 28 30 27 28 26 25 22 23 18 19 21 26 29 30 29 26 24 18 17 17 17 19 18 20 18 17 21 22 31 37 37 38 40 38 42 37 31 28 27
10 3 6 9 9 9 6 7 12 10 12 18 24 25 25 26 24 23 19 20 24 25 25 27 25 26 22 20 17 19 20 21 18 18 17 16 14 12 23 42 41 37 36 38 36 33 35 30 29
9 3 7 10 12 14 13 8 3 7 7 13 16 23 25 24 24 23 21 20 22 25 27 27 26 26 22 20 17 16 18 18 17 19 17 16 12 8 27 38 35 32 38 36 34 34 34 31 27
3 8 12 12 9 8 12 11 4 3 7 5 7 4 7 11 13 16 17 18 22 25 27 28 28 27 24 20 18 20 19 17 14 19 19 17 17 14 16 24 21 30 34 35 37 37 40 37 29
10 8 5 7 5 6 1 6 12 11 11 12 9 12 10 9 8 10 16 19 24 27 30 32 29 28 26 21 18 20 17 18 16 14 17 18 17 20 22 25 29 31 32 33 32 34 37 40 36
10 11 6 6 4 6 3 7 2 5 4 6 8 12 13 10 8 8 11 17 21 24 28 33 29 28 26 21 20 21 19 18 17 16 15 15 18 19 19 22 27 31 33 32 32 34 34 35 38
6 7 4 6 13 7 8 9 6 3 6 9 12 14 17 18 14 5 10 15 20 23 27 31 31 29 25 21 19 20 20 19 19 18 18 18 18 18 20 18 25 26 33 35 32 35 34 36 34
7 2 3 5 4 5 4 7 1 11 12 12 12 15 17 18 14 4 8 13 17 20 23 28 28 26 25 21 21 17 18 19 18 17 17 15 15 15 16 20 22 23 25 29 37 40 38 37 38
7 7 3 2 5 4 5 2 6 7 9 11 12 15 16 17 15 6 7 10 16 17 21 28 23 23 22 21 20 17 15 16 18 15 14 15 14 14 14 17 20 22 21 28 28 34 36 39 42
10 8 8 4 4 2 3 2 7 8 10 10 12 14 14 13 14 15 13 11 15 15 19 23 19 19 17 21 21 19 17 15 13 14 14 13 12 12 15 16 19 20 20 23 29 31 32 29 32

GFSSGP_850_spd_081.txt.gz
Wind_Speed
17 13 6 10 8 9 18 18 16 6 7 9 3 8 8 17 4 2 2 5 11 13 12 9 7 7 9 12 15 17 18 18 18 19 20 20 20 20 19 18 19 20 20 20 19 18 18 18 16
15 11 12 12 10 15 15 17 14 9 12 4 7 9 12 13 10 2 4 6 11 13 11 11 9 8 8 10 14 16 18 19 19 19 21 21 23 23 21 21 22 22 20 19 20 20 19 17 15
16 16 16 7 17 20 18 18 9 9 2 7 9 8 8 8 7 4 6 13 14 14 12 11 10 7 6 8 12 16 18 19 20 20 22 23 25 25 23 23 24 23 21 19 19 21 19 17 15
14 16 16 15 24 19 21 17 12 6 8 10 9 3 8 9 1 7 10 15 15 14 12 11 10 9 8 9 11 14 17 19 20 21 23 25 27 27 26 25 26 24 21 21 21 20 17 16 16
19 15 13 19 25 25 22 15 8 10 14 9 5 10 11 7 10 7 13 16 15 14 13 14 11 11 9 10 13 15 17 19 20 21 23 26 28 28 28 27 29 26 24 23 22 18 15 17 19
17 22 17 20 25 24 18 17 18 15 17 16 15 15 11 9 8 9 14 16 15 15 15 15 15 13 10 11 14 16 18 18 18 17 20 23 25 27 28 28 27 24 23 20 20 17 16 19 20
19 15 22 26 25 23 14 13 20 22 20 22 20 7 14 5 6 7 13 17 15 16 16 16 16 15 12 12 15 17 18 17 17 16 19 19 22 24 23 27 24 23 22 22 20 19 18 20 20
25 16 28 24 21 26 16 13 24 23 21 22 15 10 20 3 1 9 14 18 17 17 17 18 17 15 14 14 15 17 18 18 18 17 18 21 21 21 23 15 14 25 19 19 20 17 19 22 22
21 17 21 26 24 23 10 16 24 20 22 22 15 18 10 3 3 6 15 19 19 16 15 20 18 15 14 13 12 15 18 20 20 19 20 21 22 26 26 24 24 20 16 16 16 16 20 23 22
20 16 28 22 21 17 12 19 17 17 15 21 21 21 15 10 9 9 17 21 23 19 17 18 19 17 14 11 14 12 14 20 22 19 21 22 23 22 28 21 17 18 20 20 14 16 20 23 23
24 25 22 23 19 15 20 20 25 21 20 18 18 19 20 15 13 13 15 23 24 21 18 18 18 17 16 12 15 11 13 14 18 19 20 22 22 21 21 27 22 28 29 27 28 23 21 24 23
23 26 25 22 27 23 18 26 26 26 25 25 24 22 25 18 20 19 18 21 25 23 21 18 16 15 14 13 16 13 14 16 16 21 20 21 22 23 24 23 27 31 31 28 29 24 25 24 21
23 22 26 27 26 23 26 25 28 34 30 29 27 29 29 27 24 23 21 20 24 26 24 21 20 18 16 15 15 19 15 13 16 18 21 20 21 24 28 26 29 30 29 30 32 28 29 24 21
19 16 20 23 26 23 23 25 30 35 33 33 33 33 30 27 27 27 25 23 23 27 25 23 22 21 18 16 18 20 21 20 22 18 18 21 19 22 26 28 30 32 31 28 32 32 31 25 23
21 21 21 22 23 23 27 26 27 33 34 31 31 29 29 28 28 30 27 25 25 27 26 25 22 20 17 17 17 21 22 22 21 22 21 22 21 21 25 26 28 29 26 30 32 30 27 24 22
17 19 19 17 18 13 17 21 19 19 24 27 28 27 29 27 30 31 29 26 24 26 28 26 23 22 19 15 18 18 21 21 23 21 22 21 21 24 28 27 26 26 19 27 30 28 27 26 22
15 16 17 15 9 12 17 19 16 12 16 20 20 22 24 26 27 30 28 25 23 26 28 28 25 22 21 19 18 16 18 18 19 23 22 21 21 22 25 28 29 29 22 29 33 27 26 24 24
12 17 18 13 6 10 16 20 20 26 26 22 20 21 24 25 24 26 27 23 22 25 27 27 23 21 21 20 17 16 18 19 19 21 21 21 21 23 27 28 34 31 25 30 36 29 24 24 24
19 19 21 18 17 19 21 23 22 24 29 24 25 24 24 21 19 22 26 17 21 25 27 28 25 24 22 20 19 18 21 17 19 20 20 23 21 22 24 32 31 33 33 31 38 30 27 27 26
17 19 20 20 17 15 22 23 20 22 23 29 29 28 28 24 23 25 24 20 22 26 28 27 26 26 23 20 17 17 19 14 16 17 16 18 21 20 18 35 31 32 34 36 36 34 29 27 28
18 18 18 19 17 19 22 24 24 23 29 33 31 31 30 25 25 25 27 22 23 26 28 28 26 25 24 19 17 16 13 17 16 16 15 17 17 16 19 22 28 33 33 38 37 32 32 30 27
17 17 12 13 14 13 18 15 19 17 14 15 21 29 25 26 24 24 26 27 25 26 26 27 26 25 23 22 17 16 18 18 15 14 15 18 18 18 20 25 42 41 38 40 43 38 34 31 32
14 8 11 16 16 18 21 13 15 7 12 9 9 14 25 26 25 27 27 28 26 25 27 28 26 24 23 23 17 17 15 15 13 12 15 17 18 15 15 19 39 37 37 37 42 42 36 30 30
14 8 17 20 15 14 21 17 12 5 9 10 8 7 11 19 24 25 25 29 25 25 27 28 28 27 24 23 19 17 17 16 15 14 17 17 16 12 10 17 33 30 37 35 35 38 36 32 27
9 10 7 9 10 11 7 4 12 3 9 4 6 8 11 10 11 12 16 19 19 27 30 29 29 28 26 23 19 17 16 16 14 13 16 15 15 14 8 14 29 31 36 32 35 35 32 32 30
12 13 8 7 6 12 7 6 4 11 5 3 5 10 12 16 17 10 19 20 23 27 29 29 30 29 27 23 19 17 15 15 14 12 11 14 16 14 15 15 18 21 27 33 33 35 34 32 33
6 10 16 15 18 12 10 15 14 13 11 11 12 13 14 14 16 18 8 14 20 24 28 29 28 30 27 22 18 19 19 16 14 14 11 11 12 14 15 18 20 20 24 30 31 32 32 31 33
14 4 5 6 5 9 12 14 7 11 13 14 14 15 17 19 20 22 4 9 16 21 22 30 25 29 24 21 19 19 17 14 14 14 16 16 12 14 16 17 20 20 28 29 30 29 30 30 32
10 12 8 5 6 4 6 4 6 11 12 12 12 15 16 19 20 21 14 2 14 16 16 27 25 25 24 23 17 17 18 15 15 14 13 11 11 13 12 15 17 17 20 26 32 33 32 34 35
9 13 13 6 7 5 5 1 7 8 6 8 12 13 14 15 17 15 11 11 9 11 16 25 19 21 22 20 19 17 15 15 14 13 10 12 11 10 12 13 14 18 18 16 24 31 34 37 36

GFSSGP_850_spd_084.txt.gz
Wind_Speed
13 11 5 10 7 8 16 19 20 18 12 5 2 4 12 15 12 3 9 11 13 9 9 13 10 8 7 8 9 10 11 12 13 14 14 13 13 13 12 11 13 15 16 15 16 17 18 17 15
12 9 9 10 9 14 14 21 20 16 3 11 6 3 13 10 6 13 12 13 12 8 13 11 11 9 8 8 9 11 12 13 14 15 15 15 15 15 14 15 16 16 16 16 16 15 15 15 15
14 12 12 5 13 17 18 23 22 16 11 6 3 11 9 6 12 6 12 15 13 8 13 12 10 9 7 6 8 11 13 14 15 16 16 17 16 16 17 17 17 18 19 17 16 16 16 16 13
12 9 13 13 22 20 24 21 22 20 7 5 7 11 5 9 3 3 9 15 14 10 10 12 10 8 7 5 6 9 12 14 15 16 17 19 18 18 19 19 19 21 20 18 18 18 15 14 12
18 13 11 17 24 25 22 29 24 19 13 8 12 12 9 9 10 5 7 15 16 15 13 12 12 10 8 7 8 10 12 14 15 15 17 19 20 20 20 21 22 24 22 21 22 19 16 14 14
15 22 14 18 24 25 23 29 25 20 12 16 10 8 11 12 6 13 12 16 17 17 16 15 15 12 11 9 9 11 13 14 15 15 16 17 19 19 19 20 23 26 23 21 20 18 16 15 17
18 13 20 24 23 24 22 28 17 17 16 16 20 16 15 6 9 8 16 18 17 18 18 16 17 15 13 10 10 12 13 13 14 13 14 15 17 18 22 25 24 17 14 22 19 18 15 17 19
25 14 27 21 20 26 22 25 11 12 20 24 20 16 15 9 7 12 12 17 16 19 19 19 18 17 14 11 11 12 13 14 14 15 15 16 15 18 21 21 21 16 19 20 18 16 15 18 20
25 15 19 25 25 23 29 21 23 15 23 21 20 14 12 11 6 5 13 16 20 20 18 22 19 17 15 12 12 12 13 15 16 17 17 17 17 18 19 20 19 18 16 20 17 17 15 17 20
19 17 26 24 23 22 26 25 18 19 19 20 20 16 20 11 8 8 13 20 23 23 20 23 21 19 15 13 12 10 12 15 17 17 18 18 19 19 22 21 19 23 9 18 16 16 14 19 22
27 24 22 27 31 32 26 21 20 21 17 20 17 23 25 19 17 15 15 19 25 25 20 20 19 20 18 14 13 9 7 9 13 17 17 19 20 22 21 21 21 18 18 27 23 17 17 21 23
25 30 31 29 32 31 24 30 19 27 27 27 25 23 19 21 21 22 18 20 24 30 25 23 23 18 20 16 16 10 7 10 11 13 19 19 21 20 21 21 27 20 25 27 28 22 22 23 24
24 24 31 29 31 33 29 25 24 32 30 30 29 28 25 24 28 21 21 24 23 28 30 27 25 19 18 19 16 12 14 12 13 17 18 21 20 21 21 22 27 26 26 30 33 27 25 27 25
23 24 24 24 26 29 24 26 28 32 33 35 34 34 32 30 33 29 25 29 28 27 30 31 26 21 23 23 18 15 22 12 15 19 16 20 20 21 22 24 23 25 27 28 28 24 25 27 27
23 21 20 22 26 26 29 27 26 34 33 36 34 33 34 35 34 34 31 36 31 28 27 33 29 30 31 22 17 15 18 25 23 21 17 17 19 20 21 25 25 26 27 26 25 26 29 28 29
19 19 18 18 23 26 27 26 24 31 29 30 34 31 31 31 32 34 32 37 32 31 30 33 32 34 28 20 17 17 16 18 23 20 18 19 21 21 21 24 25 27 27 23 25 27 31 33 30
15 18 21 23 24 20 13 21 20 24 22 18 18 19 26 30 31 33 30 37 35 28 34 35 34 33 25 18 21 16 16 17 20 21 19 20 21 21 23 23 24 25 26 27 25 26 29 32 31
15 17 18 19 14 14 17 20 20 24 25 25 26 25 19 21 22 28 33 36 38 30 32 37 35 33 27 25 24 18 16 18 20 19 19 19 23 21 22 24 25 25 24 22 19 24 29 29 29
17 19 20 22 20 19 20 22 22 22 25 22 27 29 23 26 25 30 29 32 33 27 33 35 36 35 27 31 24 21 19 19 18 20 20 21 21 20 21 23 25 24 28 25 19 30 31 31 31
16 19 20 19 21 20 22 24 21 20 23 27 26 27 28 23 29 23 21 23 26 24 32 34 35 31 31 31 22 20 16 13 16 17 19 20 21 21 21 22 25 25 30 27 23 27 34 26 30
17 18 18 22 20 21 20 26 24 23 30 36 31 27 29 24 28 27 25 23 27 23 34 35 34 30 32 24 21 21 19 17 15 15 14 17 18 22 21 24 23 27 30 31 28 38 36 34 29
17 17 19 17 16 14 16 16 21 20 18 13 20 30 28 28 33 29 26 29 29 30 29 33 32 31 31 26 24 24 20 22 19 16 15 16 17 17 17 21 21 25 25 30 32 40 36 33 31
18 17 15 13 16 19 20 14 16 21 20 18 10 16 20 28 23 22 26 27 30 32 31 33 34 31 32 28 26 24 18 15 12 11 15 16 17 18 17 16 21 25 26 27 31 42 42 39 33
9 13 16 15 14 13 22 17 17 15 7 12 13 18 18 6 17 19 24 26 29 33 33 35 35 30 28 30 25 18 12 16 14 17 19 20 20 18 17 16 20 25 32 30 27 41 40 39 34
10 11 8 11 10 13 14 10 17 11 3 4 9 20 21 26 29 25 19 30 29 38 37 36 33 30 29 27 25 19 19 19 14 17 18 18 17 18 15 14 13 16 35 35 29 43 40 39 34
14 13 8 9 7 11 6 7 1 13 16 27 29 25 22 25 27 27 31 21 16 37 36 36 32 30 30 26 26 20 19 17 17 16 14 16 13 15 12 10 10 22 24 25 30 32 44 38 31
10 12 14 18 17 14 11 15 7 22 18 17 19 20 22 25 25 27 28 21 7 32 34 32 31 31 28 28 24 21 19 14 15 14 13 12 13 13 10 8 12 16 19 27 30 28 40 36 31
15 7 5 3 4 8 8 6 6 12 13 11 12 14 15 19 20 22 25 28 7 20 25 26 28 33 27 24 22 19 21 17 17 16 13 11 9 10 12 13 15 16 19 24 31 35 35 33 29
13 13 12 5 8 3 4 3 1 4 3 8 8 11 9 12 16 18 20 21 17 5 17 23 19 28 30 21 23 22 18 16 14 14 14 14 10 9 9 12 14 17 17 20 24 26 29 31 32
20 15 16 8 7 6 9 3 7 7 5 3 8 11 9 10 14 15 15 17 13 12 8 11 15 23 31 16 21 19 18 17 14 13 12 13 12 10 9 9 11 16 18 22 26 27 29 27 28

GFSSGP_850_spd_087.txt.gz
Wind_Speed
8 8 6 2 3 4 4 8 15 21 13 3 10 11 6 4 3 3 8 10 20 12 16 18 15 12 10 8 8 9 11 12 12 13 13 12 12 12 11 11 12 14 15 16 16 17 17 16 14
8 10 4 5 4 2 6 16 20 19 14 6 10 7 7 3 8 15 14 15 11 11 16 17 14 11 10 9 9 9 11 12 12 13 13 13 12 13 13 13 12 14 15 16 16 16 17 15 13
10 13 3 4 4 10 6 11 17 20 30 4 2 4 2 4 13 17 15 16 14 14 16 14 12 11 10 8 7 8 9 11 12 13 13 13 13 12 13 13 13 15 16 16 16 17 16 16 15
11 7 7 2 10 10 15 15 14 16 9 3 3 1 6 10 10 17 20 14 12 14 15 15 13 12 10 9 8 8 9 10 11 13 14 15 14 14 14 14 15 15 17 16 17 16 16 17 16
14 6 4 6 14 8 16 25 31 19 12 8 9 4 2 10 8 17 18 15 14 15 17 16 15 13 11 9 8 8 8 9 11 12 14 15 15 15 16 15 16 17 18 17 18 18 18 17 16
7 6 2 13 14 13 15 29 27 20 25 11 8 7 3 4 15 17 21 20 15 15 16 15 16 14 13 10 9 8 8 10 11 13 14 16 16 17 16 17 17 16 15 16 16 18 18 18 19
6 3 7 9 10 15 18 29 7 11 21 10 10 6 11 5 16 19 22 22 19 18 18 17 18 16 15 12 10 9 9 10 11 12 14 15 15 18 18 21 21 22 15 18 17 20 18 19 22
14 3 8 9 11 18 20 26 29 21 9 10 6 1 4 13 18 20 22 22 22 21 20 18 20 19 16 13 11 9 9 11 12 13 14 16 17 17 19 23 22 21 16 24 21 23 20 21 23
25 7 12 14 17 17 25 19 34 29 18 15 12 10 4 12 16 22 22 23 22 21 22 22 19 20 18 16 14 11 10 12 13 14 15 17 17 16 19 20 20 18 14 17 21 22 21 21 23
7 10 15 9 13 16 25 19 23 25 17 15 8 10 9 14 16 17 18 19 25 23 24 25 23 20 20 18 15 11 11 12 12 14 15 17 16 17 18 17 16 14 12 11 22 24 21 23 25
7 15 13 17 25 28 22 25 25 14 13 18 15 20 17 14 16 18 21 17 22 25 28 27 25 21 20 20 16 11 9 11 12 13 15 17 17 18 19 16 18 20 20 17 18 22 21 23 26
14 20 26 27 33 32 22 28 20 21 18 31 28 25 24 21 21 24 23 23 21 30 32 30 27 23 21 21 18 12 10 10 8 8 14 18 17 18 19 18 21 24 23 19 24 20 23 25 26
15 15 24 26 28 25 28 19 21 23 31 32 35 36 32 28 24 20 23 25 20 26 35 33 30 24 21 24 21 14 13 11 7 9 12 16 16 15 17 19 21 25 23 22 31 25 23 26 27
18 18 18 19 20 19 12 10 17 26 26 34 35 38 40 39 33 27 22 26 26 25 30 37 34 27 23 24 25 19 18 14 14 14 15 16 16 16 18 20 23 27 26 22 27 28 25 22 25
15 9 11 8 14 14 22 18 19 32 33 36 37 40 39 39 39 39 31 34 27 29 31 37 36 31 27 25 27 20 22 20 20 18 17 16 15 17 19 21 24 27 29 25 26 28 25 24 26
7 7 7 5 10 20 14 20 22 36 33 33 38 43 41 44 42 38 38 35 38 36 39 36 41 37 32 26 25 23 29 24 22 21 19 17 15 16 19 21 23 25 25 26 26 27 25 28 28
5 8 11 18 14 16 11 16 12 29 20 16 21 21 20 32 41 39 38 38 39 36 38 40 42 41 36 26 24 25 27 30 27 22 22 21 18 21 22 22 23 25 24 24 24 26 28 29 29
6 7 8 7 7 14 12 10 12 20 24 21 24 33 31 32 27 35 39 38 35 38 40 42 44 43 34 28 28 26 23 22 25 23 22 17 19 22 24 25 23 26 24 26 26 26 26 29 33
16 16 15 12 12 10 15 15 15 18 26 24 29 36 33 37 37 29 21 38 39 39 37 41 48 44 36 32 32 29 27 25 22 20 19 18 21 24 24 26 25 24 26 27 28 25 26 24 41
17 13 8 8 9 12 15 14 11 13 18 21 28 35 34 35 36 32 29 25 33 35 29 42 48 45 38 33 30 28 27 23 17 18 19 20 23 26 24 25 26 27 24 27 29 24 22 29 37
9 6 8 13 13 14 12 21 10 14 18 28 31 39 35 33 33 33 29 28 23 38 35 45 48 43 37 31 25 27 22 17 18 21 21 20 22 24 24 25 25 23 23 26 29 25 28 35 40
11 8 14 14 12 9 3 16 15 17 20 21 20 31 32 33 33 31 28 27 20 29 40 44 43 39 33 29 29 32 29 27 22 17 14 17 20 21 24 23 24 23 22 25 30 29 40 42 44
13 9 8 7 13 9 13 10 13 16 20 17 13 37 11 27 17 21 25 28 21 34 41 40 39 37 31 28 30 31 28 23 19 16 15 17 18 18 22 23 23 26 24 30 31 36 32 40 44
6 5 7 8 7 9 19 5 8 8 8 5 11 21 25 26 11 8 7 7 13 34 42 41 37 33 31 28 30 29 27 25 21 19 16 19 19 21 20 20 20 23 25 27 30 33 34 44 40
4 2 3 3 3 8 5 6 2 22 16 16 15 21 23 29 24 19 19 13 1 20 45 43 41 36 32 30 31 28 22 22 17 18 19 20 22 22 21 19 20 22 24 29 32 37 46 45 43
7 8 4 4 3 10 17 4 2 6 21 22 16 15 23 30 28 24 23 20 8 21 42 43 38 36 33 30 31 26 21 21 18 15 18 17 18 19 19 18 20 22 23 33 32 29 43 44 40
4 6 14 11 10 8 6 7 10 9 10 13 21 24 27 31 30 27 26 25 15 15 43 43 38 33 33 28 25 24 22 24 18 19 17 11 13 15 18 17 15 14 11 22 34 29 29 44 43
8 4 3 2 4 5 5 2 2 11 7 9 11 16 22 27 28 25 25 25 19 7 19 33 32 29 29 25 26 25 24 21 18 15 15 12 13 15 15 13 12 12 14 16 20 31 35 39 40
5 6 4 4 5 3 4 2 3 7 8 5 8 16 21 22 23 23 23 21 21 15 12 8 16 24 25 27 27 24 20 20 20 17 15 12 13 12 12 12 13 14 16 15 21 26 29 42 40
17 10 5 7 6 5 0 1 5 10 7 6 11 12 18 20 21 22 21 19 19 16 9 13 21 19 28 27 22 21 24 21 18 16 16 14 11 10 10 11 13 14 14 16 18 30 29 32 35

GFSSGP_850_spd_090.txt.gz
Wind_Speed
5 6 5 3 3 4 4 10 4 12 5 4 12 5 6 6 4 5 24 16 16 16 19 21 20 17 16 14 13 14 15 16 16 16 15 14 14 14 13 13 13 14 14 16 18 19 19 17 15
4 9 6 2 4 3 6 5 9 16 8 22 32 11 4 4 8 12 22 21 18 15 17 19 19 17 16 14 14 14 15 16 16 17 16 15 14 14 14 13 12 14 15 16 17 18 18 16 15
6 12 5 4 5 8 5 6 14 8 16 24 7 6 4 3 8 21 16 23 23 17 19 20 18 17 15 14 14 13 14 15 16 17 17 16 15 14 14 12 13 14 15 16 17 19 19 17 15
9 7 2 2 11 7 5 9 2 11 25 25 20 5 4 7 16 18 18 21 19 19 21 20 19 17 15 14 13 13 13 14 15 16 17 17 16 15 14 14 14 14 16 15 16 17 17 17 16
12 3 2 4 7 7 7 22 21 14 9 22 20 7 5 16 13 18 22 20 20 21 21 20 19 17 16 14 13 12 12 13 14 16 17 18 17 16 15 14 14 15 15 14 14 12 14 17 18
6 2 1 9 11 4 8 22 16 17 25 23 15 12 7 17 19 21 24 23 18 18 22 21 19 18 16 14 13 11 11 12 13 15 17 18 18 17 16 16 16 16 17 17 18 18 15 18 21
6 4 5 4 3 5 12 4 5 13 17 16 20 8 5 24 20 24 26 26 20 19 22 20 20 19 17 15 13 11 11 11 12 15 17 18 19 19 18 19 20 20 20 20 18 18 18 20 22
6 3 4 4 7 7 12 17 15 18 16 26 17 4 3 23 27 30 30 28 24 22 22 21 21 20 19 18 15 13 12 12 12 15 17 18 20 20 21 20 22 22 20 18 23 24 30 26 25
6 3 4 5 6 9 25 16 28 17 13 28 23 23 6 18 32 33 32 30 26 22 22 23 22 23 21 19 17 15 13 13 13 15 15 17 19 20 19 20 21 23 16 15 21 25 32 25 26
6 5 7 8 8 8 18 22 32 15 14 17 27 22 3 16 32 33 32 30 27 23 22 23 23 24 24 22 19 17 15 14 13 15 16 17 18 19 18 18 17 18 16 14 19 26 19 29 26
5 10 5 9 20 25 19 24 32 21 12 14 20 25 17 11 19 28 30 30 29 25 23 22 22 23 24 24 22 19 17 15 15 16 16 17 18 18 19 18 20 22 20 20 20 16 17 32 28
6 13 16 17 29 25 18 34 26 23 22 26 26 27 26 21 18 25 29 30 29 31 28 25 24 24 23 24 24 20 17 15 16 16 18 18 18 18 18 18 19 21 24 24 16 19 23 30 29
8 14 22 28 30 31 30 22 24 29 25 20 22 27 33 33 30 23 27 28 28 31 31 30 29 29 27 26 28 24 19 17 14 15 17 16 15 16 17 19 20 22 24 24 18 20 24 22 28
14 14 12 15 16 15 7 11 14 18 30 37 34 34 34 33 35 32 30 26 33 32 28 29 33 33 30 25 27 27 22 19 18 17 15 13 14 15 15 18 20 22 25 23 19 25 27 25 30
7 5 7 5 7 5 12 19 10 25 32 37 41 43 42 44 41 40 37 34 30 36 30 28 29 35 32 29 27 29 26 24 22 20 17 14 15 16 17 18 19 22 25 25 22 28 26 24 28
6 3 3 1 5 11 4 18 15 31 29 32 40 36 36 37 41 41 43 40 34 34 40 32 30 34 34 32 30 30 30 26 24 22 20 16 17 17 17 19 19 22 25 26 25 28 29 27 27
4 5 10 9 5 8 6 12 10 26 26 21 22 24 26 29 30 29 27 39 42 38 42 39 34 35 38 35 34 31 31 28 26 24 22 20 20 19 19 19 21 22 25 27 28 27 32 32 29
5 4 7 7 5 5 13 13 13 22 25 23 25 27 30 34 37 37 34 26 36 42 43 42 37 38 41 37 35 30 31 30 28 26 24 23 22 21 22 22 20 21 26 27 27 29 34 33 30
8 9 14 15 11 5 8 13 17 16 20 19 24 31 35 39 42 42 38 35 30 39 44 43 37 41 42 40 36 36 36 35 31 29 27 25 23 22 24 25 23 23 26 27 27 31 31 30 29
10 13 17 16 13 6 15 21 20 12 11 24 28 29 34 41 44 45 44 34 33 26 40 43 42 37 42 46 45 39 35 34 31 32 30 27 24 24 24 25 25 24 25 26 27 31 30 31 31
10 9 6 11 8 7 5 17 16 7 12 24 28 20 21 26 34 42 40 37 33 31 26 39 43 38 48 49 45 37 31 30 28 28 30 29 28 26 26 24 25 26 27 29 28 33 32 34 34
12 8 7 7 5 10 4 11 7 8 16 17 17 19 25 30 27 18 24 30 31 33 27 36 42 43 49 52 47 38 35 36 33 29 29 27 28 28 27 27 25 25 27 29 29 31 35 33 31
7 6 5 5 5 6 16 5 4 9 10 19 20 23 25 32 27 24 15 14 18 19 24 38 45 45 49 49 45 38 34 35 29 24 24 25 28 26 24 26 26 26 26 27 28 31 32 30 41
1 2 4 3 0 9 18 7 2 2 6 16 18 28 23 32 32 27 22 9 4 13 22 41 47 45 50 46 42 36 34 31 26 24 24 22 22 23 23 24 25 25 25 27 27 29 33 35 42
4 5 3 4 0 6 4 4 5 4 12 11 13 21 26 28 30 30 32 20 4 15 26 33 42 44 41 42 36 33 31 28 24 23 21 21 22 21 22 23 24 25 25 28 27 29 30 37 46
8 8 5 6 4 10 8 6 2 5 10 12 10 13 30 35 29 27 26 23 12 6 29 27 32 39 42 39 35 29 25 23 21 21 20 18 17 19 21 23 24 25 24 25 27 31 34 40 44
4 5 9 5 7 6 4 2 2 5 5 5 11 14 16 18 26 26 26 25 19 6 22 32 38 44 39 36 32 27 25 23 24 18 16 15 15 19 22 23 21 22 24 25 29 36 39 38 47
5 1 1 2 3 5 4 4 2 6 8 9 7 11 12 16 21 27 28 24 21 11 11 21 34 37 34 32 28 25 23 21 21 16 17 16 15 18 19 20 21 21 22 20 20 30 37 40 40
9 6 5 4 4 4 4 4 4 7 6 6 5 11 18 21 25 27 27 25 21 16 13 10 15 24 25 25 25 24 23 21 20 16 17 15 15 18 19 17 17 16 16 12 13 31 25 34 41
9 5 3 3 5 4 4 9 6 8 5 10 11 12 15 21 23 25 26 25 24 23 20 6 2 5 12 20 24 25 20 21 19 18 17 16 15 15 14 14 14 14 13 14 14 17 24 33 38

GFSSGP_850_spd_093.txt.gz
Wind_Speed
6 5 6 3 3 4 5 7 5 1 2 1 12 6 10 13 4 5 16 22 22 25 29 29 27 25 24 23 21 19 17 17 17 17 17 16 14 13 13 14 13 13 13 13 15 16 15 14 13
4 7 7 4 4 1 6 4 9 3 8 22 22 16 7 7 4 2 18 18 20 25 28 28 27 25 24 22 21 20 18 18 18 18 18 17 17 16 15 13 13 14 14 14 16 16 15 15 13
6 10 5 4 5 7 6 6 7 4 17 24 10 17 12 5 8 8 16 22 23 24 26 27 26 24 23 21 21 21 19 19 19 20 19 18 18 17 16 14 14 13 14 14 16 17 15 15 14
8 6 2 3 9 6 7 4 3 8 16 8 12 12 16 11 4 16 17 23 24 24 26 25 23 22 21 20 20 19 19 18 19 20 20 20 19 18 17 15 14 14 14 14 15 15 15 14 13
11 4 1 3 6 6 6 14 7 8 9 20 29 11 20 19 13 16 19 25 26 24 24 23 22 21 20 19 19 18 18 18 19 20 20 20 19 18 17 17 15 14 14 14 14 14 15 16 16
5 4 2 7 7 4 6 15 5 6 15 21 14 17 20 17 18 22 23 26 25 23 26 25 23 22 21 19 17 17 16 17 18 18 19 20 20 19 18 17 17 16 16 16 16 17 18 16 15
6 4 5 4 3 4 5 2 3 4 9 10 22 6 16 13 20 25 24 25 26 26 26 27 27 24 21 19 17 15 15 16 16 17 19 20 21 20 20 20 20 19 18 19 20 19 19 19 16
4 4 3 6 5 7 7 7 10 12 7 23 19 7 17 20 18 30 28 28 29 29 29 29 27 25 22 20 18 15 14 14 15 17 18 20 21 21 21 21 20 21 18 19 19 17 21 22 21
7 1 3 5 6 4 10 5 19 18 19 16 15 23 24 27 23 30 29 26 26 27 28 28 27 27 25 22 20 18 15 15 15 16 18 20 22 22 23 21 21 20 18 17 20 21 20 23 26
6 4 9 6 4 4 10 14 28 5 15 23 30 23 24 22 10 26 29 30 29 27 28 27 26 26 25 24 22 19 18 16 16 16 18 21 22 21 21 20 21 19 18 19 20 20 23 25 23
6 7 4 4 9 13 7 16 28 13 14 15 26 29 28 19 14 18 26 30 29 27 26 25 25 25 26 26 25 23 20 18 16 16 18 19 20 20 21 21 21 20 19 21 21 22 25 28 26
5 8 9 6 19 19 10 21 13 24 23 27 29 29 23 19 19 20 20 29 31 31 27 26 25 25 24 25 26 25 23 21 19 19 20 22 21 22 22 21 21 21 21 24 23 20 23 28 29
6 10 18 23 24 24 29 16 17 23 27 23 23 25 28 28 27 25 28 25 32 35 34 31 29 28 27 27 27 28 26 24 20 20 22 22 22 22 22 21 20 21 21 23 23 19 22 22 31
7 7 14 11 14 12 11 8 7 9 26 27 29 32 33 33 34 35 33 31 30 30 41 39 36 32 31 28 25 26 29 27 22 22 22 20 22 22 22 21 21 22 22 23 24 21 18 27 30
7 6 5 5 5 6 13 11 6 15 22 22 24 28 32 34 35 34 32 32 35 36 32 44 43 40 38 31 30 27 30 30 27 24 22 19 22 21 20 20 20 22 23 25 24 20 21 27 26
4 1 3 3 5 7 3 15 7 15 16 26 30 34 34 31 30 24 23 22 24 29 35 36 41 45 38 33 32 30 29 31 30 27 24 21 22 21 21 21 20 22 23 25 25 22 27 28 25
3 4 4 7 4 3 5 13 4 25 21 22 29 33 33 35 34 31 30 31 30 28 27 36 38 43 40 36 33 31 30 33 32 29 26 24 23 22 21 21 20 21 24 26 25 25 28 29 26
5 3 3 4 6 2 7 23 15 18 17 20 25 33 37 40 40 38 36 35 34 33 28 30 38 43 41 38 37 33 31 34 33 32 29 25 25 23 22 21 20 23 26 27 27 27 28 31 28
4 4 6 7 10 4 13 21 19 14 12 17 24 27 31 31 32 32 37 39 38 35 32 28 32 42 45 44 42 38 36 38 35 34 30 28 27 25 24 23 22 23 28 28 27 27 27 29 31
6 7 11 7 13 6 10 18 14 7 9 18 22 19 23 32 33 34 33 32 37 37 33 30 28 35 46 46 45 42 40 41 37 36 33 31 28 26 25 25 25 25 25 27 28 28 29 31 35
7 6 10 12 5 6 5 14 12 7 3 14 16 18 22 25 35 36 34 23 22 29 32 31 28 33 40 47 49 45 42 34 33 34 35 33 30 28 26 23 25 28 28 28 26 28 30 35 38
7 9 13 7 4 5 4 8 20 4 4 3 7 15 22 28 30 34 34 27 17 16 22 24 28 28 42 50 48 48 47 39 43 47 39 34 32 30 27 23 24 27 29 28 26 26 29 34 35
8 9 7 3 4 7 5 1 9 6 4 7 10 15 18 25 25 32 31 30 19 12 14 19 27 29 43 44 47 49 49 42 41 40 39 36 33 30 29 26 26 28 28 27 27 26 31 34 36
3 2 3 3 2 5 12 7 5 3 3 9 9 12 18 27 28 27 27 27 19 13 13 17 25 32 39 50 51 51 50 42 38 39 37 36 33 30 29 27 27 30 28 28 26 28 30 32 36
4 4 2 3 1 6 4 2 6 5 9 9 9 13 19 29 26 27 28 29 25 18 8 16 25 31 40 48 50 48 47 41 33 34 35 34 31 30 28 27 26 26 25 27 27 26 27 29 33
5 7 5 6 4 6 2 5 5 6 8 4 9 12 28 33 27 29 27 27 26 21 9 14 24 28 36 41 40 42 38 35 31 31 32 30 25 21 20 22 24 23 26 25 26 27 30 30 33
2 1 4 5 2 3 4 5 6 5 5 1 9 17 24 27 27 28 27 26 26 18 10 8 22 23 28 30 33 36 34 31 30 29 27 23 18 16 15 16 18 22 23 24 24 24 28 31 34
6 4 3 3 3 4 4 4 4 3 6 4 9 14 18 25 29 30 28 29 26 18 10 2 16 22 28 21 21 30 26 26 24 25 24 20 17 16 14 17 20 23 25 24 23 26 28 35 37
4 2 3 3 4 3 3 4 4 4 5 6 6 13 14 22 28 29 29 28 26 20 11 8 3 12 24 19 25 26 23 25 24 24 20 18 16 13 14 16 17 21 20 21 25 26 28 31 37
3 2 4 1 3 3 3 5 7 7 7 7 10 14 12 17 23 24 26 25 26 25 19 13 15 13 11 17 21 21 24 21 22 20 17 17 14 12 13 14 15 15 16 16 17 19 17 28 33

GFSSGP_850_spd_096.txt.gz
Wind_Speed
6 4 7 4 3 5 4 7 1 6 5 3 19 9 8 14 5 6 15 15 19 29 32 33 32 30 28 27 25 22 20 19 18 18 18 17 17 18 17 16 15 14 13 13 13 14 14 13 12
6 9 9 4 4 1 6 5 6 4 5 18 19 13 6 7 9 10 7 15 22 21 31 31 31 29 28 26 24 21 20 20 19 18 18 18 17 17 17 16 15 14 13 14 14 14 14 14 14
7 12 6 4 4 6 5 5 2 6 18 12 8 19 11 9 17 8 13 15 20 24 29 31 30 29 28 26 24 21 20 20 19 18 18 18 18 18 17 17 16 15 14 14 14 16 15 14 14
8 6 3 3 8 6 6 2 3 8 7 8 11 8 16 18 20 18 15 19 22 27 30 30 29 28 27 26 24 21 21 20 19 18 18 18 18 19 18 18 17 15 14 15 15 16 16 15 14
11 3 3 3 6 5 6 5 4 6 7 12 13 9 22 21 21 17 18 22 25 26 28 30 28 26 25 25 23 21 21 21 20 19 18 18 18 19 19 18 17 16 15 15 15 14 16 16 16
3 3 2 6 6 4 6 6 4 3 9 14 11 8 12 28 26 15 21 27 27 27 28 29 27 26 25 24 22 22 21 20 19 19 19 19 19 19 19 19 18 17 16 17 17 17 17 18 17
5 4 4 3 3 3 5 3 4 2 6 7 18 6 10 31 38 18 21 27 28 27 28 30 29 28 26 24 22 21 20 19 19 19 19 20 20 19 19 19 19 19 18 18 19 17 18 19 16
3 4 3 5 5 6 5 3 9 5 5 15 9 4 12 31 33 18 22 24 27 28 30 31 30 29 27 26 23 21 19 18 18 19 19 20 21 20 20 20 21 20 19 18 18 17 18 21 21
4 1 3 5 6 4 2 2 2 9 11 11 12 23 28 24 28 22 17 20 25 28 31 31 30 29 28 26 24 23 20 18 18 18 19 20 21 22 22 23 22 21 19 18 19 18 20 22 23
5 4 9 7 4 3 5 5 18 3 9 18 30 28 26 24 24 19 15 20 21 25 29 29 29 29 29 28 26 24 22 20 18 18 19 20 21 22 23 23 23 22 19 19 19 19 21 22 23
6 6 5 5 9 8 4 13 14 4 6 14 27 29 24 22 16 15 12 17 21 24 26 28 29 28 28 27 27 26 24 22 19 18 19 19 21 22 23 24 25 23 22 22 21 21 24 25 22
4 9 12 9 20 18 6 14 9 14 21 24 21 21 22 21 21 16 16 14 22 26 26 27 29 29 28 28 28 27 25 24 22 20 19 20 21 22 23 24 25 24 23 24 23 23 25 25 25
5 5 15 21 19 22 21 12 12 17 23 19 18 23 24 22 25 25 24 23 22 27 30 32 32 32 31 31 31 30 29 27 25 23 21 21 21 22 22 24 24 23 25 25 24 25 24 25 26
3 7 11 10 15 11 7 7 5 10 19 20 17 17 19 22 22 22 24 26 26 28 29 31 39 36 34 33 34 32 31 29 28 26 25 22 21 21 22 25 25 25 25 24 24 24 23 21 23
6 5 6 7 7 6 2 3 6 15 10 11 19 22 26 27 24 24 24 24 20 24 30 34 33 39 42 37 36 34 31 30 31 31 28 25 22 22 22 24 25 24 25 24 24 23 21 19 21
2 1 2 4 1 6 5 5 10 10 12 25 20 25 27 28 29 29 29 26 22 23 25 30 35 39 42 46 41 37 33 30 32 33 30 28 24 23 23 24 24 24 25 23 24 24 22 20 21
3 4 3 6 4 4 3 2 5 24 22 17 23 25 29 30 28 29 28 25 24 24 24 27 28 37 41 42 43 41 35 34 33 33 32 29 26 24 23 24 23 23 24 24 25 25 23 23 26
4 3 3 4 5 2 8 10 8 17 13 19 23 24 18 19 24 29 32 30 27 28 28 24 27 30 39 40 47 43 39 35 35 34 36 32 28 26 24 24 23 23 24 25 25 26 25 26 29
2 3 5 5 9 4 10 14 10 14 11 13 11 10 14 20 23 25 28 33 29 25 29 26 24 28 33 43 48 47 46 37 39 39 37 34 31 28 27 25 24 25 25 26 25 25 26 30 29
5 4 6 6 7 5 10 18 10 8 5 3 5 9 14 22 26 29 29 30 27 26 26 26 24 27 31 39 43 48 43 41 42 41 38 34 33 31 29 27 26 26 25 27 26 26 27 31 32
5 5 5 7 5 5 5 9 2 3 4 2 5 12 16 21 29 34 33 30 29 25 23 24 23 24 32 35 43 45 48 45 42 39 35 36 34 33 31 28 26 26 27 27 27 27 30 32 33
4 9 9 7 3 4 2 7 2 3 4 2 10 17 17 28 33 34 31 30 30 28 24 22 25 27 31 37 41 46 50 48 46 41 32 28 32 35 32 30 27 26 27 27 26 28 31 30 34
8 7 7 5 5 4 3 1 4 3 3 3 7 14 20 26 31 32 29 29 28 30 26 21 23 28 33 36 39 44 46 47 48 40 35 25 45 36 34 33 28 27 27 28 26 26 29 31 33
3 2 2 3 2 2 9 7 4 2 4 2 3 7 14 21 25 27 27 28 28 27 23 19 20 22 30 34 36 40 44 49 48 41 45 34 41 42 36 33 30 27 27 26 26 27 28 29 33
3 4 2 2 1 4 5 3 7 4 4 3 3 4 13 20 23 29 33 32 32 28 25 16 12 15 24 31 35 36 44 47 47 46 31 44 46 40 39 34 33 29 27 26 26 26 25 27 30
4 6 4 5 3 4 3 5 5 4 3 1 5 11 17 24 23 30 32 33 34 28 24 18 11 12 21 27 31 33 41 44 40 44 43 39 34 35 34 32 29 29 29 28 26 23 26 26 27
3 3 2 2 1 2 3 5 5 3 4 7 10 16 19 22 27 29 31 35 34 29 24 21 12 12 20 25 29 31 32 33 35 38 35 28 27 30 28 28 27 25 21 22 22 26 28 27 26
5 2 2 3 2 5 2 2 3 6 6 5 9 13 20 24 29 30 31 32 32 29 23 20 11 5 14 19 23 24 26 26 21 19 28 27 26 24 23 22 21 20 21 22 23 24 25 25 27
4 2 4 2 2 3 2 4 5 4 4 6 8 14 17 23 27 30 30 30 30 28 23 21 16 8 9 15 12 12 15 13 13 23 30 25 21 20 21 19 19 21 21 21 22 24 24 24 24
1 4 4 3 2 2 2 4 1 4 8 10 10 14 17 22 29 31 31 31 31 32 29 25 19 15 9 8 8 11 16 14 20 29 25 23 21 21 19 20 20 19 19 19 20 22 23 24 25

GFSSGP_850_spd_099.txt.gz
Wind_Speed
7 5 7 4 2 1 3 4 2 3 2 2 11 4 5 10 7 7 21 22 15 28 30 29 29 28 26 25 23 21 19 17 18 20 21 21 20 19 18 17 16 16 16 14 14 14 15 13 13
7 8 7 2 3 4 5 3 7 4 2 12 4 6 2 2 4 14 22 11 14 29 29 30 30 27 26 25 24 21 19 18 18 19 20 20 20 19 18 18 17 16 15 14 14 14 15 14 14
8 12 4 2 3 9 4 5 4 4 6 5 3 4 4 9 17 15 13 13 12 26 27 29 29 28 27 26 25 22 19 18 17 18 19 19 19 20 19 18 17 15 14 13 14 14 15 15 14
8 5 3 3 14 5 5 2 4 6 2 4 7 2 8 8 23 30 25 15 17 23 27 31 30 29 28 27 25 22 20 19 18 18 19 19 18 19 19 18 17 15 14 14 14 15 16 16 15
12 3 2 5 7 5 7 8 8 5 8 6 2 4 11 5 27 29 17 12 19 25 29 32 31 29 28 27 25 23 22 21 20 19 18 18 18 18 19 19 17 16 15 15 15 16 17 16 16
5 4 3 9 13 4 7 8 7 6 4 5 1 10 7 8 25 31 21 14 21 27 32 32 31 28 28 27 25 24 23 22 21 20 19 19 18 19 19 19 18 17 16 16 16 15 17 17 17
5 3 4 4 6 5 4 3 5 4 2 4 8 6 10 13 24 27 28 15 21 25 32 32 31 30 29 28 26 25 24 23 21 20 20 20 20 20 20 19 19 18 17 17 17 17 17 19 18
6 3 4 6 9 10 5 3 3 5 7 8 4 1 8 26 23 24 25 16 17 24 28 31 32 32 31 29 27 25 24 23 22 21 20 21 21 21 20 20 20 19 19 18 19 18 18 19 19
7 4 7 8 7 4 3 2 3 3 9 6 6 17 20 20 18 17 18 15 14 22 27 32 33 33 31 30 29 27 26 24 22 22 21 21 22 22 22 23 22 20 20 20 19 18 18 20 20
6 5 10 7 7 4 5 4 9 7 11 15 21 18 18 13 14 12 15 13 13 18 23 28 31 31 31 30 29 29 28 27 25 24 23 23 21 22 23 22 22 21 20 20 19 18 19 20 22
6 8 6 5 11 8 6 9 8 12 14 14 17 22 15 16 16 13 13 12 9 12 17 25 29 29 30 31 31 31 30 30 26 25 25 24 23 22 24 24 24 23 23 22 20 20 22 24 24
5 8 11 5 13 12 12 15 16 14 23 23 21 20 19 19 17 17 17 15 15 15 16 18 23 29 30 30 30 31 31 30 28 26 25 25 24 24 24 25 26 25 25 25 24 24 24 26 24
9 6 9 13 13 14 14 16 16 15 25 20 16 16 18 14 13 13 15 18 18 19 21 20 23 24 27 32 31 32 32 32 30 28 27 26 26 24 23 24 25 25 25 26 26 26 25 25 26
5 9 11 8 14 9 9 9 7 15 18 17 14 12 12 14 14 13 12 13 14 17 21 25 26 27 29 31 33 34 34 34 33 31 29 29 26 25 24 24 24 25 24 26 27 26 24 26 27
5 7 6 9 9 8 6 7 8 17 12 8 19 12 16 15 15 14 13 14 16 17 22 23 27 31 35 36 37 35 36 37 36 33 31 31 29 27 25 25 25 25 24 26 25 24 23 25 27
3 1 4 1 6 2 9 7 9 8 6 16 16 17 17 18 14 12 13 15 16 18 20 21 22 27 34 38 40 41 38 37 37 34 34 33 32 29 27 27 26 24 24 25 25 25 25 25 25
3 7 5 4 6 4 6 2 8 14 15 16 16 17 17 14 12 15 18 19 20 21 22 23 23 26 29 33 40 42 46 41 36 35 35 36 34 31 30 29 27 25 25 25 25 26 26 26 24
7 6 5 4 3 3 8 13 15 18 13 16 15 9 7 11 15 18 20 22 24 23 23 27 28 27 27 29 33 42 47 47 40 37 40 40 34 33 33 30 29 26 26 26 25 26 27 26 24
3 3 7 7 9 4 10 10 13 17 9 14 5 1 5 9 15 19 22 26 29 27 24 27 29 28 31 31 34 39 46 48 48 44 43 42 35 35 34 32 30 29 28 27 25 24 28 27 25
10 10 11 10 10 7 10 13 14 12 6 4 4 1 5 11 20 26 29 31 32 31 31 24 29 30 30 31 34 36 43 47 51 48 46 42 37 38 36 34 33 30 28 26 25 29 28 30 30
8 10 7 9 4 6 6 6 2 2 5 7 5 1 4 11 18 25 31 32 33 32 30 33 25 31 29 33 28 31 30 37 39 45 47 44 40 40 36 35 33 32 30 29 28 28 30 32 31
13 13 14 9 3 3 3 5 3 4 2 5 1 4 10 15 20 22 23 25 31 32 30 31 27 27 31 30 30 35 38 39 47 48 49 44 41 37 37 30 34 33 30 30 29 28 31 33 31
8 9 11 7 5 2 3 5 1 3 4 4 3 7 11 16 21 24 25 25 28 32 31 31 29 26 29 30 36 39 41 41 37 48 50 47 41 36 43 38 43 38 31 30 29 30 32 33 33
5 6 4 2 3 6 12 10 4 4 4 2 2 7 12 19 24 26 25 29 33 31 27 28 26 26 24 28 36 39 40 39 41 48 48 45 37 31 39 44 48 42 34 31 28 28 28 32 31
11 6 4 4 4 5 4 8 9 7 4 2 4 10 15 19 23 25 28 34 34 33 29 26 25 23 16 19 28 34 38 37 42 46 49 42 38 34 31 38 41 40 36 30 29 27 28 30 30
9 7 4 5 5 2 3 6 2 7 12 13 11 10 14 20 23 25 28 28 33 34 32 27 25 19 12 16 21 30 33 36 38 37 40 41 45 37 40 40 44 42 34 32 28 25 28 26 27
4 4 1 2 1 3 5 3 5 11 9 8 11 13 16 19 21 24 27 28 33 34 32 29 26 17 10 13 19 26 27 31 34 35 35 38 44 42 36 37 41 39 35 32 27 27 27 26 24
2 3 3 1 4 7 4 4 2 9 8 8 11 14 15 16 20 22 25 28 30 32 32 26 23 17 8 5 13 19 22 23 26 30 31 31 37 19 24 31 33 34 29 28 26 27 26 25 25
3 2 4 2 1 3 4 2 2 2 4 4 6 9 12 16 20 21 26 29 31 31 32 27 24 18 8 4 6 8 15 15 20 22 21 22 18 22 32 28 30 28 25 23 25 25 23 23 24
1 2 2 2 4 1 3 4 3 5 3 3 4 7 10 14 18 20 29 32 33 33 32 31 26 22 21 10 5 2 7 11 13 17 20 19 24 19 26 26 23 22 21 21 22 22 23 25 24

GFSSGP_850_spd_102.txt.gz
Wind_Speed
6 4 3 3 6 6 10 3 2 7 5 3 4 5 7 10 4 6 13 17 16 14 24 27 27 26 25 23 20 19 18 17 18 21 22 21 19 17 16 16 16 15 15 14 14 13 13 13 12
8 7 4 4 7 10 8 4 9 4 4 1 1 5 6 3 4 13 13 18 6 10 25 28 27 26 25 24 22 21 19 18 19 20 23 22 20 18 17 16 16 16 15 13 13 13 13 13 12
9 11 6 4 8 13 9 2 1 6 3 2 2 4 1 1 7 11 18 18 14 11 23 28 27 28 27 25 24 22 20 19 19 20 21 23 21 19 18 17 17 16 15 13 13 13 13 13 12
5 6 4 7 17 12 8 3 2 4 5 3 5 6 3 3 6 14 20 12 10 11 19 25 28 29 28 26 25 23 21 20 19 20 20 21 21 21 20 19 18 17 15 13 13 14 14 14 13
6 5 8 11 18 14 8 8 9 10 6 9 7 9 8 6 9 15 17 11 7 13 19 24 31 29 27 26 24 23 22 21 20 20 19 20 21 21 21 20 18 17 15 14 14 14 15 15 15
8 6 8 13 17 13 8 10 13 13 11 11 11 10 11 8 13 16 17 14 8 14 22 25 32 28 26 25 25 24 23 21 20 20 19 20 20 20 21 21 19 18 16 15 14 14 16 17 17
14 8 14 16 18 14 11 4 9 8 5 7 3 9 9 8 14 15 15 14 8 13 23 26 30 29 27 27 26 25 23 22 20 20 20 20 19 20 21 21 21 18 17 16 16 15 16 18 18
12 6 14 10 15 19 10 10 8 11 12 3 8 5 6 13 18 14 12 10 7 10 20 27 28 30 30 29 29 27 24 22 21 21 20 20 20 20 21 22 22 20 18 18 17 16 16 19 18
9 8 13 20 12 11 4 10 4 3 9 10 9 11 15 17 16 13 10 9 5 8 16 25 30 31 31 30 30 28 26 24 23 22 22 21 21 22 23 24 24 23 21 19 17 17 18 18 19
13 12 15 12 11 11 11 12 12 10 14 14 18 16 12 12 10 11 9 9 7 7 12 22 30 32 31 32 31 30 28 27 26 26 25 25 23 20 20 23 25 24 22 21 19 18 18 18 20
11 18 16 10 15 13 15 17 16 17 16 19 18 16 14 12 13 12 11 9 7 5 8 13 20 28 31 32 32 31 30 27 27 26 24 25 21 20 22 19 25 25 25 22 21 21 21 22 19
12 18 18 16 15 18 16 19 19 18 22 19 17 17 15 13 13 13 12 11 9 7 7 10 12 18 26 30 31 31 32 33 33 31 30 29 27 21 20 21 20 23 21 21 19 19 20 20 21
18 16 16 18 17 19 19 21 21 21 20 17 15 11 13 11 9 11 11 10 9 8 9 10 13 14 18 23 28 31 34 34 34 34 33 32 31 30 22 21 21 23 20 23 21 22 22 22 22
3 13 14 11 17 19 17 18 17 14 14 12 11 10 8 8 7 8 8 10 9 9 8 12 14 17 19 24 25 27 33 36 37 36 36 34 34 29 30 29 27 22 23 25 24 25 22 23 22
15 16 16 18 20 16 13 19 20 20 16 12 10 9 7 6 7 6 6 9 12 11 12 13 15 18 20 25 29 28 31 33 35 37 37 36 36 35 32 31 31 30 25 27 24 25 25 23 22
11 14 14 5 14 14 12 13 4 5 10 13 10 9 8 7 4 3 6 8 10 14 16 17 16 17 20 24 26 27 29 32 31 34 37 37 37 37 34 33 31 30 29 29 27 27 26 25 24
16 15 16 10 12 6 14 9 7 7 8 13 13 12 8 5 1 5 8 10 11 14 18 22 22 22 21 23 25 28 31 37 34 34 35 35 37 39 38 34 33 30 29 31 29 29 26 25 25
19 19 16 14 8 12 12 13 10 20 15 14 14 9 6 5 3 7 10 12 14 16 19 20 24 27 27 27 25 26 28 37 35 39 43 36 38 41 39 35 35 31 30 31 29 30 27 26 25
10 15 14 8 8 6 15 17 16 16 16 15 13 8 4 2 6 9 11 13 15 17 20 21 23 26 28 26 21 26 30 34 40 38 38 42 41 41 39 36 36 33 32 31 29 28 27 26 26
22 19 19 15 16 11 14 16 13 15 16 10 9 9 4 2 7 12 16 18 19 19 20 21 22 24 25 24 23 24 29 30 33 34 37 48 44 42 39 38 37 35 33 31 29 29 28 28 26
21 21 16 15 5 12 13 18 14 6 8 9 9 5 2 3 8 12 16 18 21 23 24 23 24 23 26 26 25 27 27 30 30 32 39 48 46 44 43 37 36 36 33 31 27 27 28 29 28
22 16 15 12 9 10 6 4 12 8 11 10 9 5 2 5 9 12 15 17 20 21 23 26 28 28 29 27 23 24 28 34 35 33 41 44 46 48 42 37 38 38 33 29 27 26 26 29 31
19 7 14 15 13 13 15 7 6 13 10 12 9 5 3 7 11 14 17 18 19 22 25 28 29 28 28 28 27 26 30 34 34 30 34 40 44 49 46 41 32 41 27 26 25 27 29 30 32
9 6 10 10 11 13 16 12 10 13 11 11 9 5 6 11 14 16 17 19 20 22 26 28 28 28 26 25 25 28 30 34 34 32 34 35 42 49 43 40 41 39 38 39 33 29 31 32 32
21 12 6 8 8 12 2 10 4 10 6 5 6 5 9 12 15 18 21 24 24 25 29 32 30 29 26 22 22 26 31 36 37 32 32 34 40 44 45 42 44 43 44 36 44 36 34 32 34
22 19 9 10 11 10 6 8 6 10 13 11 8 6 9 13 16 19 21 23 24 26 29 33 31 30 26 21 20 23 23 31 35 33 32 33 36 39 40 40 35 47 44 36 45 36 37 30 33
15 19 17 9 5 6 8 7 8 9 8 6 6 7 10 13 16 20 22 23 25 27 30 33 30 28 25 20 16 16 19 26 31 32 31 32 27 26 31 40 43 29 31 50 36 38 36 32 34
6 8 7 8 12 15 12 10 3 8 5 5 6 7 8 12 16 20 22 24 24 26 28 29 27 28 25 19 7 9 16 24 29 30 30 30 28 31 30 34 34 32 42 40 40 36 34 30 31
4 6 4 4 5 7 11 2 4 8 5 5 7 9 12 14 16 18 21 23 24 24 27 30 29 29 24 17 5 4 10 16 21 24 28 33 34 33 37 31 20 19 36 36 36 29 30 27 30
3 2 3 5 8 4 6 6 4 5 5 7 8 9 10 12 15 16 20 23 25 26 29 29 30 29 24 20 12 2 6 10 14 19 19 25 31 31 35 31 18 25 25 28 28 31 30 27 28

GFSSGP_850_spd_105.txt.gz
Wind_Speed
5 3 5 8 7 7 15 14 4 5 6 3 1 6 10 12 8 4 10 14 13 1 16 19 26 25 23 21 20 18 17 17 17 18 19 20 19 16 13 12 12 12 12 12 12 11 11 11 11
3 6 6 12 8 13 14 6 6 4 10 1 3 6 10 6 2 7 8 18 10 3 11 19 27 26 24 22 21 20 18 17 17 18 20 21 19 15 13 13 13 13 12 11 11 11 11 11 11
6 8 13 6 14 15 14 9 8 8 3 4 4 4 3 2 2 6 12 15 9 5 10 15 27 26 25 23 22 20 18 17 17 18 21 21 20 17 15 14 14 14 13 11 11 11 11 11 10
4 6 11 10 20 18 12 6 3 4 8 7 5 7 5 4 3 7 12 14 9 5 10 18 24 27 26 24 22 20 18 17 17 18 20 21 19 18 17 16 15 15 14 12 11 12 11 11 11
8 11 11 16 21 20 16 5 6 10 10 8 9 12 11 8 3 9 12 12 8 4 9 19 22 28 27 25 23 21 20 18 18 18 19 20 20 19 18 17 16 15 15 13 12 13 13 13 12
12 9 13 15 19 17 11 5 13 14 14 16 16 15 15 7 6 9 12 11 8 6 10 16 23 28 28 25 24 23 21 20 18 18 19 20 20 20 19 19 17 17 17 15 14 13 14 14 14
16 12 16 19 21 20 16 5 11 13 14 14 11 7 8 5 4 10 11 10 9 6 10 14 18 27 28 26 25 24 23 21 19 19 19 19 20 20 20 21 20 19 18 17 16 15 15 16 16
18 12 22 19 19 20 12 4 11 13 15 2 3 7 13 7 8 12 11 10 8 7 11 14 15 25 29 28 27 26 25 22 20 20 19 19 20 20 21 21 21 21 19 18 17 16 15 15 17
10 10 15 21 21 19 10 6 16 8 11 11 12 15 12 15 15 12 11 9 7 7 9 14 17 22 28 25 28 28 26 24 23 22 21 21 21 21 22 23 23 22 22 19 18 17 16 16 17
19 14 22 20 14 16 13 14 15 16 14 15 18 17 16 13 13 11 10 10 8 7 10 12 17 23 26 22 19 27 28 26 25 24 24 23 22 18 19 21 25 24 24 22 20 19 19 18 18
19 22 20 20 15 16 21 21 19 18 18 19 20 18 15 15 13 13 12 11 8 6 7 9 13 15 22 26 29 23 20 21 23 25 23 22 18 17 18 17 23 26 27 26 24 23 23 21 18
24 27 25 24 22 18 19 23 22 23 21 21 20 18 17 16 14 14 13 11 9 7 5 7 10 12 16 17 19 20 22 24 21 21 23 22 21 20 20 20 20 21 22 24 22 22 21 22 21
24 22 26 24 22 26 23 23 23 25 23 22 18 17 15 15 13 12 12 9 9 6 5 7 7 11 12 16 18 19 21 24 28 28 29 26 23 24 22 20 21 20 23 22 23 24 22 22 23
27 20 22 28 24 23 23 24 25 21 18 19 18 16 15 12 11 9 9 8 6 6 5 5 7 10 13 14 17 18 20 21 23 23 31 35 35 31 23 23 22 21 21 25 23 22 22 25 23
28 29 25 25 25 23 17 23 24 27 21 20 18 17 15 11 9 9 5 8 7 6 6 6 7 7 18 16 18 19 20 21 22 24 30 33 36 35 26 28 29 22 19 25 26 26 26 23 23
24 23 23 20 25 28 21 24 19 14 20 20 16 15 12 12 6 6 6 5 6 7 8 8 8 9 11 16 19 21 22 24 23 26 28 31 35 37 36 26 30 27 23 26 29 27 28 24 21
20 22 25 22 19 13 23 18 24 14 11 15 17 13 14 9 8 5 3 4 6 8 9 10 10 10 12 16 19 22 26 27 27 26 30 31 32 34 37 35 35 29 25 30 32 30 28 27 21
21 26 26 24 20 17 20 21 19 13 18 16 16 16 14 9 8 2 3 4 6 9 13 14 14 14 15 17 20 23 24 30 33 31 32 32 34 34 36 39 38 35 31 30 32 33 28 29 24
27 25 30 25 17 14 16 20 17 17 21 20 17 17 12 10 4 2 2 5 7 10 13 15 17 17 17 18 18 20 22 27 32 35 35 35 33 33 35 35 35 37 35 31 32 30 29 30 26
27 28 28 24 22 12 18 22 20 20 19 19 18 14 11 8 6 1 4 8 10 12 13 15 16 18 18 19 20 21 23 27 29 34 34 37 36 35 36 37 38 38 35 32 32 34 29 27 27
23 27 24 22 25 22 19 24 21 19 19 19 10 13 11 7 2 3 8 10 12 14 15 16 17 19 20 21 22 23 24 29 35 27 34 33 36 43 45 38 44 40 37 37 36 37 32 30 27
20 24 21 25 21 17 22 17 19 23 10 11 15 15 13 6 2 6 10 13 15 16 17 18 19 20 19 20 22 22 25 28 29 35 31 34 39 39 41 44 46 40 37 37 36 36 32 26 31
19 18 23 27 22 21 19 10 13 18 18 17 16 15 10 4 4 8 11 14 15 17 19 21 21 21 20 21 24 28 27 27 28 36 33 34 36 40 41 45 45 43 37 37 31 25 29 30 28
12 13 18 20 18 16 21 18 13 13 17 19 17 14 6 3 6 9 11 14 15 17 19 21 22 23 22 24 25 28 29 30 29 32 33 34 37 39 43 41 45 43 41 36 33 29 42 34 29
18 8 4 5 8 11 15 12 19 5 8 18 17 14 4 5 8 10 13 15 17 19 21 22 23 26 26 27 26 25 27 29 33 34 38 34 35 38 41 45 47 47 40 39 35 29 42 38 31
26 19 6 5 5 8 12 6 7 9 18 16 14 9 4 7 9 11 15 17 20 22 24 25 27 29 29 29 26 23 24 29 34 36 39 31 33 34 34 41 45 46 44 50 44 39 44 38 34
10 21 24 15 16 10 7 10 10 9 9 10 10 5 7 9 11 14 15 18 20 23 24 26 29 30 29 30 28 22 17 20 27 26 34 33 30 30 28 37 38 39 36 33 32 36 38 38 34
16 14 16 7 5 10 11 16 8 14 11 10 9 8 9 11 14 15 17 20 21 22 24 26 26 29 29 31 26 21 11 12 15 25 30 30 36 29 28 30 36 41 38 33 34 30 29 35 32
12 9 6 6 8 6 11 2 6 12 11 9 7 8 10 11 13 15 17 19 20 22 23 26 28 30 30 28 29 20 11 11 11 15 22 25 27 28 26 31 36 33 42 36 32 26 27 29 30
9 10 4 3 6 7 9 1 7 11 10 3 5 5 7 10 12 14 16 18 21 23 24 26 31 31 30 26 26 22 16 9 12 16 18 21 30 30 28 28 28 30 36 33 34 25 38 32 35

GFSSGP_850_spd_108.txt.gz
Wind_Speed
4 1 5 10 6 7 14 17 20 7 3 10 8 4 10 8 7 5 9 12 9 5 6 9 21 21 20 19 18 16 14 13 13 13 12 14 15 12 9 8 8 8 9 9 10 9 9 9 9
5 2 9 9 7 10 12 13 7 17 17 9 1 6 8 6 6 4 7 14 8 2 8 10 21 24 22 21 19 17 15 14 14 14 13 14 15 12 10 9 8 8 8 9 9 9 8 8 8
6 2 10 5 10 13 15 5 5 12 6 1 0 4 5 3 9 3 8 11 7 0 10 13 20 27 25 22 20 18 16 15 15 15 15 16 17 14 11 10 10 9 8 8 8 8 8 8 8
3 6 9 8 17 18 20 21 7 4 5 3 6 5 5 4 2 2 6 9 7 1 6 17 14 26 26 23 21 19 18 16 16 16 16 17 17 16 13 12 11 11 10 9 8 9 9 9 9
10 11 11 13 18 19 18 22 6 3 6 6 8 10 11 7 7 2 5 9 8 2 8 15 13 24 25 24 22 20 18 18 17 17 16 18 18 16 15 14 13 13 11 11 10 10 10 10 10
13 11 12 13 18 20 17 9 3 3 9 14 15 15 14 12 6 2 4 9 13 2 7 11 15 18 24 24 23 21 20 19 18 17 17 18 19 17 16 16 15 14 14 13 11 11 11 12 12
15 12 18 20 18 20 20 29 6 5 9 14 12 11 4 7 4 4 6 6 8 12 8 12 14 17 23 26 25 23 21 20 18 17 17 18 19 18 18 17 17 17 16 15 14 12 12 13 13
19 12 22 19 18 23 21 14 3 4 10 4 2 3 8 7 2 8 8 7 8 10 8 11 15 14 22 28 27 25 23 21 20 19 18 19 19 18 19 18 19 19 18 17 15 14 13 13 14
19 12 15 23 22 21 24 12 5 10 10 8 8 15 17 15 12 11 9 9 9 9 12 10 15 15 19 27 28 26 25 24 22 22 20 20 21 20 20 20 20 21 21 19 18 16 15 14 15
18 13 22 22 22 21 21 21 15 12 16 15 14 16 14 14 13 11 11 11 11 10 12 9 12 16 15 19 24 27 26 26 25 25 23 23 22 21 21 21 23 23 23 22 21 18 17 17 18
22 20 21 27 33 34 26 20 24 22 18 19 16 16 15 12 11 12 13 13 13 7 8 12 11 12 19 22 19 22 27 28 28 26 25 25 24 21 19 19 20 23 24 26 24 22 22 20 19
23 28 29 31 34 32 24 27 24 27 24 22 19 16 14 14 15 14 15 14 13 7 6 6 11 12 11 18 27 22 18 21 27 28 27 25 23 24 22 20 22 20 22 27 27 24 25 23 21
23 23 31 31 32 31 29 25 28 29 29 25 22 21 18 16 13 14 12 13 9 5 2 6 3 7 11 14 18 17 20 23 23 21 21 25 26 23 24 23 22 23 19 22 24 24 22 21 20
27 32 33 34 30 29 25 27 29 30 30 28 26 26 20 16 15 13 11 8 4 3 3 9 12 9 12 12 15 21 21 21 23 26 26 26 25 24 27 27 25 24 24 22 21 21 25 23 21
27 25 22 23 31 30 31 31 27 31 31 31 25 20 19 15 16 12 9 5 0 2 5 2 7 11 16 16 13 15 18 19 22 24 26 30 34 34 32 31 29 28 24 22 24 25 25 25 25
25 26 24 22 26 27 26 34 20 28 31 31 30 21 18 17 14 12 7 4 2 3 5 4 7 10 13 17 20 21 19 20 24 26 25 30 33 36 41 38 33 33 31 29 30 28 30 29 27
18 22 27 32 26 26 25 32 25 30 34 18 24 22 18 17 15 10 8 5 2 3 3 5 7 7 11 15 17 22 26 25 23 28 30 30 36 34 36 38 39 40 38 31 30 30 34 31 29
23 22 25 27 24 25 26 27 19 27 17 13 16 18 19 17 12 16 9 6 2 2 3 5 7 10 13 14 15 17 21 28 31 29 29 31 34 38 33 36 38 40 40 40 36 35 33 32 27
27 27 30 28 27 29 24 23 21 19 25 16 21 22 18 16 18 14 9 6 2 4 5 7 10 12 14 15 15 16 19 19 22 28 33 31 36 38 37 37 39 42 42 41 42 37 36 33 29
24 26 25 25 26 24 20 19 28 19 21 23 24 24 20 16 16 13 8 4 3 6 9 11 12 14 15 16 18 24 28 30 29 28 28 34 40 38 40 38 40 45 47 46 45 41 37 36 29
25 22 22 24 23 26 19 17 24 29 24 27 27 26 26 21 18 12 7 4 5 7 11 13 15 17 17 17 20 21 24 30 29 34 38 34 39 46 43 41 41 46 35 25 40 38 36 36 32
18 20 23 21 14 11 10 8 21 26 21 23 23 17 24 20 14 11 6 5 8 10 11 13 16 18 18 20 22 24 28 30 30 27 28 33 34 42 44 48 48 47 40 42 30 33 36 33 34
18 12 13 16 18 14 22 10 15 25 25 19 12 21 23 19 13 9 6 8 9 11 13 16 18 18 20 21 24 26 29 32 35 33 40 34 33 45 45 48 46 47 44 51 42 36 35 37 30
7 5 10 12 11 9 23 15 12 13 12 16 17 27 21 16 14 8 9 11 13 14 15 19 21 22 21 22 24 27 30 32 36 36 37 45 40 36 49 48 45 43 39 43 45 46 43 48 30
11 1 4 6 7 11 8 12 17 9 19 15 22 22 19 17 15 9 12 14 15 17 19 23 25 26 24 25 25 26 29 30 32 35 38 39 47 40 34 44 42 41 40 41 47 46 48 33 32
18 11 5 5 4 6 4 4 4 5 16 31 26 10 18 19 14 11 13 15 16 19 21 26 27 28 27 27 27 25 26 27 27 30 34 38 48 40 29 39 37 34 37 40 47 42 43 36 30
5 10 20 14 12 5 6 5 4 6 20 17 16 12 15 19 15 13 13 15 17 19 21 25 28 29 28 27 28 26 24 26 24 24 26 34 37 43 29 35 31 29 35 41 44 42 41 38 42
15 7 5 6 4 4 5 11 1 12 15 15 16 14 14 13 15 14 14 15 16 18 19 22 27 31 30 28 27 28 25 25 25 23 19 21 25 27 32 32 29 28 34 40 43 36 41 38 34
15 15 4 4 7 4 4 2 12 12 15 9 11 14 17 17 14 14 15 16 18 20 21 25 27 32 33 30 28 27 27 23 25 23 20 19 22 27 32 34 31 30 33 34 41 41 40 40 33
6 8 5 4 2 2 2 2 9 6 7 5 9 13 14 16 17 17 17 18 20 21 24 26 29 30 33 32 30 29 26 24 23 22 21 16 16 24 28 34 32 32 34 35 37 39 36 35 32

GFSSGP_850_spd_111.txt.gz
Wind_Speed
4 3 3 6 3 3 4 8 4 4 4 9 9 10 6 2 4 5 8 7 4 5 4 8 18 20 20 20 19 17 15 15 14 13 14 15 14 12 10 9 8 7 8 9 10 10 9 10 11
2 2 6 6 3 2 5 10 5 3 7 8 9 8 5 4 16 11 3 6 4 5 4 6 16 21 21 22 20 19 17 15 15 15 14 14 15 13 11 9 8 8 8 8 9 9 9 9 9
6 5 3 3 3 6 5 3 2 7 7 7 4 6 3 6 9 6 2 3 7 6 7 6 10 22 22 22 21 19 17 16 16 14 15 15 15 14 12 10 9 9 9 8 8 8 8 8 8
5 2 5 0 9 10 7 15 5 6 5 5 4 2 5 1 5 9 5 8 5 5 8 8 9 21 25 22 21 20 19 17 16 16 15 15 16 16 13 11 10 10 9 8 8 8 8 8 9
6 5 2 4 9 9 14 22 11 3 7 9 10 4 2 6 10 7 5 5 5 6 10 9 10 10 27 25 22 20 19 18 17 16 16 16 17 17 14 12 11 10 10 9 9 8 9 9 9
9 3 2 5 9 11 10 19 17 7 3 4 2 2 3 13 14 9 3 5 9 8 8 11 11 11 21 25 23 22 20 19 18 17 17 18 18 18 16 14 12 12 11 11 10 10 9 10 10
5 3 6 8 13 17 16 29 3 3 3 3 5 3 9 15 9 5 5 1 7 11 11 10 11 12 16 25 24 24 22 19 18 18 18 18 19 19 18 16 15 14 14 13 13 11 11 11 12
12 2 7 7 10 12 17 29 0 4 3 2 3 3 3 9 2 4 1 0 9 12 13 12 14 15 16 22 26 26 24 22 20 20 19 19 19 19 19 18 17 17 16 16 15 13 13 13 14
15 2 11 9 7 13 21 17 28 6 2 1 3 3 10 8 7 10 4 3 8 14 12 14 11 14 15 19 26 27 27 24 23 22 21 21 21 21 21 21 20 20 20 19 18 16 15 15 16
6 3 8 7 15 13 27 19 26 15 11 11 12 15 16 17 18 9 6 7 11 13 13 9 8 11 13 15 25 29 28 26 26 25 24 23 23 22 22 22 21 22 22 21 20 19 18 19 18
8 13 13 20 27 31 22 29 33 18 10 18 12 16 16 14 17 14 11 10 12 9 7 8 6 6 8 13 18 24 28 27 27 27 26 25 24 24 24 24 24 24 24 25 25 24 23 22 20
11 21 21 26 28 27 20 33 25 22 20 27 28 28 16 10 10 9 9 11 16 13 6 4 3 5 7 5 19 20 23 25 28 29 28 27 26 26 26 26 25 26 26 28 27 27 26 24 22
12 11 22 26 27 24 27 20 25 31 28 29 29 34 28 19 17 14 10 11 15 9 10 11 8 7 8 7 18 19 16 19 23 27 29 29 29 28 29 28 26 24 24 24 26 29 29 26 25
20 27 29 28 30 28 22 26 27 23 29 32 28 33 32 24 21 17 15 14 10 9 6 7 6 5 6 11 12 15 21 23 23 23 24 27 28 28 28 30 29 27 25 27 23 26 29 28 23
20 17 20 16 15 9 22 29 22 33 36 39 33 36 32 27 20 15 14 16 9 6 4 5 3 8 9 8 15 17 15 17 22 26 27 28 28 27 28 28 31 31 28 27 27 24 24 26 23
12 11 15 5 13 21 19 36 12 26 25 33 38 37 33 25 18 19 19 14 8 5 2 3 11 11 14 13 14 15 17 20 21 21 26 29 30 31 31 32 33 33 33 32 29 28 28 27 27
6 13 15 26 15 19 14 27 20 24 28 35 35 32 36 24 21 24 18 13 9 5 3 4 9 14 15 16 16 20 21 20 21 24 24 26 29 33 33 38 37 36 38 40 38 36 33 33 35
6 8 14 21 13 13 20 22 22 27 29 27 28 26 31 25 28 25 23 17 11 6 3 7 11 14 16 16 18 19 20 25 31 28 25 25 30 34 34 36 39 43 44 39 41 42 40 37 38
18 18 19 21 16 12 18 19 10 25 32 26 24 9 9 23 31 27 20 15 9 5 5 7 10 11 12 12 13 16 21 24 26 28 36 34 28 30 38 40 41 40 52 50 44 45 43 39 38
18 17 19 22 18 11 16 21 18 21 22 31 23 19 15 36 29 24 17 11 6 3 5 8 10 12 13 14 15 16 19 22 25 30 31 32 34 35 34 43 45 43 40 49 51 49 43 40 40
18 9 17 19 16 14 12 20 18 26 24 30 29 30 31 45 38 30 22 15 9 4 8 12 15 16 16 17 19 20 21 22 25 25 28 36 38 37 35 37 46 48 46 45 46 46 40 39 29
17 7 3 12 9 9 10 12 24 18 20 14 24 24 36 40 37 31 25 18 11 8 10 15 16 16 17 19 20 21 24 27 28 30 30 30 36 46 42 37 38 49 48 44 44 46 40 35 41
3 7 5 3 7 11 13 7 21 2 14 10 11 19 33 34 35 29 23 14 8 7 12 16 16 16 17 18 19 21 24 26 29 32 36 34 34 40 43 38 32 45 51 48 50 47 47 39 46
4 4 3 3 1 9 15 14 18 12 7 6 8 15 37 36 31 26 20 11 12 9 12 19 21 21 21 20 20 21 24 25 29 31 34 37 35 35 42 44 32 38 48 48 51 49 45 48 53
5 5 3 3 4 6 6 7 13 10 11 6 15 21 33 35 30 24 21 16 15 15 19 23 24 23 24 23 22 23 23 25 28 28 30 35 36 35 35 41 38 34 41 44 44 47 46 48 46
6 8 4 5 2 4 5 5 5 9 22 24 29 38 33 32 30 24 20 17 17 17 20 23 26 26 27 25 23 23 23 25 27 26 27 30 31 33 35 34 41 37 34 37 37 46 47 49 47
3 6 2 6 5 4 5 4 7 13 8 22 25 30 30 30 26 23 20 18 17 19 21 24 27 27 28 27 26 24 23 24 26 26 25 27 27 31 32 29 35 39 28 41 43 44 44 42 47
7 6 2 2 3 4 4 1 5 15 12 16 16 21 27 25 23 20 21 17 17 19 21 23 26 27 29 28 27 27 26 24 25 27 26 27 27 28 26 23 26 34 32 37 39 42 43 43 45
7 9 1 3 3 2 3 3 1 8 9 12 14 21 24 26 22 19 15 14 16 18 20 25 27 28 30 30 28 28 28 25 23 24 23 24 25 25 24 28 26 31 34 35 40 43 42 38 42
9 17 14 3 2 2 4 2 4 7 1 10 19 24 24 22 15 14 14 15 18 21 23 25 27 27 27 28 28 27 27 26 25 24 23 22 23 21 18 19 24 29 30 34 39 38 41 40 42

GFSSGP_850_spd_114.txt.gz
Wind_Speed
5 1 3 1 4 5 5 6 4 8 2 1 1 4 5 2 3 3 12 5 1 2 5 9 20 21 21 21 21 19 17 17 16 16 17 16 14 12 10 9 8 7 8 9 10 11 11 11 11
2 2 5 2 4 2 5 6 4 4 3 3 2 4 5 2 10 16 11 6 2 1 2 7 17 21 21 21 20 19 18 15 15 16 17 17 16 14 12 10 9 8 9 9 9 10 10 10 10
3 3 1 3 3 4 4 4 4 11 9 3 3 1 7 9 14 14 9 4 2 2 4 3 9 20 22 22 21 20 18 16 15 15 16 17 17 15 13 11 10 9 9 9 9 10 9 9 9
5 2 2 3 7 7 5 8 7 7 10 3 2 3 4 7 16 12 10 5 5 9 6 6 6 11 23 23 22 21 20 18 17 16 16 17 18 17 15 13 12 11 10 10 10 10 9 8 8
7 1 2 2 7 6 5 8 15 13 6 2 1 2 4 6 9 8 8 6 3 4 7 7 9 10 18 25 24 23 21 20 19 17 17 17 18 19 16 14 13 12 11 10 10 10 9 8 7
4 2 2 4 6 6 6 18 17 14 6 5 4 3 3 15 14 11 8 6 7 8 6 9 10 11 12 26 25 24 23 22 20 19 18 19 19 19 18 16 14 14 13 12 11 10 9 9 8
4 3 5 3 4 8 4 15 16 17 11 5 2 2 10 13 11 8 4 3 6 7 7 7 9 12 14 21 26 26 25 24 22 21 21 20 20 20 20 18 17 16 16 14 13 12 11 10 10
1 3 4 4 3 8 5 12 19 21 21 8 2 2 4 11 6 4 2 4 5 7 9 9 9 9 15 17 25 26 25 24 23 23 22 22 22 22 22 21 20 19 18 17 16 15 14 12 12
2 2 3 5 2 6 22 13 12 24 18 27 12 4 3 9 9 9 10 7 7 9 11 12 9 8 10 19 23 28 27 26 25 24 23 23 24 25 25 25 23 21 21 20 19 18 17 15 14
4 4 6 7 4 11 24 20 24 13 21 17 24 20 15 10 14 15 15 12 9 7 11 16 13 9 10 11 21 27 30 29 28 26 26 26 25 25 25 25 24 24 23 23 22 21 20 20 18
5 7 4 14 22 25 24 28 27 10 4 15 18 24 24 22 17 12 12 14 11 14 7 15 14 9 7 8 15 25 30 29 29 28 27 27 26 26 26 27 27 27 26 27 27 26 26 24 21
5 10 16 15 16 18 14 26 20 14 13 25 27 25 26 24 19 13 13 15 13 18 15 12 13 13 8 6 10 14 23 27 28 29 29 29 28 28 28 29 29 29 29 30 30 29 28 26 24
5 5 11 22 25 26 30 24 22 28 36 28 30 31 28 31 27 22 17 13 17 14 12 16 15 13 12 11 10 15 17 22 22 27 29 30 30 29 30 30 30 31 30 31 31 31 30 29 28
11 17 15 14 19 22 19 24 18 22 32 42 41 40 39 33 32 25 22 18 15 15 17 18 14 10 11 14 12 17 18 17 20 23 27 31 31 31 32 32 33 33 32 31 31 31 31 32 31
13 12 13 8 9 6 28 31 10 28 30 37 41 46 40 37 33 29 27 21 23 24 24 19 15 10 7 8 13 15 19 20 22 23 23 25 29 31 34 35 37 36 35 33 29 31 29 27 31
6 5 3 4 1 9 8 33 4 18 20 26 25 28 34 40 35 26 26 29 28 26 24 18 13 11 9 9 11 14 19 20 22 25 28 26 27 32 33 33 35 34 33 34 33 31 32 31 29
3 6 8 4 10 4 2 20 3 31 23 24 26 35 39 38 29 28 32 32 29 25 19 15 12 11 12 16 18 16 18 20 21 23 23 24 26 28 31 34 35 33 41 37 36 36 35 35 32
6 6 7 3 6 3 8 25 25 21 18 22 30 32 35 33 24 36 33 29 24 20 16 12 9 12 14 15 17 20 20 20 23 24 26 27 26 27 30 31 34 37 39 39 42 42 40 39 36
4 9 17 14 6 8 9 23 19 19 20 27 31 25 22 11 30 32 31 26 21 15 10 5 5 8 11 13 14 17 21 21 22 25 28 29 30 29 27 32 34 35 38 41 44 40 42 45 43
13 15 17 20 8 6 9 22 22 23 20 26 26 24 14 26 20 27 24 20 16 14 10 6 2 4 9 13 15 16 18 21 22 23 25 29 33 34 34 34 34 36 37 41 44 43 45 42 42
14 16 16 15 5 5 7 14 21 13 19 20 24 27 19 33 22 21 21 20 14 12 10 8 7 7 8 11 16 17 18 19 21 22 24 25 29 35 38 40 38 36 34 38 42 45 42 46 43
10 3 4 3 5 7 6 11 30 9 11 7 16 6 32 21 20 28 23 20 17 15 12 10 7 8 10 12 15 18 20 23 24 25 26 26 25 29 35 42 44 41 36 37 40 43 42 41 45
2 2 3 1 1 4 4 3 11 18 17 10 2 24 32 30 22 24 25 20 17 15 15 13 11 11 13 13 15 19 20 22 24 26 28 27 27 26 27 33 41 46 43 37 38 44 45 42 44
7 3 1 2 2 3 4 7 5 6 5 5 17 16 24 29 27 25 23 18 17 15 14 16 16 17 16 17 17 18 21 22 23 25 27 28 28 27 25 24 29 36 42 39 40 44 46 46 45
4 5 3 3 3 6 3 2 4 12 16 14 17 22 13 19 28 28 24 22 20 20 20 20 19 16 19 20 20 19 20 22 24 25 28 30 30 29 25 24 24 28 34 39 37 40 46 47 46
5 7 4 6 3 4 4 3 5 15 25 30 27 24 27 15 29 27 25 22 22 23 21 20 19 19 20 20 21 21 21 22 23 23 25 27 30 30 28 29 30 30 28 36 40 32 41 47 42
5 4 2 2 3 1 3 3 11 11 12 17 19 21 18 23 20 25 23 22 23 22 20 20 20 20 21 22 22 23 23 24 24 23 23 24 27 31 32 31 33 32 29 29 38 34 36 40 41
6 7 3 2 4 4 3 4 2 1 2 9 9 15 14 12 22 20 20 22 21 17 17 20 22 23 22 23 23 24 23 23 24 25 24 24 24 27 29 30 32 32 29 28 32 36 35 42 45
4 4 2 3 2 2 2 2 2 4 6 7 9 13 11 18 15 18 17 16 17 18 20 22 21 22 23 24 23 23 24 23 22 23 25 25 24 26 26 27 29 28 28 28 30 34 35 33 36
10 11 10 3 4 2 2 2 5 7 5 14 13 11 14 14 15 18 19 20 20 20 20 21 20 21 22 23 22 22 22 23 24 23 24 25 24 24 24 25 26 26 23 26 30 29 29 35 35

GFSSGP_850_spd_117.txt.gz
Wind_Speed
5 2 2 0 3 5 3 5 3 7 9 6 5 2 5 3 4 4 12 7 5 8 10 18 23 23 22 21 20 19 18 17 17 16 15 14 11 10 8 8 8 8 10 11 11 11 10 10 9
3 1 3 2 4 3 5 4 2 4 13 18 10 1 2 3 3 9 11 9 6 4 8 12 20 22 22 21 20 20 19 17 16 17 17 15 14 12 10 8 8 8 9 10 11 11 10 10 10
4 2 1 4 3 5 5 2 6 20 25 15 8 3 3 6 7 14 9 6 4 3 4 10 15 21 22 22 21 20 19 18 18 17 18 18 16 14 12 10 9 9 9 9 10 11 10 10 10
4 2 4 3 5 5 4 5 10 13 25 12 7 2 5 4 9 8 10 7 4 3 4 7 9 15 20 21 22 21 20 19 18 18 18 19 19 17 15 13 12 11 11 10 10 11 10 10 10
2 2 2 2 5 4 2 5 12 8 12 11 5 2 3 9 9 10 9 6 3 2 2 5 9 9 15 21 22 22 21 20 20 19 19 19 20 20 18 16 14 13 13 12 11 11 11 10 10
3 3 3 3 5 4 3 6 8 12 20 19 17 3 1 8 11 10 7 5 4 2 1 3 6 10 12 18 24 23 23 22 21 20 20 20 21 21 20 18 17 16 15 13 13 13 12 12 11
5 4 3 3 5 5 2 12 7 11 15 11 24 4 1 11 10 7 5 5 6 5 4 4 4 7 12 15 22 25 25 24 23 22 22 22 22 22 22 20 18 17 16 15 15 14 13 12 11
4 4 2 4 4 6 1 15 12 12 19 21 20 5 5 11 8 6 7 9 7 8 8 7 6 7 8 14 19 27 27 26 25 24 24 23 23 23 23 22 20 19 18 18 17 16 15 14 13
4 4 2 4 3 5 11 7 8 19 16 21 12 15 13 5 9 11 13 14 12 11 10 11 9 8 7 10 16 22 27 27 26 26 25 25 25 25 25 25 23 22 21 20 20 19 17 16 15
4 4 9 6 3 5 19 12 18 7 16 16 18 24 20 19 15 19 18 20 17 14 13 12 12 11 10 10 10 18 25 28 27 27 27 27 27 27 27 26 25 24 24 23 22 21 20 20 19
3 4 5 6 15 14 9 17 18 4 4 13 19 28 27 24 23 18 24 24 22 14 14 13 13 14 11 11 10 11 21 28 28 27 27 28 29 28 28 28 29 28 27 26 26 25 25 25 22
3 6 6 7 13 17 10 18 13 15 19 26 28 24 23 28 28 28 25 25 24 20 15 14 14 15 14 11 10 11 10 21 27 27 27 28 28 28 29 30 31 30 29 29 29 28 28 27 25
5 2 11 19 20 25 23 12 16 24 31 21 27 27 30 31 33 34 35 31 30 26 23 21 20 19 18 16 14 11 12 11 17 23 26 27 28 29 30 31 31 31 31 31 30 30 30 30 29
5 9 14 11 26 25 19 15 10 19 35 29 24 24 23 21 26 30 32 35 33 28 24 26 26 24 21 19 18 16 16 16 17 20 21 26 29 30 31 31 32 32 32 32 32 32 31 32 32
8 6 6 10 11 7 19 6 7 17 13 24 35 34 34 36 35 35 35 36 25 24 25 28 27 24 21 20 20 18 17 19 22 21 22 25 28 32 32 32 34 34 33 34 32 32 31 31 33
5 3 1 4 3 5 4 5 9 8 28 29 28 31 39 41 39 41 34 20 27 28 31 30 26 23 20 17 16 16 14 16 19 23 28 28 28 26 28 32 36 37 37 34 34 34 33 31 33
2 3 4 6 6 4 4 15 3 28 27 26 32 37 32 33 35 22 12 23 29 29 31 28 25 21 18 15 14 15 16 17 19 19 19 21 24 26 29 27 28 33 35 35 33 38 36 30 36
6 4 3 2 6 8 11 25 16 18 20 24 31 30 27 23 14 11 20 26 22 23 24 24 22 20 17 16 16 15 15 17 19 21 22 22 23 24 26 25 27 30 31 31 35 46 45 37 43
2 4 5 5 9 8 15 23 20 10 17 25 31 24 21 8 12 22 23 19 15 13 12 13 12 10 7 9 11 12 15 14 14 18 21 24 28 30 31 31 30 30 33 30 29 33 35 40 43
9 12 13 6 10 7 10 23 19 6 11 24 27 20 9 16 21 19 19 18 11 10 9 8 7 4 1 4 7 8 12 16 16 15 17 20 23 26 30 34 35 33 31 31 30 31 32 37 39
11 9 10 14 2 5 5 13 7 14 10 17 21 24 15 21 23 18 16 15 10 7 8 8 7 5 3 4 7 9 10 13 17 17 17 18 21 24 28 30 34 38 37 35 32 29 30 35 36
9 7 6 4 5 2 3 8 15 9 11 14 19 27 23 21 19 16 17 16 15 15 11 9 9 8 7 6 8 11 13 16 16 18 20 21 21 21 22 26 29 33 37 38 37 34 34 33 35
9 5 3 1 1 2 5 2 6 10 10 10 12 22 25 23 18 18 18 17 16 15 13 12 12 10 8 8 10 13 14 15 18 20 21 21 22 20 20 21 23 27 30 34 37 37 36 37 40
6 3 3 4 3 2 6 7 3 7 8 12 10 19 21 23 19 18 18 16 17 14 16 14 14 14 12 12 12 12 15 17 18 20 22 23 23 23 19 20 20 20 23 27 31 34 38 38 40
3 4 2 3 1 5 1 2 3 6 10 19 17 21 22 21 24 23 25 26 20 16 20 19 20 18 18 17 16 15 16 17 18 19 22 23 24 24 23 22 22 22 22 25 27 30 37 35 38
7 7 4 5 3 3 4 4 2 4 11 19 19 18 18 19 18 21 22 24 22 20 18 19 20 19 18 18 18 17 17 16 17 18 20 22 23 24 24 25 25 25 25 27 29 29 34 37 36
4 4 2 3 2 1 4 4 5 5 5 8 10 12 16 14 15 18 19 22 23 24 25 22 20 19 20 20 19 18 18 18 18 17 17 19 21 22 23 25 27 28 27 27 27 27 27 31 36
6 8 3 1 3 5 4 4 5 7 4 4 4 6 8 10 10 12 14 15 17 20 19 19 19 21 19 19 18 18 17 17 18 18 18 19 21 22 22 24 26 27 27 26 25 26 27 27 34
3 3 1 4 4 4 2 4 5 9 9 9 7 7 6 7 9 9 11 13 15 15 16 18 18 20 20 20 20 20 20 20 20 20 20 20 20 21 23 23 25 27 27 26 26 25 27 25 33
11 10 7 5 5 3 3 5 7 10 11 12 10 10 8 6 8 10 12 11 11 14 17 17 17 18 19 19 20 21 20 20 21 22 21 21 20 20 21 22 23 23 26 26 25 24 24 24 27

GFSSGP_850_spd_120.txt.gz
Wind_Speed
4 2 3 3 4 5 3 4 2 5 8 7 10 4 5 4 5 4 10 10 8 9 13 20 23 24 23 22 21 19 17 15 15 15 14 13 11 9 9 11 10 10 11 12 13 13 11 10 7
3 1 2 3 4 2 4 3 5 3 12 16 6 6 1 2 3 3 12 9 7 6 10 18 22 23 22 21 20 19 18 16 15 15 15 14 12 11 9 10 10 10 11 11 11 11 11 10 8
3 2 2 4 3 4 3 1 6 13 19 9 2 2 3 4 7 13 9 8 6 5 5 10 18 22 21 21 21 19 18 17 16 16 16 15 14 13 11 9 10 11 11 11 11 11 10 9 8
1 1 5 4 4 4 2 6 4 14 21 23 14 2 1 2 5 7 7 7 4 3 3 7 13 19 20 20 20 19 18 17 17 17 17 17 17 15 14 12 11 11 11 11 11 11 11 10 10
0 3 4 2 3 3 5 5 8 6 7 12 15 10 7 3 5 4 7 4 2 1 4 6 7 12 18 20 20 20 20 19 18 18 18 19 19 18 17 15 13 12 11 12 12 12 12 11 11
3 3 4 3 3 3 6 6 5 7 11 19 8 11 5 6 1 5 5 3 2 1 2 3 6 9 11 17 21 22 22 22 20 20 20 21 21 21 19 18 16 14 14 13 13 13 13 12 12
6 4 3 2 4 2 3 10 4 6 13 8 17 4 9 11 1 1 2 3 4 5 3 3 4 6 10 14 17 22 22 22 21 21 21 22 23 23 22 21 19 17 17 16 15 14 14 14 13
5 4 3 4 3 4 1 4 11 10 9 12 15 4 9 20 5 5 7 7 8 9 9 9 9 9 8 10 14 18 24 23 22 21 22 22 23 23 24 23 22 20 20 19 18 17 16 15 15
5 4 3 5 4 4 2 7 6 11 10 15 5 9 12 20 12 15 18 17 16 15 15 15 14 12 11 11 12 15 20 26 25 23 23 23 24 25 26 26 25 23 22 21 20 19 18 17 17
4 4 8 5 4 2 8 5 13 6 17 12 17 23 25 23 16 15 17 21 24 23 21 19 17 15 13 12 12 13 17 21 26 26 25 25 26 27 27 28 27 25 24 22 22 21 20 20 20
3 6 5 4 6 7 5 11 3 3 5 11 18 30 26 24 23 27 27 24 24 27 25 23 20 18 16 14 13 13 13 18 23 27 27 26 26 27 28 29 29 29 27 26 25 25 25 25 23
3 4 2 3 6 10 8 14 5 12 18 20 17 20 21 19 17 18 21 22 24 26 27 25 23 21 19 17 16 16 15 14 19 24 26 26 27 27 27 28 29 30 30 29 28 28 27 27 26
3 3 9 15 16 18 17 9 13 16 21 9 10 16 21 24 25 27 27 26 26 23 27 29 27 24 23 23 20 18 14 12 12 18 23 23 24 24 25 27 28 29 30 31 30 30 30 30 29
1 7 12 11 24 19 6 8 2 4 8 16 24 29 30 31 32 35 35 35 33 29 23 31 31 28 27 26 24 21 18 16 14 16 19 23 23 23 24 25 27 29 30 30 30 32 31 31 31
5 5 7 7 5 5 10 5 2 4 18 27 32 33 32 33 35 35 36 35 25 17 21 25 29 30 28 27 25 23 19 16 17 19 21 25 27 26 27 27 28 29 29 27 30 33 32 32 31
4 4 4 4 6 2 5 5 6 8 28 31 34 38 38 37 35 31 31 26 14 13 20 23 24 24 27 25 22 21 19 17 18 18 20 22 24 27 31 30 33 33 34 31 33 32 33 33 27
5 2 2 8 7 4 5 2 6 24 32 24 31 34 32 29 26 22 12 6 10 17 20 20 19 18 18 21 19 16 15 15 16 17 18 20 21 23 25 32 31 25 22 24 35 35 36 36 34
4 3 3 5 6 8 13 13 7 20 22 27 30 32 25 15 9 9 4 6 10 12 13 15 15 14 13 14 15 15 15 15 17 19 21 21 21 22 23 22 22 23 26 31 29 33 36 37 31
4 3 3 4 10 7 11 13 9 18 20 23 27 23 13 4 6 6 9 8 6 5 5 5 7 7 7 10 11 12 12 13 14 15 17 19 20 22 24 27 27 26 25 24 23 26 29 32 40
6 2 6 6 7 6 10 10 9 6 9 17 22 23 11 15 13 13 13 10 9 7 5 2 1 2 2 3 5 7 9 10 9 9 12 15 17 20 22 24 27 29 30 28 26 25 22 24 22
5 5 4 7 5 5 8 5 5 5 22 24 29 30 25 18 16 15 16 17 14 13 12 11 8 4 3 1 2 4 6 7 8 10 11 11 14 17 20 22 24 26 29 29 29 28 27 27 26
3 6 6 5 1 3 3 6 4 3 12 14 20 24 25 23 20 19 18 19 18 18 15 14 14 15 16 10 8 4 4 6 8 11 15 15 13 15 16 19 21 23 25 26 27 27 30 29 30
7 4 4 4 3 2 2 2 3 6 10 12 18 20 22 23 21 21 19 20 21 21 17 16 16 9 19 20 16 13 11 10 11 12 13 16 15 15 15 15 17 18 20 21 24 26 27 30 33
5 4 3 3 3 4 8 8 4 4 3 9 13 17 17 19 20 22 24 23 23 22 19 18 17 14 12 18 19 18 17 13 14 15 15 16 17 15 15 15 14 15 16 17 19 21 24 27 32
3 5 3 3 1 5 1 2 2 3 4 8 10 10 12 12 12 14 18 21 24 25 23 21 21 22 19 18 17 17 16 15 16 17 18 19 19 17 16 16 15 15 15 16 17 20 23 23 28
6 8 5 5 3 3 2 5 2 6 8 6 7 7 8 11 12 14 14 14 14 17 19 13 12 15 19 20 19 18 16 15 16 17 17 19 20 19 18 18 17 17 16 17 18 21 24 25 26
4 6 2 1 1 1 4 1 3 8 7 6 7 5 6 5 8 10 11 12 13 13 14 15 16 16 17 16 17 18 18 17 18 17 18 18 19 19 19 19 18 17 16 16 19 21 20 23 25
6 7 3 1 3 5 4 4 5 14 12 11 10 8 3 3 6 9 11 12 13 13 12 13 13 16 16 17 18 19 19 18 17 16 16 17 19 19 18 18 18 18 18 18 18 21 20 22 23
3 3 2 3 3 4 2 5 4 17 16 14 12 10 7 2 4 8 11 11 11 12 13 13 14 14 14 16 16 17 20 19 20 20 20 20 19 19 19 20 20 19 20 18 18 19 19 21 20
3 5 6 4 4 4 3 5 4 10 12 15 12 10 7 2 3 8 11 11 11 13 12 13 14 15 15 16 16 18 17 19 21 22 22 21 20 21 21 21 21 19 20 20 22 22 21 18 17

GFSSGP_850_spd_126.txt.gz
Wind_Speed
4 3 3 2 6 5 5 6 2 7 2 7 8 6 9 8 10 5 4 3 0 6 14 16 16 16 17 16 14 13 14 15 16 15 12 8 7 9 11 12 13 13 14 14 13 13 12 11 9
5 4 2 3 6 7 8 6 6 6 7 8 2 3 5 7 9 6 3 4 2 5 10 14 16 17 17 17 15 15 14 15 16 15 14 10 7 8 10 11 12 12 13 13 13 13 12 11 9
4 3 5 4 3 5 5 5 4 6 5 8 1 4 4 6 9 4 6 4 5 4 7 10 13 16 17 17 16 15 15 15 16 16 16 15 11 8 9 10 10 12 13 13 13 13 13 12 10
4 3 3 6 1 6 4 5 4 6 4 8 4 3 5 10 7 8 4 5 5 2 3 7 11 14 16 17 17 16 16 15 15 16 16 16 16 13 10 10 10 12 13 13 13 13 13 12 11
3 5 6 4 4 5 3 2 4 6 3 6 4 4 6 10 10 8 5 3 2 1 2 3 8 12 15 17 18 18 17 17 17 17 18 18 18 17 15 13 12 12 13 13 14 14 13 12 12
6 4 7 7 5 4 3 1 3 5 3 7 5 3 7 9 13 7 4 3 3 1 2 3 4 8 14 16 17 18 18 18 19 19 19 20 20 20 19 17 16 15 14 14 15 14 14 13 12
8 5 7 4 2 5 4 3 5 4 1 6 7 0 3 11 15 9 5 6 5 4 4 4 4 7 10 15 18 19 19 19 19 20 20 21 21 22 21 21 20 18 17 16 16 15 15 14 14
4 4 5 2 3 4 4 2 3 5 6 7 6 2 3 14 15 10 7 7 6 7 8 9 8 10 13 14 16 18 19 20 20 21 21 22 23 23 24 24 23 22 20 19 18 17 16 15 15
2 5 5 1 3 5 3 2 1 6 5 9 2 5 12 16 13 10 8 7 9 8 8 11 12 13 14 16 16 16 18 19 21 23 23 23 24 24 26 27 26 25 24 22 21 20 18 17 17
5 5 3 4 3 4 1 4 9 7 9 6 5 9 13 12 12 13 12 13 13 13 11 11 12 14 16 18 19 18 19 18 20 22 24 26 25 20 20 23 28 27 26 25 24 22 21 20 18
2 6 3 4 3 3 5 9 7 10 6 9 9 13 10 12 13 15 15 14 15 16 15 14 16 16 18 18 20 19 16 14 16 19 20 24 26 27 27 21 22 29 29 28 28 27 26 25 20
6 4 5 1 1 4 8 9 12 14 13 10 9 7 12 14 14 14 16 17 18 18 17 16 16 16 17 16 18 18 16 17 18 18 20 21 23 25 26 27 27 21 22 24 26 25 26 25 23
8 3 4 5 8 10 12 13 11 11 3 1 5 10 13 15 13 14 14 13 14 14 16 16 17 19 16 16 17 19 20 23 21 20 21 20 21 23 25 26 27 28 27 27 26 29 26 27 26
1 3 8 9 11 9 8 3 4 6 1 4 9 13 15 10 14 13 14 15 15 14 13 13 14 15 18 16 19 21 21 20 21 22 20 19 19 21 22 25 27 27 27 27 27 32 31 29 29
3 7 7 4 3 3 6 8 7 5 3 10 12 15 13 11 13 15 14 14 15 14 13 14 13 14 15 16 21 23 24 23 23 22 21 19 19 21 21 20 22 25 27 29 31 31 31 31 33
7 5 6 6 4 2 4 4 5 4 11 14 13 11 6 10 12 13 13 13 12 12 13 14 13 10 9 14 17 15 21 21 20 19 21 20 22 22 23 24 25 26 27 29 29 29 32 33 32
7 7 6 5 2 2 2 6 7 12 13 15 12 9 7 9 12 13 14 13 13 12 11 11 12 12 11 9 9 9 12 12 12 14 15 17 20 22 21 21 23 25 27 29 30 32 33 33 34
4 7 6 8 7 7 12 14 7 11 9 6 6 6 9 10 13 13 14 13 13 11 9 10 11 12 10 9 10 7 5 7 8 10 13 13 14 16 17 17 20 22 21 22 25 30 31 36 39
6 8 11 10 6 8 8 11 11 6 3 3 6 8 8 9 10 12 13 12 12 12 10 10 10 9 11 10 7 10 9 5 5 6 9 11 14 16 15 15 17 19 20 20 22 22 23 28 34
9 11 13 8 2 7 10 14 3 2 3 4 5 6 5 6 9 10 12 13 14 13 13 12 11 9 8 6 6 5 7 10 8 8 8 9 11 13 15 17 19 20 22 24 24 23 21 21 22
9 11 10 10 9 13 9 18 9 8 6 5 4 3 4 5 7 10 12 14 14 16 18 17 16 13 10 8 8 7 7 7 8 10 12 13 13 13 14 17 19 20 21 22 23 25 26 20 21
11 4 7 7 6 5 3 6 11 12 7 6 2 1 3 4 6 7 9 11 12 12 12 13 14 14 14 15 14 11 8 8 12 11 15 14 13 15 17 18 20 21 22 21 22 22 23 25 27
4 3 4 5 8 8 12 6 2 11 14 10 5 2 0 2 4 5 8 9 11 11 10 8 10 11 12 13 16 17 14 14 12 13 17 20 17 14 16 16 17 20 20 22 21 21 21 21 22
7 6 4 5 5 7 12 12 5 10 14 10 7 6 5 3 1 3 5 7 9 11 12 12 11 12 11 11 13 15 15 17 18 18 18 22 23 19 16 16 16 17 19 20 21 21 20 21 22
11 7 3 5 5 6 2 8 14 9 8 8 10 10 8 4 1 2 6 7 9 11 12 12 13 13 14 14 13 13 12 12 14 17 23 22 24 20 18 17 17 17 19 20 21 22 21 20 22
15 12 6 6 7 7 3 8 1 4 9 8 9 12 10 6 3 1 4 6 9 11 12 12 12 12 13 13 14 14 15 15 14 13 12 13 18 19 20 18 16 16 16 18 19 19 18 20 22
7 9 13 15 12 9 12 14 7 9 8 12 15 15 13 9 6 1 3 5 7 8 10 12 12 12 13 13 12 13 13 13 13 12 12 11 12 15 15 14 14 14 14 15 16 16 17 20 23
10 10 4 5 7 14 11 14 11 12 14 15 17 18 15 12 7 2 2 4 5 7 9 9 10 11 11 11 12 13 13 13 13 13 11 10 11 11 12 11 13 14 13 12 12 11 12 16 18
9 11 8 5 9 10 14 10 5 11 15 18 21 19 17 13 8 3 1 2 4 5 7 8 9 10 11 11 12 12 13 14 14 14 14 14 12 12 13 14 15 16 15 13 11 11 11 12 13
18 17 18 11 12 7 9 16 2 3 9 15 19 19 17 14 9 5 2 1 3 4 5 7 8 10 11 11 12 13 13 14 13 14 16 16 15 16 18 19 21 23 22 19 16 15 14 13 15

GFSSGP_850_spd_129.txt.gz
Wind_Speed
9 11 8 8 7 7 9 6 4 0 4 6 5 6 9 21 14 5 7 9 7 7 9 13 11 11 12 11 11 11 11 11 11 11 10 8 4 5 7 8 9 10 11 11 11 10 9 8 7
6 8 9 12 8 11 5 11 5 5 4 3 2 1 1 15 13 12 8 11 7 6 4 11 12 13 13 12 11 11 11 11 12 12 11 10 7 6 7 8 8 9 9 10 11 11 10 9 7
9 8 13 7 11 10 7 7 8 4 2 2 2 7 6 7 12 8 8 10 8 6 5 6 11 12 13 12 12 11 11 11 13 13 14 12 10 8 8 8 8 9 10 11 11 12 12 11 9
6 8 10 9 15 8 8 6 1 2 3 3 0 10 12 11 6 8 7 7 7 6 2 2 6 9 12 12 13 12 12 12 13 15 15 15 14 12 10 10 10 10 11 12 13 13 13 13 11
7 11 10 11 4 4 1 5 2 2 2 5 4 8 13 11 7 7 6 6 6 6 4 2 2 7 10 12 13 13 13 14 14 16 17 17 17 16 14 13 13 12 12 13 13 14 14 15 14
11 8 10 11 10 5 2 2 0 2 1 6 5 4 6 9 11 8 7 7 8 6 4 4 2 5 9 12 14 15 15 15 16 17 18 18 19 19 18 18 17 16 15 15 15 15 15 16 15
13 9 13 8 2 6 3 1 2 2 3 8 4 6 7 9 13 9 8 7 7 7 6 4 3 6 8 11 14 16 17 17 18 18 19 20 21 21 21 22 21 20 19 17 17 17 16 17 17
10 7 14 6 4 9 5 4 2 2 11 4 3 1 5 12 11 7 5 5 8 9 7 6 5 6 7 10 12 14 16 18 20 20 21 21 22 23 24 25 25 24 23 21 20 19 18 18 18
8 9 10 3 4 9 5 5 6 1 5 1 1 3 7 10 8 6 5 4 6 8 10 10 8 8 10 10 13 16 17 18 20 22 23 23 24 24 26 27 27 26 25 24 24 22 20 19 20
9 9 7 8 5 5 5 4 5 5 3 6 3 1 8 7 7 7 7 8 9 10 10 9 13 10 10 11 13 15 14 17 19 21 22 23 24 20 19 21 26 29 28 28 27 25 23 23 21
5 12 8 5 3 3 5 7 2 8 7 3 6 9 6 8 8 9 9 9 10 11 9 11 11 6 9 11 12 14 13 13 14 15 17 18 19 20 23 22 25 29 32 31 29 29 28 27 22
8 8 5 1 4 7 7 8 11 10 9 6 5 3 6 7 8 11 11 12 11 11 11 11 12 10 11 12 11 16 16 17 17 15 19 19 20 20 22 22 24 23 20 25 27 27 26 27 25
11 10 4 7 8 11 10 12 13 11 1 3 2 3 5 6 8 9 10 11 13 13 14 14 14 16 13 15 16 19 18 17 18 19 17 15 17 19 19 21 23 25 24 24 25 28 30 30 29
4 7 9 10 12 12 11 13 5 8 6 5 4 4 6 6 8 8 10 11 13 14 15 15 13 14 13 14 17 19 23 21 20 22 20 19 18 17 17 20 21 24 26 29 27 25 28 31 31
9 11 13 15 10 6 8 14 11 8 7 5 5 4 5 6 7 9 10 11 13 13 14 17 16 13 13 12 13 19 22 24 21 19 23 24 23 20 21 19 18 18 19 22 25 27 29 29 33
10 11 11 10 9 7 6 10 16 10 9 10 7 5 3 4 7 9 10 12 13 15 17 18 18 16 14 12 11 13 17 16 19 18 20 19 23 23 23 23 23 24 22 21 25 26 28 29 35
12 11 13 10 10 4 8 8 2 7 7 10 9 2 2 2 5 8 11 11 13 14 16 16 18 18 15 11 11 10 15 9 8 10 17 16 18 18 18 17 18 21 23 24 23 26 28 31 34
9 13 8 10 12 9 11 15 14 11 9 6 9 2 3 3 5 7 9 10 10 12 13 13 14 16 15 11 11 10 10 10 10 11 9 9 13 15 15 9 12 15 13 12 13 18 21 25 32
10 11 13 12 7 5 14 18 12 12 2 8 6 2 2 2 3 6 8 10 10 12 13 14 14 14 15 14 9 8 10 11 9 10 13 11 12 13 12 15 16 19 17 17 17 17 19 20 21
12 14 15 14 7 5 16 17 14 5 7 7 6 6 3 1 2 5 7 9 11 12 13 14 15 13 12 13 14 12 8 8 9 10 8 11 13 17 17 16 16 18 19 20 20 21 22 20 15
15 16 14 13 7 12 19 19 25 11 9 9 8 4 2 1 3 4 6 7 9 10 11 12 13 13 13 11 11 11 11 6 9 12 11 11 12 15 17 17 16 17 19 20 20 21 22 26 23
15 14 10 10 10 9 6 9 2 16 14 14 12 8 4 1 2 4 4 6 10 12 11 11 11 12 13 12 11 12 10 9 10 11 12 12 14 13 15 18 19 17 18 20 23 22 22 22 28
13 2 7 10 11 13 17 11 13 13 17 14 14 10 6 3 2 2 4 7 9 10 11 12 12 12 13 13 13 11 10 11 10 11 11 12 13 16 18 17 19 20 18 19 23 23 21 21 23
2 7 9 10 11 12 19 18 11 11 12 13 11 11 8 5 3 2 3 5 7 9 11 11 12 12 14 14 13 14 14 15 13 15 13 12 12 14 16 19 20 21 20 19 20 21 21 20 21
13 11 6 10 9 10 3 7 12 8 9 4 11 10 9 7 4 2 2 3 5 8 9 10 11 11 12 12 12 11 12 11 11 14 14 16 15 17 16 18 20 20 21 19 20 20 22 19 19
19 15 8 10 10 10 8 7 3 9 12 9 6 10 11 9 6 5 2 2 4 6 7 9 9 10 11 11 11 11 10 11 11 12 12 12 13 14 17 17 18 21 19 19 18 18 16 17 19
12 16 14 16 16 12 12 16 10 9 12 11 11 12 13 11 9 6 2 1 2 4 6 8 8 9 10 10 10 10 11 11 11 12 10 11 13 14 15 15 15 16 15 15 16 15 14 15 17
12 8 7 8 7 17 15 16 10 16 13 12 14 17 15 13 11 7 4 1 1 3 5 6 7 8 8 8 9 10 11 11 11 11 12 13 13 14 14 15 15 15 15 14 13 12 13 14 15
12 11 10 10 14 12 14 12 6 11 12 14 16 19 20 18 15 10 6 3 1 2 4 5 5 6 7 7 8 9 10 11 12 13 13 14 14 15 15 15 17 18 17 15 14 12 12 13 14
18 21 19 11 17 12 13 17 2 7 7 12 16 21 22 20 16 12 8 5 2 2 2 3 4 5 6 7 8 10 11 11 12 13 14 14 14 15 16 18 18 18 18 16 18 17 16 17 18